Wetterdaten: Freitag, 31.03.2017
Datum Zeit Temp. A. Feuchte A. Luftdruck Regen Wind Richtung Richtung Sonnenschein ET UV Solar Taupunkt Windchill Windben Empfang
31.03.2017 00:00 11,2 C 73 % 1023,5 hPa 0,0 l/m 5,3 km/h (1 Bft) O-NO 78 0 min 0,000 mm 0,0 UV-I 0 W/m 6,5 C 11,2 C 6,4 km/h (2 Bft) 97,87 %
31.03.2017 00:02 11,2 C 72 % 1023,5 hPa 0,0 l/m 4,8 km/h (1 Bft) O-NO 78 0 min 0,000 mm 0,0 UV-I 0 W/m 6,3 C 11,2 C 4,8 km/h (1 Bft) 97,78 %
31.03.2017 00:04 11,2 C 72 % 1023,5 hPa 0,0 l/m 4,9 km/h (1 Bft) O-NO 78 0 min 0,000 mm 0,0 UV-I 0 W/m 6,3 C 11,2 C 6,4 km/h (2 Bft) 89,47 %
31.03.2017 00:06 11,2 C 72 % 1023,5 hPa 0,0 l/m 4,1 km/h (1 Bft) O-NO 77 0 min 0,000 mm 0,0 UV-I 0 W/m 6,3 C 11,2 C 6,4 km/h (2 Bft) 97,87 %
31.03.2017 00:08 11,2 C 72 % 1023,5 hPa 0,0 l/m 4,7 km/h (1 Bft) O-NO 77 0 min 0,000 mm 0,0 UV-I 0 W/m 6,3 C 11,2 C 6,4 km/h (2 Bft) 95,74 %
31.03.2017 00:10 11,2 C 72 % 1023,5 hPa 0,0 l/m 5,6 km/h (1 Bft) O-NO 66 0 min 0,000 mm 0,0 UV-I 0 W/m 6,3 C 11,2 C 8,0 km/h (2 Bft) 97,87 %
31.03.2017 00:12 11,2 C 73 % 1023,5 hPa 0,0 l/m 5,5 km/h (1 Bft) O-NO 66 0 min 0,000 mm 0,0 UV-I 0 W/m 6,5 C 11,2 C 6,4 km/h (2 Bft) 96,00 %
31.03.2017 00:14 11,1 C 73 % 1023,4 hPa 0,0 l/m 6,1 km/h (2 Bft) O-NO 72 0 min 0,000 mm 0,0 UV-I 0 W/m 6,4 C 11,1 C 8,0 km/h (2 Bft) 97,87 %
31.03.2017 00:16 11,1 C 73 % 1023,4 hPa 0,0 l/m 5,8 km/h (2 Bft) O-NO 72 0 min 0,000 mm 0,0 UV-I 0 W/m 6,4 C 11,1 C 8,0 km/h (2 Bft) 97,92 %
31.03.2017 00:18 11,0 C 73 % 1023,4 hPa 0,0 l/m 5,5 km/h (1 Bft) O-NO 66 0 min 0,000 mm 0,0 UV-I 0 W/m 6,4 C 11,0 C 8,0 km/h (2 Bft) 95,83 %
31.03.2017 00:20 10,9 C 73 % 1023,4 hPa 0,0 l/m 5,6 km/h (1 Bft) O-NO 66 0 min 0,000 mm 0,0 UV-I 0 W/m 6,3 C 10,9 C 6,4 km/h (2 Bft) 98,00 %
31.03.2017 00:22 10,9 C 74 % 1023,4 hPa 0,0 l/m 5,3 km/h (1 Bft) O-NO 64 0 min 0,000 mm 0,0 UV-I 0 W/m 6,5 C 10,9 C 6,4 km/h (2 Bft) 95,12 %
31.03.2017 00:24 10,8 C 74 % 1023,4 hPa 0,0 l/m 5,3 km/h (1 Bft) O-NO 63 0 min 0,000 mm 0,0 UV-I 0 W/m 6,4 C 10,8 C 6,4 km/h (2 Bft) 96,00 %
31.03.2017 00:26 10,8 C 74 % 1023,4 hPa 0,0 l/m 4,8 km/h (1 Bft) O-NO 63 0 min 0,000 mm 0,0 UV-I 0 W/m 6,4 C 10,8 C 6,4 km/h (2 Bft) 97,87 %
31.03.2017 00:28 10,7 C 74 % 1023,4 hPa 0,0 l/m 5,4 km/h (1 Bft) O-NO 69 0 min 0,000 mm 0,0 UV-I 0 W/m 6,3 C 10,7 C 8,0 km/h (2 Bft) 95,74 %
31.03.2017 00:30 10,6 C 75 % 1023,4 hPa 0,0 l/m 7,4 km/h (2 Bft) O-NO 69 0 min 0,000 mm 0,0 UV-I 0 W/m 6,4 C 9,9 C 9,7 km/h (2 Bft) 97,56 %
31.03.2017 00:32 10,6 C 75 % 1023,3 hPa 0,0 l/m 6,6 km/h (2 Bft) O-NO 66 0 min 0,000 mm 0,0 UV-I 0 W/m 6,4 C 10,5 C 8,0 km/h (2 Bft) 97,92 %
31.03.2017 00:34 10,5 C 76 % 1023,3 hPa 0,0 l/m 6,2 km/h (2 Bft) O-NO 71 0 min 0,000 mm 0,0 UV-I 0 W/m 6,5 C 10,5 C 8,0 km/h (2 Bft) 100,00 %
31.03.2017 00:36 10,4 C 76 % 1023,3 hPa 0,0 l/m 6,1 km/h (2 Bft) NO 51 0 min 0,000 mm 0,0 UV-I 0 W/m 6,4 C 10,4 C 8,0 km/h (2 Bft) 100,00 %
31.03.2017 00:38 10,4 C 76 % 1023,3 hPa 0,0 l/m 6,6 km/h (2 Bft) O-NO 61 0 min 0,000 mm 0,0 UV-I 0 W/m 6,4 C 10,3 C 9,7 km/h (2 Bft) 100,00 %
31.03.2017 00:40 10,3 C 76 % 1023,2 hPa 0,0 l/m 6,4 km/h (2 Bft) O-NO 61 0 min 0,000 mm 0,0 UV-I 0 W/m 6,3 C 10,3 C 8,0 km/h (2 Bft) 100,00 %
31.03.2017 00:42 10,3 C 77 % 1023,2 hPa 0,0 l/m 6,7 km/h (2 Bft) O-NO 61 0 min 0,000 mm 0,0 UV-I 0 W/m 6,4 C 10,1 C 8,0 km/h (2 Bft) 100,00 %
31.03.2017 00:44 10,3 C 77 % 1023,2 hPa 0,0 l/m 5,6 km/h (1 Bft) O-NO 69 0 min 0,000 mm 0,0 UV-I 0 W/m 6,4 C 10,3 C 6,4 km/h (2 Bft) 96,00 %
31.03.2017 00:46 10,2 C 77 % 1023,2 hPa 0,0 l/m 5,6 km/h (1 Bft) O-NO 59 0 min 0,000 mm 0,0 UV-I 0 W/m 6,4 C 10,2 C 9,7 km/h (2 Bft) 97,87 %
31.03.2017 00:48 10,2 C 77 % 1023,2 hPa 0,0 l/m 6,2 km/h (2 Bft) NO 55 0 min 0,000 mm 0,0 UV-I 0 W/m 6,4 C 10,2 C 8,0 km/h (2 Bft) 97,87 %
31.03.2017 00:50 10,1 C 77 % 1023,2 hPa 0,0 l/m 5,5 km/h (1 Bft) NO 54 0 min 0,000 mm 0,0 UV-I 0 W/m 6,3 C 10,1 C 8,0 km/h (2 Bft) 97,22 %
31.03.2017 00:52 10,1 C 78 % 1023,2 hPa 0,0 l/m 4,5 km/h (1 Bft) NO 54 0 min 0,000 mm 0,0 UV-I 0 W/m 6,4 C 10,1 C 6,4 km/h (2 Bft) 95,92 %
31.03.2017 00:54 9,9 C 78 % 1023,2 hPa 0,0 l/m 2,8 km/h (1 Bft) NO 54 0 min 0,000 mm 0,0 UV-I 0 W/m 6,2 C 9,9 C 4,8 km/h (1 Bft) 100,00 %
31.03.2017 00:56 9,8 C 78 % 1023,1 hPa 0,0 l/m 1,7 km/h (1 Bft) NO 54 0 min 0,000 mm 0,0 UV-I 0 W/m 6,1 C 9,8 C 3,2 km/h (1 Bft) 100,00 %
31.03.2017 00:58 9,8 C 79 % 1023,2 hPa 0,0 l/m 1,8 km/h (1 Bft) NO 54 0 min 0,000 mm 0,0 UV-I 0 W/m 6,3 C 9,8 C 3,2 km/h (1 Bft) 100,00 %
31.03.2017 01:00 9,8 C 79 % 1023,2 hPa 0,0 l/m 1,2 km/h (1 Bft) NO 54 0 min 0,025 mm 0,0 UV-I 0 W/m 6,3 C 9,8 C 3,2 km/h (1 Bft) 97,87 %
31.03.2017 01:02 9,7 C 79 % 1023,2 hPa 0,0 l/m 0,5 km/h (0 Bft) NO 54 0 min 0,000 mm 0,0 UV-I 0 W/m 6,2 C 9,7 C 1,6 km/h (1 Bft) 98,00 %
31.03.2017 01:04 9,7 C 79 % 1023,2 hPa 0,0 l/m 0,0 km/h (0 Bft) NO 54 0 min 0,000 mm 0,0 UV-I 0 W/m 6,2 C 9,7 C 0,0 km/h (0 Bft) 100,00 %
31.03.2017 01:06 9,3 C 79 % 1023,1 hPa 0,0 l/m 0,0 km/h (0 Bft) NO 54 0 min 0,000 mm 0,0 UV-I 0 W/m 5,8 C 9,3 C 0,0 km/h (0 Bft) 100,00 %
31.03.2017 01:08 9,1 C 80 % 1023,2 hPa 0,0 l/m 0,0 km/h (0 Bft) NO 54 0 min 0,000 mm 0,0 UV-I 0 W/m 5,8 C 9,1 C 0,0 km/h (0 Bft) 100,00 %
31.03.2017 01:10 8,8 C 80 % 1023,1 hPa 0,0 l/m 0,0 km/h (0 Bft) NO 54 0 min 0,000 mm 0,0 UV-I 0 W/m 5,5 C 8,8 C 0,0 km/h (0 Bft) 97,37 %
31.03.2017 01:12 8,4 C 82 % 1023,1 hPa 0,0 l/m 1,1 km/h (1 Bft) NO 54 0 min 0,000 mm 0,0 UV-I 0 W/m 5,5 C 8,4 C 1,6 km/h (1 Bft) 97,87 %
31.03.2017 01:14 8,2 C 83 % 1023,1 hPa 0,0 l/m 1,7 km/h (1 Bft) NO 54 0 min 0,000 mm 0,0 UV-I 0 W/m 5,5 C 8,2 C 3,2 km/h (1 Bft) 95,74 %
31.03.2017 01:16 8,1 C 84 % 1023,1 hPa 0,0 l/m 1,8 km/h (1 Bft) NO 54 0 min 0,000 mm 0,0 UV-I 0 W/m 5,6 C 8,1 C 3,2 km/h (1 Bft) 95,74 %
31.03.2017 01:18 7,9 C 84 % 1023,1 hPa 0,0 l/m 2,4 km/h (1 Bft) NO 54 0 min 0,000 mm 0,0 UV-I 0 W/m 5,4 C 7,9 C 3,2 km/h (1 Bft) 91,49 %
31.03.2017 01:20 8,0 C 85 % 1023,0 hPa 0,0 l/m 2,5 km/h (1 Bft) NO 54 0 min 0,000 mm 0,0 UV-I 0 W/m 5,6 C 8,0 C 3,2 km/h (1 Bft) 97,87 %
31.03.2017 01:22 8,0 C 85 % 1023,0 hPa 0,0 l/m 2,9 km/h (1 Bft) NO 54 0 min 0,000 mm 0,0 UV-I 0 W/m 5,6 C 8,0 C 3,2 km/h (1 Bft) 97,87 %
31.03.2017 01:24 8,1 C 85 % 1023,0 hPa 0,0 l/m 3,5 km/h (1 Bft) NO 54 0 min 0,000 mm 0,0 UV-I 0 W/m 5,7 C 8,1 C 4,8 km/h (1 Bft) 98,00 %
31.03.2017 01:26 8,3 C 85 % 1023,0 hPa 0,0 l/m 3,5 km/h (1 Bft) O-NO 62 0 min 0,000 mm 0,0 UV-I 0 W/m 5,9 C 8,3 C 4,8 km/h (1 Bft) 97,87 %
31.03.2017 01:28 8,5 C 85 % 1023,0 hPa 0,0 l/m 3,3 km/h (1 Bft) O-NO 62 0 min 0,000 mm 0,0 UV-I 0 W/m 6,1 C 8,5 C 4,8 km/h (1 Bft) 95,74 %
31.03.2017 01:30 8,7 C 84 % 1023,0 hPa 0,0 l/m 4,2 km/h (1 Bft) O-NO 62 0 min 0,000 mm 0,0 UV-I 0 W/m 6,2 C 8,7 C 6,4 km/h (2 Bft) 97,87 %
31.03.2017 01:32 8,9 C 83 % 1022,9 hPa 0,0 l/m 3,3 km/h (1 Bft) O-NO 62 0 min 0,000 mm 0,0 UV-I 0 W/m 6,2 C 8,9 C 4,8 km/h (1 Bft) 97,87 %
31.03.2017 01:34 9,1 C 83 % 1023,0 hPa 0,0 l/m 2,3 km/h (1 Bft) O-NO 62 0 min 0,000 mm 0,0 UV-I 0 W/m 6,4 C 9,1 C 3,2 km/h (1 Bft) 95,74 %
31.03.2017 01:36 9,2 C 82 % 1023,0 hPa 0,0 l/m 3,0 km/h (1 Bft) O-NO 62 0 min 0,000 mm 0,0 UV-I 0 W/m 6,3 C 9,2 C 4,8 km/h (1 Bft) 97,92 %
31.03.2017 01:38 9,2 C 82 % 1022,9 hPa 0,0 l/m 3,1 km/h (1 Bft) O-NO 62 0 min 0,000 mm 0,0 UV-I 0 W/m 6,3 C 9,2 C 4,8 km/h (1 Bft) 97,87 %
31.03.2017 01:40 9,3 C 82 % 1022,8 hPa 0,0 l/m 2,7 km/h (1 Bft) O-NO 62 0 min 0,000 mm 0,0 UV-I 0 W/m 6,4 C 9,3 C 3,2 km/h (1 Bft) 97,87 %
31.03.2017 01:42 9,3 C 82 % 1022,9 hPa 0,0 l/m 2,4 km/h (1 Bft) O-NO 62 0 min 0,000 mm 0,0 UV-I 0 W/m 6,4 C 9,3 C 3,2 km/h (1 Bft) 98,00 %
31.03.2017 01:44 9,4 C 81 % 1022,8 hPa 0,0 l/m 2,7 km/h (1 Bft) O-NO 62 0 min 0,000 mm 0,0 UV-I 0 W/m 6,3 C 9,4 C 3,2 km/h (1 Bft) 94,74 %
31.03.2017 01:46 9,4 C 81 % 1022,9 hPa 0,0 l/m 3,0 km/h (1 Bft) O-NO 62 0 min 0,000 mm 0,0 UV-I 0 W/m 6,3 C 9,4 C 4,8 km/h (1 Bft) 97,87 %
31.03.2017 01:48 9,4 C 81 % 1022,8 hPa 0,0 l/m 3,6 km/h (1 Bft) O-NO 62 0 min 0,000 mm 0,0 UV-I 0 W/m 6,3 C 9,4 C 4,8 km/h (1 Bft) 97,87 %
31.03.2017 01:50 9,4 C 81 % 1022,8 hPa 0,0 l/m 4,1 km/h (1 Bft) O-NO 62 0 min 0,000 mm 0,0 UV-I 0 W/m 6,3 C 9,4 C 6,4 km/h (2 Bft) 100,00 %
31.03.2017 01:52 9,4 C 81 % 1022,7 hPa 0,0 l/m 4,2 km/h (1 Bft) O-NO 62 0 min 0,000 mm 0,0 UV-I 0 W/m 6,3 C 9,4 C 4,8 km/h (1 Bft) 100,00 %
31.03.2017 01:54 9,4 C 81 % 1022,8 hPa 0,0 l/m 3,5 km/h (1 Bft) O-NO 62 0 min 0,000 mm 0,0 UV-I 0 W/m 6,3 C 9,4 C 4,8 km/h (1 Bft) 97,87 %
31.03.2017 01:56 9,4 C 81 % 1022,7 hPa 0,0 l/m 2,4 km/h (1 Bft) O-NO 62 0 min 0,000 mm 0,0 UV-I 0 W/m 6,3 C 9,4 C 3,2 km/h (1 Bft) 98,00 %
31.03.2017 01:58 9,3 C 81 % 1022,7 hPa 0,0 l/m 3,1 km/h (1 Bft) O-NO 62 0 min 0,000 mm 0,0 UV-I 0 W/m 6,2 C 9,3 C 4,8 km/h (1 Bft) 97,87 %
31.03.2017 02:00 9,1 C 81 % 1022,7 hPa 0,0 l/m 0,7 km/h (0 Bft) O-NO 62 0 min 0,000 mm 0,0 UV-I 0 W/m 6,0 C 9,1 C 3,2 km/h (1 Bft) 95,74 %
31.03.2017 02:02 8,9 C 82 % 1022,6 hPa 0,0 l/m 2,3 km/h (1 Bft) O-NO 62 0 min 0,000 mm 0,0 UV-I 0 W/m 6,0 C 8,9 C 4,8 km/h (1 Bft) 98,00 %
31.03.2017 02:04 8,8 C 83 % 1022,6 hPa 0,0 l/m 4,2 km/h (1 Bft) O-NO 63 0 min 0,000 mm 0,0 UV-I 0 W/m 6,1 C 8,8 C 6,4 km/h (2 Bft) 100,00 %
31.03.2017 02:06 8,7 C 83 % 1022,6 hPa 0,0 l/m 4,2 km/h (1 Bft) O 80 0 min 0,000 mm 0,0 UV-I 0 W/m 6,0 C 8,7 C 6,4 km/h (2 Bft) 95,74 %
31.03.2017 02:08 8,8 C 84 % 1022,5 hPa 0,0 l/m 5,1 km/h (1 Bft) O 80 0 min 0,000 mm 0,0 UV-I 0 W/m 6,2 C 8,8 C 8,0 km/h (2 Bft) 98,00 %
31.03.2017 02:10 8,9 C 83 % 1022,5 hPa 0,0 l/m 5,2 km/h (1 Bft) O-NO 76 0 min 0,000 mm 0,0 UV-I 0 W/m 6,2 C 8,9 C 6,4 km/h (2 Bft) 100,00 %
31.03.2017 02:12 9,1 C 83 % 1022,5 hPa 0,0 l/m 5,6 km/h (1 Bft) O 81 0 min 0,000 mm 0,0 UV-I 0 W/m 6,4 C 9,1 C 8,0 km/h (2 Bft) 95,74 %
31.03.2017 02:14 9,2 C 83 % 1022,5 hPa 0,0 l/m 4,2 km/h (1 Bft) O 88 0 min 0,000 mm 0,0 UV-I 0 W/m 6,5 C 9,2 C 6,4 km/h (2 Bft) 100,00 %
31.03.2017 02:16 9,2 C 82 % 1022,5 hPa 0,0 l/m 4,0 km/h (1 Bft) O-NO 68 0 min 0,000 mm 0,0 UV-I 0 W/m 6,3 C 9,2 C 6,4 km/h (2 Bft) 100,00 %
31.03.2017 02:18 9,2 C 82 % 1022,5 hPa 0,0 l/m 3,6 km/h (1 Bft) O-NO 74 0 min 0,000 mm 0,0 UV-I 0 W/m 6,3 C 9,2 C 4,8 km/h (1 Bft) 97,87 %
31.03.2017 02:20 9,2 C 82 % 1022,5 hPa 0,0 l/m 4,5 km/h (1 Bft) O 82 0 min 0,000 mm 0,0 UV-I 0 W/m 6,3 C 9,2 C 11,3 km/h (2 Bft) 100,00 %
31.03.2017 02:22 9,2 C 82 % 1022,5 hPa 0,0 l/m 5,6 km/h (1 Bft) NO 53 0 min 0,000 mm 0,0 UV-I 0 W/m 6,3 C 9,2 C 12,9 km/h (3 Bft) 100,00 %
31.03.2017 02:24 9,3 C 82 % 1022,5 hPa 0,0 l/m 4,2 km/h (1 Bft) O-NO 67 0 min 0,000 mm 0,0 UV-I 0 W/m 6,4 C 9,3 C 8,0 km/h (2 Bft) 100,00 %
31.03.2017 02:26 9,3 C 82 % 1022,5 hPa 0,0 l/m 6,3 km/h (2 Bft) O-NO 67 0 min 0,000 mm 0,0 UV-I 0 W/m 6,4 C 9,3 C 12,9 km/h (3 Bft) 100,00 %
31.03.2017 02:28 9,3 C 82 % 1022,5 hPa 0,0 l/m 4,5 km/h (1 Bft) O-NO 71 0 min 0,000 mm 0,0 UV-I 0 W/m 6,4 C 9,3 C 9,7 km/h (2 Bft) 100,00 %
31.03.2017 02:30 9,3 C 82 % 1022,5 hPa 0,0 l/m 4,1 km/h (1 Bft) O 82 0 min 0,000 mm 0,0 UV-I 0 W/m 6,4 C 9,3 C 9,7 km/h (2 Bft) 100,00 %
31.03.2017 02:32 9,2 C 82 % 1022,5 hPa 0,0 l/m 3,6 km/h (1 Bft) O 82 0 min 0,000 mm 0,0 UV-I 0 W/m 6,3 C 9,2 C 8,0 km/h (2 Bft) 97,87 %
31.03.2017 02:34 9,2 C 82 % 1022,5 hPa 0,0 l/m 6,1 km/h (2 Bft) O-NO 78 0 min 0,000 mm 0,0 UV-I 0 W/m 6,3 C 9,2 C 11,3 km/h (2 Bft) 95,74 %
31.03.2017 02:36 9,2 C 82 % 1022,5 hPa 0,0 l/m 4,1 km/h (1 Bft) O-SO 103 0 min 0,000 mm 0,0 UV-I 0 W/m 6,3 C 9,2 C 8,0 km/h (2 Bft) 100,00 %
31.03.2017 02:38 9,2 C 82 % 1022,5 hPa 0,0 l/m 2,7 km/h (1 Bft) O-SO 103 0 min 0,000 mm 0,0 UV-I 0 W/m 6,3 C 9,2 C 4,8 km/h (1 Bft) 96,00 %
31.03.2017 02:40 9,1 C 82 % 1022,5 hPa 0,0 l/m 2,3 km/h (1 Bft) O-SO 103 0 min 0,000 mm 0,0 UV-I 0 W/m 6,2 C 9,1 C 3,2 km/h (1 Bft) 100,00 %
31.03.2017 02:42 8,8 C 82 % 1022,5 hPa 0,0 l/m 0,1 km/h (0 Bft) O-SO 103 0 min 0,000 mm 0,0 UV-I 0 W/m 5,9 C 8,8 C 1,6 km/h (1 Bft) 100,00 %
31.03.2017 02:44 8,6 C 83 % 1022,5 hPa 0,0 l/m 0,0 km/h (0 Bft) O-SO 103 0 min 0,000 mm 0,0 UV-I 0 W/m 5,9 C 8,6 C 0,0 km/h (0 Bft) 97,87 %
31.03.2017 02:46 8,2 C 82 % 1022,4 hPa 0,0 l/m 0,0 km/h (0 Bft) O-SO 103 0 min 0,000 mm 0,0 UV-I 0 W/m 5,3 C 8,2 C 0,0 km/h (0 Bft) 97,87 %
31.03.2017 02:48 7,8 C 83 % 1022,4 hPa 0,0 l/m 0,0 km/h (0 Bft) O-SO 103 0 min 0,000 mm 0,0 UV-I 0 W/m 5,1 C 7,8 C 0,0 km/h (0 Bft) 97,87 %
31.03.2017 02:50 7,6 C 85 % 1022,3 hPa 0,0 l/m 0,8 km/h (0 Bft) O-SO 103 0 min 0,000 mm 0,0 UV-I 0 W/m 5,2 C 7,6 C 3,2 km/h (1 Bft) 98,00 %
31.03.2017 02:52 7,4 C 85 % 1022,2 hPa 0,0 l/m 4,2 km/h (1 Bft) O 101 0 min 0,000 mm 0,0 UV-I 0 W/m 5,0 C 7,4 C 6,4 km/h (2 Bft) 100,00 %
31.03.2017 02:54 7,4 C 86 % 1022,2 hPa 0,0 l/m 4,9 km/h (1 Bft) O 92 0 min 0,000 mm 0,0 UV-I 0 W/m 5,2 C 7,4 C 6,4 km/h (2 Bft) 97,22 %
31.03.2017 02:56 7,6 C 87 % 1022,2 hPa 0,0 l/m 3,7 km/h (1 Bft) O 92 0 min 0,000 mm 0,0 UV-I 0 W/m 5,6 C 7,6 C 4,8 km/h (1 Bft) 98,00 %
31.03.2017 02:58 7,7 C 87 % 1022,1 hPa 0,0 l/m 4,7 km/h (1 Bft) O 92 0 min 0,000 mm 0,0 UV-I 0 W/m 5,7 C 7,7 C 6,4 km/h (2 Bft) 100,00 %
31.03.2017 03:00 7,9 C 87 % 1022,2 hPa 0,0 l/m 5,0 km/h (1 Bft) O-NO 63 0 min 0,000 mm 0,0 UV-I 0 W/m 5,9 C 7,9 C 8,0 km/h (2 Bft) 98,00 %
31.03.2017 03:02 8,1 C 87 % 1022,1 hPa 0,0 l/m 4,5 km/h (1 Bft) O-NO 74 0 min 0,000 mm 0,0 UV-I 0 W/m 6,1 C 8,1 C 8,0 km/h (2 Bft) 98,00 %
31.03.2017 03:04 8,2 C 86 % 1022,1 hPa 0,0 l/m 2,6 km/h (1 Bft) O-NO 74 0 min 0,000 mm 0,0 UV-I 0 W/m 6,0 C 8,2 C 4,8 km/h (1 Bft) 97,37 %
31.03.2017 03:06 8,2 C 85 % 1022,1 hPa 0,0 l/m 2,2 km/h (1 Bft) O-NO 74 0 min 0,000 mm 0,0 UV-I 0 W/m 5,8 C 8,2 C 3,2 km/h (1 Bft) 98,00 %
31.03.2017 03:08 8,0 C 86 % 1022,1 hPa 0,0 l/m 2,6 km/h (1 Bft) O-NO 74 0 min 0,000 mm 0,0 UV-I 0 W/m 5,8 C 8,0 C 3,2 km/h (1 Bft) 100,00 %
31.03.2017 03:10 7,9 C 86 % 1022,1 hPa 0,0 l/m 2,3 km/h (1 Bft) O-NO 74 0 min 0,000 mm 0,0 UV-I 0 W/m 5,7 C 7,9 C 4,8 km/h (1 Bft) 97,87 %
31.03.2017 03:12 7,8 C 86 % 1022,1 hPa 0,0 l/m 0,9 km/h (0 Bft) O-NO 74 0 min 0,000 mm 0,0 UV-I 0 W/m 5,6 C 7,8 C 3,2 km/h (1 Bft) 100,00 %
31.03.2017 03:14 7,8 C 86 % 1022,0 hPa 0,0 l/m 2,2 km/h (1 Bft) O-NO 74 0 min 0,000 mm 0,0 UV-I 0 W/m 5,6 C 7,8 C 3,2 km/h (1 Bft) 100,00 %
31.03.2017 03:16 7,8 C 86 % 1022,0 hPa 0,0 l/m 2,9 km/h (1 Bft) O-NO 74 0 min 0,000 mm 0,0 UV-I 0 W/m 5,6 C 7,8 C 3,2 km/h (1 Bft) 97,87 %
31.03.2017 03:18 7,8 C 86 % 1021,9 hPa 0,0 l/m 3,3 km/h (1 Bft) O-NO 74 0 min 0,000 mm 0,0 UV-I 0 W/m 5,6 C 7,8 C 4,8 km/h (1 Bft) 100,00 %
31.03.2017 03:20 7,8 C 87 % 1021,9 hPa 0,0 l/m 3,4 km/h (1 Bft) O-NO 74 0 min 0,000 mm 0,0 UV-I 0 W/m 5,8 C 7,8 C 4,8 km/h (1 Bft) 100,00 %
31.03.2017 03:22 7,8 C 87 % 1021,9 hPa 0,0 l/m 3,0 km/h (1 Bft) O-NO 74 0 min 0,000 mm 0,0 UV-I 0 W/m 5,8 C 7,8 C 4,8 km/h (1 Bft) 95,74 %
31.03.2017 03:24 7,9 C 87 % 1021,9 hPa 0,0 l/m 4,2 km/h (1 Bft) O-NO 74 0 min 0,000 mm 0,0 UV-I 0 W/m 5,9 C 7,9 C 6,4 km/h (2 Bft) 97,87 %
31.03.2017 03:26 7,9 C 87 % 1021,9 hPa 0,0 l/m 3,4 km/h (1 Bft) O-NO 74 0 min 0,000 mm 0,0 UV-I 0 W/m 5,9 C 7,9 C 4,8 km/h (1 Bft) 91,49 %
31.03.2017 03:28 7,9 C 87 % 1021,9 hPa 0,0 l/m 2,9 km/h (1 Bft) O-NO 74 0 min 0,000 mm 0,0 UV-I 0 W/m 5,9 C 7,9 C 4,8 km/h (1 Bft) 95,74 %
31.03.2017 03:30 7,9 C 87 % 1021,9 hPa 0,0 l/m 2,5 km/h (1 Bft) O-NO 74 0 min 0,000 mm 0,0 UV-I 0 W/m 5,9 C 7,9 C 3,2 km/h (1 Bft) 95,74 %
31.03.2017 03:32 7,8 C 87 % 1021,9 hPa 0,0 l/m 4,1 km/h (1 Bft) O-NO 74 0 min 0,000 mm 0,0 UV-I 0 W/m 5,8 C 7,8 C 6,4 km/h (2 Bft) 95,00 %
31.03.2017 03:34 7,8 C 87 % 1021,9 hPa 0,0 l/m 4,6 km/h (1 Bft) O-NO 60 0 min 0,000 mm 0,0 UV-I 0 W/m 5,8 C 7,8 C 6,4 km/h (2 Bft) 93,75 %
31.03.2017 03:36 7,8 C 87 % 1021,9 hPa 0,0 l/m 2,6 km/h (1 Bft) O-NO 60 0 min 0,000 mm 0,0 UV-I 0 W/m 5,8 C 7,8 C 3,2 km/h (1 Bft) 91,49 %
31.03.2017 03:38 7,7 C 87 % 1021,9 hPa 0,0 l/m 2,2 km/h (1 Bft) O-NO 60 0 min 0,000 mm 0,0 UV-I 0 W/m 5,7 C 7,7 C 4,8 km/h (1 Bft) 95,74 %
31.03.2017 03:40 7,6 C 87 % 1021,9 hPa 0,0 l/m 1,2 km/h (1 Bft) O-NO 60 0 min 0,000 mm 0,0 UV-I 0 W/m 5,6 C 7,6 C 3,2 km/h (1 Bft) 95,74 %
31.03.2017 03:42 7,2 C 85 % 1021,9 hPa 0,0 l/m 2,1 km/h (1 Bft) O-NO 60 0 min 0,000 mm 0,0 UV-I 0 W/m 4,9 C 7,2 C 3,2 km/h (1 Bft) 96,00 %
31.03.2017 03:44 6,9 C 86 % 1021,9 hPa 0,0 l/m 0,3 km/h (0 Bft) O-NO 60 0 min 0,000 mm 0,0 UV-I 0 W/m 4,7 C 6,9 C 1,6 km/h (1 Bft) 92,00 %
31.03.2017 03:46 6,7 C 87 % 1021,8 hPa 0,0 l/m 1,1 km/h (1 Bft) O-NO 60 0 min 0,000 mm 0,0 UV-I 0 W/m 4,7 C 6,7 C 1,6 km/h (1 Bft) 95,74 %
31.03.2017 03:48 6,7 C 88 % 1021,8 hPa 0,0 l/m 2,4 km/h (1 Bft) O-NO 60 0 min 0,000 mm 0,0 UV-I 0 W/m 4,9 C 6,7 C 3,2 km/h (1 Bft) 94,74 %
31.03.2017 03:50 6,7 C 88 % 1021,8 hPa 0,0 l/m 2,2 km/h (1 Bft) O-NO 60 0 min 0,000 mm 0,0 UV-I 0 W/m 4,9 C 6,7 C 3,2 km/h (1 Bft) 95,74 %
31.03.2017 03:52 6,5 C 88 % 1021,7 hPa 0,0 l/m 1,9 km/h (1 Bft) O-NO 60 0 min 0,000 mm 0,0 UV-I 0 W/m 4,7 C 6,5 C 3,2 km/h (1 Bft) 96,00 %
31.03.2017 03:54 6,4 C 89 % 1021,8 hPa 0,0 l/m 0,3 km/h (0 Bft) O-NO 60 0 min 0,000 mm 0,0 UV-I 0 W/m 4,7 C 6,4 C 1,6 km/h (1 Bft) 93,62 %
31.03.2017 03:56 6,3 C 90 % 1021,7 hPa 0,0 l/m 0,8 km/h (0 Bft) O-NO 60 0 min 0,000 mm 0,0 UV-I 0 W/m 4,8 C 6,3 C 1,6 km/h (1 Bft) 95,74 %
31.03.2017 03:58 6,4 C 90 % 1021,7 hPa 0,0 l/m 0,6 km/h (0 Bft) O-NO 60 0 min 0,000 mm 0,0 UV-I 0 W/m 4,9 C 6,4 C 3,2 km/h (1 Bft) 95,74 %
31.03.2017 04:00 6,4 C 90 % 1021,8 hPa 0,0 l/m 0,1 km/h (0 Bft) O-NO 60 0 min 0,000 mm 0,0 UV-I 0 W/m 4,9 C 6,4 C 1,6 km/h (1 Bft) 95,74 %
31.03.2017 04:02 6,5 C 90 % 1021,8 hPa 0,0 l/m 0,0 km/h (0 Bft) O-NO 60 0 min 0,000 mm 0,0 UV-I 0 W/m 5,0 C 6,5 C 0,0 km/h (0 Bft) 100,00 %
31.03.2017 04:04 6,4 C 89 % 1021,7 hPa 0,0 l/m 0,0 km/h (0 Bft) O-NO 60 0 min 0,000 mm 0,0 UV-I 0 W/m 4,7 C 6,4 C 0,0 km/h (0 Bft) 97,87 %
31.03.2017 04:06 6,3 C 89 % 1021,7 hPa 0,0 l/m 0,0 km/h (0 Bft) O-NO 60 0 min 0,000 mm 0,0 UV-I 0 W/m 4,6 C 6,3 C 0,0 km/h (0 Bft) 97,87 %
31.03.2017 04:08 6,2 C 89 % 1021,8 hPa 0,0 l/m 0,0 km/h (0 Bft) O-NO 60 0 min 0,000 mm 0,0 UV-I 0 W/m 4,5 C 6,2 C 0,0 km/h (0 Bft) 95,74 %
31.03.2017 04:10 6,0 C 89 % 1021,8 hPa 0,0 l/m 0,0 km/h (0 Bft) O-NO 60 0 min 0,000 mm 0,0 UV-I 0 W/m 4,3 C 6,0 C 1,6 km/h (1 Bft) 97,87 %
31.03.2017 04:12 6,0 C 90 % 1021,7 hPa 0,0 l/m 0,1 km/h (0 Bft) O-NO 60 0 min 0,000 mm 0,0 UV-I 0 W/m 4,5 C 6,0 C 1,6 km/h (1 Bft) 95,83 %
31.03.2017 04:14 6,1 C 90 % 1021,7 hPa 0,0 l/m 0,0 km/h (0 Bft) O-NO 60 0 min 0,000 mm 0,0 UV-I 0 W/m 4,6 C 6,1 C 0,0 km/h (0 Bft) 97,14 %
31.03.2017 04:16 6,1 C 91 % 1021,8 hPa 0,0 l/m 0,0 km/h (0 Bft) O-NO 60 0 min 0,000 mm 0,0 UV-I 0 W/m 4,7 C 6,1 C 0,0 km/h (0 Bft) 96,77 %
31.03.2017 04:18 6,2 C 91 % 1021,7 hPa 0,0 l/m 0,0 km/h (0 Bft) O-NO 60 0 min 0,000 mm 0,0 UV-I 0 W/m 4,8 C 6,2 C 0,0 km/h (0 Bft) 97,87 %
31.03.2017 04:20 6,2 C 91 % 1021,7 hPa 0,0 l/m 0,0 km/h (0 Bft) O-NO 60 0 min 0,000 mm 0,0 UV-I 0 W/m 4,8 C 6,2 C 0,0 km/h (0 Bft) 94,74 %
31.03.2017 04:22 6,2 C 91 % 1021,6 hPa 0,0 l/m 0,0 km/h (0 Bft) O-NO 60 0 min 0,000 mm 0,0 UV-I 0 W/m 4,8 C 6,2 C 0,0 km/h (0 Bft) 93,62 %
31.03.2017 04:24 6,1 C 90 % 1021,6 hPa 0,0 l/m 0,0 km/h (0 Bft) O-NO 60 0 min 0,000 mm 0,0 UV-I 0 W/m 4,6 C 6,1 C 0,0 km/h (0 Bft) 100,00 %
31.03.2017 04:26 6,1 C 91 % 1021,6 hPa 0,0 l/m 0,0 km/h (0 Bft) O-NO 60 0 min 0,000 mm 0,0 UV-I 0 W/m 4,7 C 6,1 C 0,0 km/h (0 Bft) 97,87 %
31.03.2017 04:28 6,1 C 92 % 1021,6 hPa 0,0 l/m 0,0 km/h (0 Bft) O-NO 60 0 min 0,000 mm 0,0 UV-I 0 W/m 4,9 C 6,1 C 0,0 km/h (0 Bft) 100,00 %
31.03.2017 04:30 6,1 C 91 % 1021,5 hPa 0,0 l/m 0,0 km/h (0 Bft) O-NO 60 0 min 0,000 mm 0,0 UV-I 0 W/m 4,7 C 6,1 C 0,0 km/h (0 Bft) 100,00 %
31.03.2017 04:32 6,1 C 92 % 1021,5 hPa 0,0 l/m 0,0 km/h (0 Bft) O-NO 60 0 min 0,000 mm 0,0 UV-I 0 W/m 4,9 C 6,1 C 1,6 km/h (1 Bft) 100,00 %
31.03.2017 04:34 6,2 C 92 % 1021,5 hPa 0,0 l/m 1,8 km/h (1 Bft) O-NO 60 0 min 0,000 mm 0,0 UV-I 0 W/m 5,0 C 6,2 C 3,2 km/h (1 Bft) 98,00 %
31.03.2017 04:36 6,3 C 92 % 1021,5 hPa 0,0 l/m 2,5 km/h (1 Bft) O-NO 60 0 min 0,000 mm 0,0 UV-I 0 W/m 5,1 C 6,3 C 3,2 km/h (1 Bft) 100,00 %
31.03.2017 04:38 6,3 C 92 % 1021,5 hPa 0,0 l/m 2,0 km/h (1 Bft) O-NO 60 0 min 0,000 mm 0,0 UV-I 0 W/m 5,1 C 6,3 C 3,2 km/h (1 Bft) 97,87 %
31.03.2017 04:40 6,4 C 92 % 1021,4 hPa 0,0 l/m 1,8 km/h (1 Bft) O-NO 60 0 min 0,000 mm 0,0 UV-I 0 W/m 5,2 C 6,4 C 3,2 km/h (1 Bft) 95,74 %
31.03.2017 04:42 6,5 C 92 % 1021,4 hPa 0,0 l/m 1,5 km/h (1 Bft) O-NO 60 0 min 0,000 mm 0,0 UV-I 0 W/m 5,3 C 6,5 C 3,2 km/h (1 Bft) 97,87 %
31.03.2017 04:44 6,6 C 92 % 1021,4 hPa 0,0 l/m 1,2 km/h (1 Bft) O-NO 60 0 min 0,000 mm 0,0 UV-I 0 W/m 5,4 C 6,6 C 1,6 km/h (1 Bft) 100,00 %
31.03.2017 04:46 6,6 C 91 % 1021,4 hPa 0,0 l/m 1,1 km/h (1 Bft) O-NO 60 0 min 0,000 mm 0,0 UV-I 0 W/m 5,2 C 6,6 C 1,6 km/h (1 Bft) 93,62 %
31.03.2017 04:48 6,6 C 91 % 1021,4 hPa 0,0 l/m 0,3 km/h (0 Bft) O-NO 60 0 min 0,000 mm 0,0 UV-I 0 W/m 5,2 C 6,6 C 1,6 km/h (1 Bft) 97,87 %
31.03.2017 04:50 6,4 C 90 % 1021,4 hPa 0,0 l/m 0,0 km/h (0 Bft) O-NO 60 0 min 0,000 mm 0,0 UV-I 0 W/m 4,9 C 6,4 C 1,6 km/h (1 Bft) 100,00 %
31.03.2017 04:52 6,2 C 91 % 1021,4 hPa 0,0 l/m 0,2 km/h (0 Bft) O-NO 60 0 min 0,000 mm 0,0 UV-I 0 W/m 4,8 C 6,2 C 1,6 km/h (1 Bft) 97,87 %
31.03.2017 04:54 6,2 C 91 % 1021,4 hPa 0,0 l/m 1,2 km/h (1 Bft) O-NO 60 0 min 0,000 mm 0,0 UV-I 0 W/m 4,8 C 6,2 C 1,6 km/h (1 Bft) 100,00 %
31.03.2017 04:56 6,2 C 91 % 1021,4 hPa 0,0 l/m 1,1 km/h (1 Bft) O-NO 60 0 min 0,000 mm 0,0 UV-I 0 W/m 4,8 C 6,2 C 1,6 km/h (1 Bft) 98,11 %
31.03.2017 04:58 6,3 C 91 % 1021,3 hPa 0,0 l/m 0,4 km/h (0 Bft) O-NO 60 0 min 0,000 mm 0,0 UV-I 0 W/m 4,9 C 6,3 C 1,6 km/h (1 Bft) 100,00 %
31.03.2017 05:00 6,4 C 91 % 1021,4 hPa 0,0 l/m 0,0 km/h (0 Bft) O-NO 60 0 min 0,000 mm 0,0 UV-I 0 W/m 5,0 C 6,4 C 0,0 km/h (0 Bft) 100,00 %
31.03.2017 05:02 6,3 C 91 % 1021,4 hPa 0,0 l/m 0,0 km/h (0 Bft) O-NO 60 0 min 0,000 mm 0,0 UV-I 0 W/m 4,9 C 6,3 C 0,0 km/h (0 Bft) 100,00 %
31.03.2017 05:04 6,2 C 90 % 1021,4 hPa 0,0 l/m 0,0 km/h (0 Bft) O-NO 60 0 min 0,000 mm 0,0 UV-I 0 W/m 4,7 C 6,2 C 0,0 km/h (0 Bft) 97,87 %
31.03.2017 05:06 5,8 C 89 % 1021,3 hPa 0,0 l/m 0,2 km/h (0 Bft) O-NO 60 0 min 0,000 mm 0,0 UV-I 0 W/m 4,1 C 5,8 C 1,6 km/h (1 Bft) 97,87 %
31.03.2017 05:08 5,5 C 89 % 1021,3 hPa 0,0 l/m 0,5 km/h (0 Bft) O-NO 60 0 min 0,000 mm 0,0 UV-I 0 W/m 3,8 C 5,5 C 1,6 km/h (1 Bft) 100,00 %
31.03.2017 05:10 5,3 C 90 % 1021,3 hPa 0,0 l/m 0,5 km/h (0 Bft) O-NO 60 0 min 0,000 mm 0,0 UV-I 0 W/m 3,8 C 5,3 C 1,6 km/h (1 Bft) 100,00 %
31.03.2017 05:12 5,3 C 91 % 1021,3 hPa 0,0 l/m 0,5 km/h (0 Bft) O-NO 60 0 min 0,000 mm 0,0 UV-I 0 W/m 4,0 C 5,3 C 1,6 km/h (1 Bft) 100,00 %
31.03.2017 05:14 5,2 C 91 % 1021,3 hPa 0,0 l/m 1,3 km/h (1 Bft) O-NO 60 0 min 0,000 mm 0,0 UV-I 0 W/m 3,9 C 5,2 C 3,2 km/h (1 Bft) 97,87 %
31.03.2017 05:16 5,2 C 92 % 1021,3 hPa 0,0 l/m 0,6 km/h (0 Bft) O-NO 60 0 min 0,000 mm 0,0 UV-I 0 W/m 4,0 C 5,2 C 1,6 km/h (1 Bft) 100,00 %
31.03.2017 05:18 5,2 C 92 % 1021,2 hPa 0,0 l/m 0,3 km/h (0 Bft) O-NO 60 0 min 0,000 mm 0,0 UV-I 0 W/m 4,0 C 5,2 C 1,6 km/h (1 Bft) 95,74 %
31.03.2017 05:20 5,2 C 92 % 1021,3 hPa 0,0 l/m 0,0 km/h (0 Bft) O-NO 60 0 min 0,000 mm 0,0 UV-I 0 W/m 4,0 C 5,2 C 1,6 km/h (1 Bft) 100,00 %
31.03.2017 05:22 5,1 C 92 % 1021,2 hPa 0,0 l/m 0,0 km/h (0 Bft) O-NO 60 0 min 0,000 mm 0,0 UV-I 0 W/m 3,9 C 5,1 C 0,0 km/h (0 Bft) 100,00 %
31.03.2017 05:24 5,1 C 92 % 1021,2 hPa 0,0 l/m 0,1 km/h (0 Bft) O-NO 60 0 min 0,000 mm 0,0 UV-I 0 W/m 3,9 C 5,1 C 1,6 km/h (1 Bft) 100,00 %
31.03.2017 05:26 5,1 C 92 % 1021,2 hPa 0,0 l/m 0,1 km/h (0 Bft) O-NO 60 0 min 0,000 mm 0,0 UV-I 0 W/m 3,9 C 5,1 C 1,6 km/h (1 Bft) 100,00 %
31.03.2017 05:28 5,1 C 93 % 1021,2 hPa 0,0 l/m 0,1 km/h (0 Bft) O-NO 60 0 min 0,000 mm 0,0 UV-I 0 W/m 4,1 C 5,1 C 1,6 km/h (1 Bft) 97,87 %
31.03.2017 05:30 5,2 C 93 % 1021,2 hPa 0,0 l/m 0,0 km/h (0 Bft) O-NO 60 0 min 0,000 mm 0,0 UV-I 0 W/m 4,2 C 5,2 C 0,0 km/h (0 Bft) 100,00 %
31.03.2017 05:32 5,2 C 93 % 1021,2 hPa 0,0 l/m 0,1 km/h (0 Bft) O-NO 60 0 min 0,000 mm 0,0 UV-I 0 W/m 4,2 C 5,2 C 1,6 km/h (1 Bft) 100,00 %
31.03.2017 05:34 5,3 C 93 % 1021,2 hPa 0,0 l/m 0,9 km/h (0 Bft) O-NO 60 0 min 0,000 mm 0,0 UV-I 0 W/m 4,3 C 5,3 C 1,6 km/h (1 Bft) 100,00 %
31.03.2017 05:36 5,2 C 93 % 1021,2 hPa 0,0 l/m 1,4 km/h (1 Bft) O-NO 60 0 min 0,000 mm 0,0 UV-I 0 W/m 4,2 C 5,2 C 3,2 km/h (1 Bft) 95,74 %
31.03.2017 05:38 5,1 C 92 % 1021,2 hPa 0,0 l/m 1,5 km/h (1 Bft) O-NO 60 0 min 0,000 mm 0,0 UV-I 0 W/m 3,9 C 5,1 C 3,2 km/h (1 Bft) 95,74 %
31.03.2017 05:40 5,1 C 93 % 1021,2 hPa 0,0 l/m 1,7 km/h (1 Bft) O-NO 60 0 min 0,000 mm 0,0 UV-I 0 W/m 4,1 C 5,1 C 3,2 km/h (1 Bft) 93,62 %
31.03.2017 05:42 5,2 C 93 % 1021,2 hPa 0,0 l/m 1,6 km/h (1 Bft) O-NO 60 0 min 0,000 mm 0,0 UV-I 0 W/m 4,2 C 5,2 C 3,2 km/h (1 Bft) 95,74 %
31.03.2017 05:44 5,3 C 93 % 1021,2 hPa 0,0 l/m 2,5 km/h (1 Bft) O-NO 60 0 min 0,000 mm 0,0 UV-I 0 W/m 4,3 C 5,3 C 3,2 km/h (1 Bft) 95,74 %
31.03.2017 05:46 5,3 C 93 % 1021,2 hPa 0,0 l/m 2,2 km/h (1 Bft) O-NO 60 0 min 0,000 mm 0,0 UV-I 0 W/m 4,3 C 5,3 C 3,2 km/h (1 Bft) 95,74 %
31.03.2017 05:48 5,2 C 93 % 1021,2 hPa 0,0 l/m 1,4 km/h (1 Bft) O-NO 60 0 min 0,000 mm 0,0 UV-I 0 W/m 4,2 C 5,2 C 1,6 km/h (1 Bft) 98,00 %
31.03.2017 05:50 5,2 C 93 % 1021,1 hPa 0,0 l/m 0,1 km/h (0 Bft) O-NO 60 0 min 0,000 mm 0,0 UV-I 0 W/m 4,2 C 5,2 C 1,6 km/h (1 Bft) 94,34 %
31.03.2017 05:52 5,3 C 93 % 1021,1 hPa 0,0 l/m 0,0 km/h (0 Bft) O-NO 60 0 min 0,000 mm 0,0 UV-I 0 W/m 4,3 C 5,3 C 0,0 km/h (0 Bft) 91,49 %
31.03.2017 05:54 5,3 C 93 % 1021,1 hPa 0,0 l/m 0,0 km/h (0 Bft) O-NO 60 0 min 0,000 mm 0,0 UV-I 0 W/m 4,3 C 5,3 C 0,0 km/h (0 Bft) 95,74 %
31.03.2017 05:56 5,4 C 94 % 1021,0 hPa 0,0 l/m 0,4 km/h (0 Bft) O-NO 60 0 min 0,000 mm 0,0 UV-I 0 W/m 4,5 C 5,4 C 1,6 km/h (1 Bft) 88,57 %
31.03.2017 05:58 5,6 C 94 % 1021,0 hPa 0,0 l/m 2,4 km/h (1 Bft) O-NO 60 0 min 0,000 mm 0,0 UV-I 0 W/m 4,7 C 5,6 C 3,2 km/h (1 Bft) 91,49 %
31.03.2017 06:00 5,8 C 94 % 1021,0 hPa 0,0 l/m 3,3 km/h (1 Bft) O-NO 60 0 min 0,000 mm 0,0 UV-I 0 W/m 4,9 C 5,8 C 4,8 km/h (1 Bft) 96,00 %
31.03.2017 06:02 5,9 C 94 % 1020,9 hPa 0,0 l/m 3,1 km/h (1 Bft) O-NO 60 0 min 0,000 mm 0,0 UV-I 0 W/m 5,0 C 5,9 C 4,8 km/h (1 Bft) 95,74 %
31.03.2017 06:04 6,1 C 94 % 1020,9 hPa 0,0 l/m 3,0 km/h (1 Bft) O-NO 60 0 min 0,000 mm 0,0 UV-I 0 W/m 5,2 C 6,1 C 4,8 km/h (1 Bft) 93,62 %
31.03.2017 06:06 6,3 C 94 % 1020,9 hPa 0,0 l/m 2,5 km/h (1 Bft) O-NO 60 0 min 0,000 mm 0,0 UV-I 0 W/m 5,4 C 6,3 C 4,8 km/h (1 Bft) 95,74 %
31.03.2017 06:08 6,2 C 92 % 1020,9 hPa 0,0 l/m 1,9 km/h (1 Bft) O-NO 60 0 min 0,000 mm 0,0 UV-I 0 W/m 5,0 C 6,2 C 3,2 km/h (1 Bft) 93,62 %
31.03.2017 06:10 5,8 C 91 % 1020,9 hPa 0,0 l/m 0,0 km/h (0 Bft) O-NO 60 0 min 0,000 mm 0,0 UV-I 0 W/m 4,4 C 5,8 C 0,0 km/h (0 Bft) 95,83 %
31.03.2017 06:12 5,4 C 90 % 1020,9 hPa 0,0 l/m 1,2 km/h (1 Bft) O-NO 60 0 min 0,000 mm 0,0 UV-I 0 W/m 3,9 C 5,4 C 3,2 km/h (1 Bft) 91,49 %
31.03.2017 06:14 5,2 C 92 % 1021,0 hPa 0,0 l/m 2,5 km/h (1 Bft) O-NO 60 0 min 0,000 mm 0,0 UV-I 0 W/m 4,0 C 5,2 C 3,2 km/h (1 Bft) 92,00 %
31.03.2017 06:16 5,1 C 92 % 1021,0 hPa 0,0 l/m 3,2 km/h (1 Bft) O-NO 60 0 min 0,000 mm 0,0 UV-I 0 W/m 3,9 C 5,1 C 4,8 km/h (1 Bft) 95,74 %
31.03.2017 06:18 4,8 C 92 % 1021,0 hPa 0,0 l/m 3,7 km/h (1 Bft) O-NO 60 0 min 0,000 mm 0,0 UV-I 0 W/m 3,6 C 4,8 C 4,8 km/h (1 Bft) 95,74 %
31.03.2017 06:20 4,7 C 92 % 1021,0 hPa 0,0 l/m 2,5 km/h (1 Bft) O-NO 60 0 min 0,000 mm 0,0 UV-I 0 W/m 3,5 C 4,7 C 3,2 km/h (1 Bft) 93,62 %
31.03.2017 06:22 4,7 C 93 % 1021,0 hPa 0,0 l/m 3,3 km/h (1 Bft) O-NO 60 0 min 0,000 mm 0,0 UV-I 0 W/m 3,7 C 4,7 C 4,8 km/h (1 Bft) 93,62 %
31.03.2017 06:24 4,7 C 93 % 1020,9 hPa 0,0 l/m 1,6 km/h (1 Bft) O-NO 60 0 min 0,000 mm 0,0 UV-I 0 W/m 3,7 C 4,7 C 3,2 km/h (1 Bft) 95,74 %
31.03.2017 06:26 4,6 C 93 % 1020,9 hPa 0,0 l/m 0,0 km/h (0 Bft) O-NO 60 0 min 0,000 mm 0,0 UV-I 0 W/m 3,6 C 4,6 C 0,0 km/h (0 Bft) 97,37 %
31.03.2017 06:28 4,4 C 93 % 1020,9 hPa 0,0 l/m 0,0 km/h (0 Bft) O-NO 60 0 min 0,000 mm 0,0 UV-I 0 W/m 3,4 C 4,4 C 0,0 km/h (0 Bft) 97,87 %
31.03.2017 06:30 4,4 C 93 % 1020,9 hPa 0,0 l/m 0,0 km/h (0 Bft) O-NO 60 0 min 0,000 mm 0,0 UV-I 0 W/m 3,4 C 4,4 C 0,0 km/h (0 Bft) 97,87 %
31.03.2017 06:32 4,5 C 93 % 1020,9 hPa 0,0 l/m 0,0 km/h (0 Bft) O-NO 60 0 min 0,000 mm 0,0 UV-I 2 W/m 3,5 C 4,5 C 0,0 km/h (0 Bft) 97,87 %
31.03.2017 06:34 4,6 C 94 % 1020,9 hPa 0,0 l/m 0,0 km/h (0 Bft) O-NO 60 0 min 0,000 mm 0,0 UV-I 5 W/m 3,7 C 4,6 C 0,0 km/h (0 Bft) 94,00 %
31.03.2017 06:36 4,7 C 94 % 1020,9 hPa 0,0 l/m 0,0 km/h (0 Bft) O-NO 60 0 min 0,000 mm 0,0 UV-I 5 W/m 3,8 C 4,7 C 0,0 km/h (0 Bft) 97,87 %
31.03.2017 06:38 4,8 C 94 % 1020,9 hPa 0,0 l/m 0,0 km/h (0 Bft) O-NO 60 0 min 0,000 mm 0,0 UV-I 5 W/m 3,9 C 4,8 C 0,0 km/h (0 Bft) 95,74 %
31.03.2017 06:40 5,1 C 95 % 1020,9 hPa 0,0 l/m 0,4 km/h (0 Bft) O-NO 60 0 min 0,000 mm 0,0 UV-I 5 W/m 4,4 C 5,1 C 3,2 km/h (1 Bft) 97,87 %
31.03.2017 06:42 5,4 C 95 % 1020,9 hPa 0,0 l/m 2,5 km/h (1 Bft) O-NO 60 0 min 0,000 mm 0,0 UV-I 5 W/m 4,7 C 5,4 C 3,2 km/h (1 Bft) 87,23 %
31.03.2017 06:44 5,7 C 95 % 1020,8 hPa 0,0 l/m 3,9 km/h (1 Bft) O-NO 60 0 min 0,000 mm 0,0 UV-I 7 W/m 5,0 C 5,7 C 4,8 km/h (1 Bft) 91,49 %
31.03.2017 06:46 5,8 C 95 % 1020,8 hPa 0,0 l/m 3,9 km/h (1 Bft) O-NO 60 0 min 0,000 mm 0,0 UV-I 7 W/m 5,1 C 5,8 C 4,8 km/h (1 Bft) 100,00 %
31.03.2017 06:48 5,9 C 95 % 1020,8 hPa 0,0 l/m 2,8 km/h (1 Bft) O-NO 60 0 min 0,000 mm 0,0 UV-I 9 W/m 5,2 C 5,9 C 4,8 km/h (1 Bft) 100,00 %
31.03.2017 06:50 5,8 C 93 % 1020,8 hPa 0,0 l/m 2,7 km/h (1 Bft) O-NO 60 0 min 0,000 mm 0,0 UV-I 11 W/m 4,8 C 5,8 C 4,8 km/h (1 Bft) 100,00 %
31.03.2017 06:52 5,6 C 93 % 1020,8 hPa 0,0 l/m 1,7 km/h (1 Bft) O-NO 60 0 min 0,000 mm 0,0 UV-I 13 W/m 4,6 C 5,6 C 3,2 km/h (1 Bft) 100,00 %
31.03.2017 06:54 5,6 C 93 % 1020,8 hPa 0,0 l/m 0,2 km/h (0 Bft) O-NO 60 2 min 0,000 mm 0,0 UV-I 16 W/m 4,6 C 5,6 C 1,6 km/h (1 Bft) 100,00 %
31.03.2017 06:56 5,3 C 92 % 1020,8 hPa 0,0 l/m 0,0 km/h (0 Bft) O-NO 60 2 min 0,000 mm 0,0 UV-I 16 W/m 4,1 C 5,3 C 0,0 km/h (0 Bft) 97,87 %
31.03.2017 06:58 5,1 C 92 % 1020,9 hPa 0,0 l/m 0,0 km/h (0 Bft) O-NO 60 2 min 0,000 mm 0,0 UV-I 18 W/m 3,9 C 5,1 C 0,0 km/h (0 Bft) 93,75 %
31.03.2017 07:00 4,8 C 92 % 1020,9 hPa 0,0 l/m 0,0 km/h (0 Bft) O-NO 60 2 min 0,000 mm 0,0 UV-I 21 W/m 3,6 C 4,8 C 1,6 km/h (1 Bft) 95,74 %
31.03.2017 07:02 4,7 C 92 % 1020,9 hPa 0,0 l/m 2,8 km/h (1 Bft) O-NO 60 2 min 0,000 mm 0,0 UV-I 24 W/m 3,5 C 4,7 C 4,8 km/h (1 Bft) 96,00 %
31.03.2017 07:04 4,7 C 93 % 1020,9 hPa 0,0 l/m 2,2 km/h (1 Bft) O-NO 60 2 min 0,000 mm 0,0 UV-I 27 W/m 3,7 C 4,7 C 4,8 km/h (1 Bft) 89,47 %
31.03.2017 07:06 4,7 C 93 % 1020,8 hPa 0,0 l/m 1,9 km/h (1 Bft) O-NO 60 2 min 0,000 mm 0,0 UV-I 30 W/m 3,7 C 4,7 C 3,2 km/h (1 Bft) 100,00 %
31.03.2017 07:08 4,7 C 94 % 1020,9 hPa 0,0 l/m 0,5 km/h (0 Bft) O-NO 60 2 min 0,000 mm 0,0 UV-I 35 W/m 3,8 C 4,7 C 1,6 km/h (1 Bft) 95,74 %
31.03.2017 07:10 4,7 C 93 % 1020,9 hPa 0,0 l/m 0,0 km/h (0 Bft) O-NO 60 2 min 0,000 mm 0,0 UV-I 40 W/m 3,7 C 4,7 C 0,0 km/h (0 Bft) 100,00 %
31.03.2017 07:12 4,7 C 93 % 1020,9 hPa 0,0 l/m 0,0 km/h (0 Bft) O-NO 60 2 min 0,000 mm 0,0 UV-I 46 W/m 3,7 C 4,7 C 1,6 km/h (1 Bft) 100,00 %
31.03.2017 07:14 4,7 C 93 % 1020,9 hPa 0,0 l/m 1,9 km/h (1 Bft) O-NO 60 2 min 0,000 mm 0,0 UV-I 50 W/m 3,7 C 4,7 C 3,2 km/h (1 Bft) 98,00 %
31.03.2017 07:16 4,6 C 94 % 1020,9 hPa 0,0 l/m 1,4 km/h (1 Bft) O-NO 60 2 min 0,000 mm 0,0 UV-I 55 W/m 3,7 C 4,6 C 3,2 km/h (1 Bft) 100,00 %
31.03.2017 07:18 4,6 C 94 % 1020,9 hPa 0,0 l/m 1,7 km/h (1 Bft) O-NO 60 2 min 0,000 mm 0,0 UV-I 57 W/m 3,7 C 4,6 C 3,2 km/h (1 Bft) 95,74 %
31.03.2017 07:20 4,7 C 94 % 1020,9 hPa 0,0 l/m 2,3 km/h (1 Bft) O-NO 60 2 min 0,000 mm 0,0 UV-I 60 W/m 3,8 C 4,7 C 3,2 km/h (1 Bft) 97,37 %
31.03.2017 07:22 4,7 C 94 % 1020,9 hPa 0,0 l/m 2,5 km/h (1 Bft) O-NO 60 2 min 0,000 mm 0,0 UV-I 69 W/m 3,8 C 4,7 C 4,8 km/h (1 Bft) 96,00 %
31.03.2017 07:24 4,8 C 94 % 1020,9 hPa 0,0 l/m 0,4 km/h (0 Bft) O-NO 60 2 min 0,000 mm 0,0 UV-I 70 W/m 3,9 C 4,8 C 3,2 km/h (1 Bft) 89,36 %
31.03.2017 07:26 4,7 C 94 % 1020,9 hPa 0,0 l/m 0,4 km/h (0 Bft) O-NO 60 2 min 0,000 mm 0,0 UV-I 70 W/m 3,8 C 4,7 C 3,2 km/h (1 Bft) 96,00 %
31.03.2017 07:28 4,8 C 94 % 1020,9 hPa 0,0 l/m 0,0 km/h (0 Bft) O-NO 60 2 min 0,000 mm 0,0 UV-I 75 W/m 3,9 C 4,8 C 1,6 km/h (1 Bft) 93,62 %
31.03.2017 07:30 4,9 C 94 % 1021,0 hPa 0,0 l/m 0,0 km/h (0 Bft) O-NO 60 2 min 0,000 mm 0,0 UV-I 82 W/m 4,0 C 4,9 C 1,6 km/h (1 Bft) 95,74 %
31.03.2017 07:32 5,0 C 94 % 1021,0 hPa 0,0 l/m 0,0 km/h (0 Bft) O-NO 60 2 min 0,000 mm 0,0 UV-I 85 W/m 4,1 C 5,0 C 0,0 km/h (0 Bft) 97,92 %
31.03.2017 07:34 5,1 C 94 % 1021,0 hPa 0,0 l/m 0,0 km/h (0 Bft) O-NO 60 2 min 0,000 mm 0,0 UV-I 96 W/m 4,2 C 5,1 C 0,0 km/h (0 Bft) 95,74 %
31.03.2017 07:36 5,2 C 94 % 1021,0 hPa 0,0 l/m 0,0 km/h (0 Bft) O-NO 60 2 min 0,000 mm 0,0 UV-I 99 W/m 4,3 C 5,2 C 0,0 km/h (0 Bft) 95,83 %
31.03.2017 07:38 5,3 C 94 % 1020,9 hPa 0,0 l/m 0,0 km/h (0 Bft) O-NO 60 2 min 0,000 mm 0,0 UV-I 109 W/m 4,4 C 5,3 C 0,0 km/h (0 Bft) 89,36 %
31.03.2017 07:40 5,5 C 95 % 1021,0 hPa 0,0 l/m 0,0 km/h (0 Bft) O-NO 60 2 min 0,000 mm 0,0 UV-I 117 W/m 4,8 C 5,5 C 0,0 km/h (0 Bft) 97,37 %
31.03.2017 07:42 5,6 C 94 % 1020,9 hPa 0,0 l/m 0,0 km/h (0 Bft) O-NO 60 2 min 0,000 mm 0,0 UV-I 123 W/m 4,7 C 5,6 C 0,0 km/h (0 Bft) 91,49 %
31.03.2017 07:44 5,7 C 94 % 1020,9 hPa 0,0 l/m 0,0 km/h (0 Bft) O-NO 60 2 min 0,000 mm 0,0 UV-I 131 W/m 4,8 C 5,7 C 0,0 km/h (0 Bft) 95,74 %
31.03.2017 07:46 5,7 C 94 % 1020,9 hPa 0,0 l/m 0,0 km/h (0 Bft) O-NO 60 2 min 0,000 mm 0,0 UV-I 130 W/m 4,8 C 5,7 C 0,0 km/h (0 Bft) 96,08 %
31.03.2017 07:48 5,7 C 94 % 1020,9 hPa 0,0 l/m 0,0 km/h (0 Bft) O-NO 60 2 min 0,000 mm 0,0 UV-I 135 W/m 4,8 C 5,7 C 0,0 km/h (0 Bft) 97,96 %
31.03.2017 07:50 5,8 C 94 % 1020,8 hPa 0,0 l/m 0,8 km/h (0 Bft) O-NO 60 2 min 0,000 mm 0,0 UV-I 147 W/m 4,9 C 5,8 C 3,2 km/h (1 Bft) 93,62 %
31.03.2017 07:52 5,9 C 94 % 1020,9 hPa 0,0 l/m 3,1 km/h (1 Bft) O-NO 60 2 min 0,000 mm 0,0 UV-I 153 W/m 5,0 C 5,9 C 4,8 km/h (1 Bft) 94,74 %
31.03.2017 07:54 6,2 C 94 % 1020,8 hPa 0,0 l/m 1,6 km/h (1 Bft) O-NO 60 2 min 0,000 mm 0,0 UV-I 146 W/m 5,3 C 6,2 C 4,8 km/h (1 Bft) 93,62 %
31.03.2017 07:56 6,4 C 94 % 1020,8 hPa 0,0 l/m 1,8 km/h (1 Bft) O-NO 60 2 min 0,000 mm 0,0 UV-I 140 W/m 5,5 C 6,4 C 4,8 km/h (1 Bft) 96,08 %
31.03.2017 07:58 6,5 C 93 % 1020,8 hPa 0,0 l/m 1,7 km/h (1 Bft) O-NO 60 2 min 0,000 mm 0,0 UV-I 136 W/m 5,5 C 6,5 C 4,8 km/h (1 Bft) 94,00 %
31.03.2017 08:00 6,7 C 93 % 1020,8 hPa 0,0 l/m 2,3 km/h (1 Bft) O-NO 60 2 min 0,026 mm 0,0 UV-I 137 W/m 5,6 C 6,7 C 3,2 km/h (1 Bft) 91,49 %
31.03.2017 08:02 6,9 C 93 % 1020,8 hPa 0,0 l/m 2,9 km/h (1 Bft) O-NO 60 2 min 0,000 mm 0,0 UV-I 157 W/m 5,8 C 6,9 C 4,8 km/h (1 Bft) 95,74 %
31.03.2017 08:04 7,2 C 92 % 1020,8 hPa 0,0 l/m 1,9 km/h (1 Bft) O-NO 60 2 min 0,000 mm 0,0 UV-I 173 W/m 6,0 C 7,2 C 6,4 km/h (2 Bft) 95,74 %
31.03.2017 08:06 7,3 C 91 % 1020,8 hPa 0,0 l/m 4,5 km/h (1 Bft) O-NO 65 2 min 0,000 mm 0,0 UV-I 176 W/m 5,9 C 7,3 C 6,4 km/h (2 Bft) 97,44 %
31.03.2017 08:08 7,3 C 90 % 1020,8 hPa 0,0 l/m 2,2 km/h (1 Bft) O-NO 67 2 min 0,000 mm 0,0 UV-I 177 W/m 5,8 C 7,3 C 4,8 km/h (1 Bft) 91,49 %
31.03.2017 08:10 7,4 C 90 % 1020,8 hPa 0,0 l/m 1,8 km/h (1 Bft) O-NO 67 2 min 0,000 mm 0,0 UV-I 189 W/m 5,9 C 7,4 C 4,8 km/h (1 Bft) 96,00 %
31.03.2017 08:12 7,3 C 90 % 1020,9 hPa 0,0 l/m 0,0 km/h (0 Bft) O-NO 67 2 min 0,000 mm 0,0 UV-I 202 W/m 5,8 C 7,3 C 1,6 km/h (1 Bft) 95,74 %
31.03.2017 08:14 7,4 C 90 % 1020,9 hPa 0,0 l/m 0,0 km/h (0 Bft) O-NO 67 2 min 0,000 mm 0,0 UV-I 210 W/m 5,9 C 7,4 C 0,0 km/h (0 Bft) 90,00 %
31.03.2017 08:16 7,4 C 90 % 1020,8 hPa 0,0 l/m 0,0 km/h (0 Bft) O-NO 67 2 min 0,000 mm 0,0 UV-I 215 W/m 5,9 C 7,4 C 0,0 km/h (0 Bft) 91,49 %
31.03.2017 08:18 7,5 C 90 % 1020,8 hPa 0,0 l/m 0,0 km/h (0 Bft) O-NO 67 2 min 0,000 mm 0,0 UV-I 212 W/m 6,0 C 7,5 C 0,0 km/h (0 Bft) 93,62 %
31.03.2017 08:20 7,7 C 90 % 1020,8 hPa 0,0 l/m 0,6 km/h (0 Bft) O-NO 67 2 min 0,000 mm 0,0 UV-I 211 W/m 6,2 C 7,7 C 3,2 km/h (1 Bft) 91,49 %
31.03.2017 08:22 7,8 C 90 % 1020,9 hPa 0,0 l/m 0,0 km/h (0 Bft) O-NO 67 2 min 0,000 mm 0,0 UV-I 215 W/m 6,3 C 7,8 C 0,0 km/h (0 Bft) 93,62 %
31.03.2017 08:24 8,0 C 89 % 1020,8 hPa 0,0 l/m 0,0 km/h (0 Bft) O-NO 67 2 min 0,000 mm 0,0 UV-I 225 W/m 6,3 C 8,0 C 0,0 km/h (0 Bft) 91,49 %
31.03.2017 08:26 8,2 C 89 % 1020,9 hPa 0,0 l/m 1,2 km/h (1 Bft) O-NO 67 2 min 0,000 mm 0,0 UV-I 239 W/m 6,5 C 8,2 C 3,2 km/h (1 Bft) 89,36 %
31.03.2017 08:28 8,2 C 89 % 1020,8 hPa 0,0 l/m 2,3 km/h (1 Bft) O-NO 67 2 min 0,000 mm 0,0 UV-I 244 W/m 6,5 C 8,2 C 3,2 km/h (1 Bft) 90,00 %
31.03.2017 08:30 8,3 C 88 % 1020,7 hPa 0,0 l/m 3,6 km/h (1 Bft) O-NO 67 2 min 0,000 mm 0,0 UV-I 239 W/m 6,4 C 8,3 C 4,8 km/h (1 Bft) 97,14 %
31.03.2017 08:32 8,4 C 88 % 1020,7 hPa 0,0 l/m 3,0 km/h (1 Bft) O-NO 67 2 min 0,000 mm 0,0 UV-I 243 W/m 6,5 C 8,4 C 4,8 km/h (1 Bft) 95,74 %
31.03.2017 08:34 8,3 C 87 % 1020,7 hPa 0,0 l/m 3,0 km/h (1 Bft) O-NO 67 2 min 0,000 mm 0,0 UV-I 240 W/m 6,3 C 8,3 C 4,8 km/h (1 Bft) 94,00 %
31.03.2017 08:36 8,3 C 87 % 1020,7 hPa 0,0 l/m 3,6 km/h (1 Bft) O-NO 67 2 min 0,000 mm 0,0 UV-I 240 W/m 6,3 C 8,3 C 4,8 km/h (1 Bft) 95,74 %
31.03.2017 08:38 8,3 C 87 % 1020,7 hPa 0,0 l/m 4,1 km/h (1 Bft) O-NO 67 2 min 0,000 mm 0,0 UV-I 238 W/m 6,3 C 8,3 C 4,8 km/h (1 Bft) 96,00 %
31.03.2017 08:40 8,4 C 87 % 1020,7 hPa 0,0 l/m 3,6 km/h (1 Bft) O-NO 67 2 min 0,000 mm 0,1 UV-I 229 W/m 6,4 C 8,4 C 4,8 km/h (1 Bft) 93,62 %
31.03.2017 08:42 8,5 C 87 % 1020,6 hPa 0,0 l/m 3,4 km/h (1 Bft) O-NO 67 2 min 0,000 mm 0,5 UV-I 251 W/m 6,5 C 8,5 C 4,8 km/h (1 Bft) 96,00 %
31.03.2017 08:44 8,6 C 86 % 1020,6 hPa 0,0 l/m 3,9 km/h (1 Bft) O-NO 66 2 min 0,000 mm 0,5 UV-I 259 W/m 6,4 C 8,6 C 4,8 km/h (1 Bft) 91,49 %
31.03.2017 08:46 8,6 C 86 % 1020,6 hPa 0,0 l/m 5,1 km/h (1 Bft) O-NO 65 2 min 0,000 mm 0,5 UV-I 265 W/m 6,4 C 8,6 C 6,4 km/h (2 Bft) 100,00 %
31.03.2017 08:48 8,7 C 86 % 1020,6 hPa 0,0 l/m 4,3 km/h (1 Bft) O-NO 64 2 min 0,000 mm 0,5 UV-I 270 W/m 6,5 C 8,7 C 6,4 km/h (2 Bft) 100,00 %
31.03.2017 08:50 8,8 C 86 % 1020,6 hPa 0,0 l/m 4,8 km/h (1 Bft) O-NO 64 2 min 0,000 mm 0,5 UV-I 283 W/m 6,6 C 8,8 C 6,4 km/h (2 Bft) 94,44 %
31.03.2017 08:52 8,9 C 86 % 1020,6 hPa 0,0 l/m 2,9 km/h (1 Bft) O-NO 64 2 min 0,000 mm 0,6 UV-I 296 W/m 6,7 C 8,9 C 4,8 km/h (1 Bft) 96,08 %
31.03.2017 08:54 8,9 C 85 % 1020,6 hPa 0,0 l/m 3,5 km/h (1 Bft) O-NO 64 2 min 0,000 mm 0,6 UV-I 299 W/m 6,5 C 8,9 C 4,8 km/h (1 Bft) 98,00 %
31.03.2017 08:56 9,1 C 85 % 1020,6 hPa 0,0 l/m 3,0 km/h (1 Bft) O-NO 64 2 min 0,000 mm 0,6 UV-I 315 W/m 6,7 C 9,1 C 6,4 km/h (2 Bft) 98,00 %
31.03.2017 08:58 9,2 C 85 % 1020,6 hPa 0,0 l/m 3,2 km/h (1 Bft) O-NO 64 2 min 0,000 mm 0,6 UV-I 324 W/m 6,8 C 9,2 C 4,8 km/h (1 Bft) 95,74 %
31.03.2017 09:00 9,3 C 85 % 1020,6 hPa 0,0 l/m 3,8 km/h (1 Bft) O-NO 64 2 min 0,101 mm 0,6 UV-I 341 W/m 6,9 C 9,3 C 4,8 km/h (1 Bft) 92,11 %
31.03.2017 09:02 9,4 C 85 % 1020,6 hPa 0,0 l/m 2,5 km/h (1 Bft) O-NO 64 2 min 0,000 mm 0,7 UV-I 351 W/m 7,0 C 9,4 C 4,8 km/h (1 Bft) 95,74 %
31.03.2017 09:04 9,4 C 83 % 1020,6 hPa 0,0 l/m 3,7 km/h (1 Bft) O-NO 64 2 min 0,000 mm 0,7 UV-I 360 W/m 6,7 C 9,4 C 4,8 km/h (1 Bft) 98,00 %
31.03.2017 09:06 9,5 C 83 % 1020,6 hPa 0,0 l/m 6,0 km/h (2 Bft) O-NO 74 2 min 0,000 mm 0,7 UV-I 361 W/m 6,8 C 9,5 C 8,0 km/h (2 Bft) 100,00 %
31.03.2017 09:08 9,5 C 82 % 1020,6 hPa 0,0 l/m 5,3 km/h (1 Bft) O-NO 76 2 min 0,000 mm 0,7 UV-I 372 W/m 6,6 C 9,5 C 6,4 km/h (2 Bft) 98,00 %
31.03.2017 09:10 9,6 C 83 % 1020,5 hPa 0,0 l/m 4,8 km/h (1 Bft) O-NO 74 2 min 0,000 mm 0,8 UV-I 379 W/m 6,9 C 9,6 C 6,4 km/h (2 Bft) 100,00 %
31.03.2017 09:12 9,7 C 83 % 1020,5 hPa 0,0 l/m 4,3 km/h (1 Bft) O-NO 74 2 min 0,000 mm 0,8 UV-I 382 W/m 7,0 C 9,7 C 6,4 km/h (2 Bft) 100,00 %
31.03.2017 09:14 9,8 C 82 % 1020,5 hPa 0,0 l/m 3,6 km/h (1 Bft) O-NO 73 2 min 0,000 mm 0,8 UV-I 386 W/m 6,9 C 9,8 C 6,4 km/h (2 Bft) 97,87 %
31.03.2017 09:16 9,8 C 84 % 1020,5 hPa 0,0 l/m 4,2 km/h (1 Bft) O-NO 71 2 min 0,000 mm 0,8 UV-I 402 W/m 7,2 C 9,8 C 6,4 km/h (2 Bft) 100,00 %
31.03.2017 09:18 10,1 C 83 % 1020,5 hPa 0,0 l/m 4,8 km/h (1 Bft) O-NO 71 2 min 0,000 mm 0,8 UV-I 400 W/m 7,3 C 10,1 C 6,4 km/h (2 Bft) 89,36 %
31.03.2017 09:20 10,2 C 82 % 1020,5 hPa 0,0 l/m 3,8 km/h (1 Bft) O-NO 71 2 min 0,000 mm 0,9 UV-I 402 W/m 7,3 C 10,2 C 6,4 km/h (2 Bft) 93,62 %
31.03.2017 09:22 10,3 C 82 % 1020,5 hPa 0,0 l/m 5,1 km/h (1 Bft) NO 56 2 min 0,000 mm 0,9 UV-I 395 W/m 7,4 C 10,3 C 8,0 km/h (2 Bft) 91,49 %
31.03.2017 09:24 10,4 C 80 % 1020,5 hPa 0,0 l/m 5,5 km/h (1 Bft) O-NO 74 2 min 0,000 mm 0,9 UV-I 407 W/m 7,1 C 10,4 C 8,0 km/h (2 Bft) 94,87 %
31.03.2017 09:26 10,4 C 80 % 1020,4 hPa 0,0 l/m 4,7 km/h (1 Bft) O-NO 61 2 min 0,000 mm 1,0 UV-I 418 W/m 7,1 C 10,4 C 6,4 km/h (2 Bft) 100,00 %
31.03.2017 09:28 10,4 C 80 % 1020,5 hPa 0,0 l/m 3,8 km/h (1 Bft) O-NO 67 2 min 0,000 mm 1,0 UV-I 426 W/m 7,1 C 10,4 C 4,8 km/h (1 Bft) 97,87 %
31.03.2017 09:30 10,5 C 80 % 1020,5 hPa 0,0 l/m 6,8 km/h (2 Bft) O-NO 58 2 min 0,000 mm 1,0 UV-I 439 W/m 7,2 C 10,2 C 9,7 km/h (2 Bft) 97,87 %
31.03.2017 09:32 10,6 C 79 % 1020,5 hPa 0,0 l/m 6,4 km/h (2 Bft) O-NO 65 2 min 0,000 mm 1,0 UV-I 445 W/m 7,1 C 10,6 C 8,0 km/h (2 Bft) 100,00 %
31.03.2017 09:34 10,6 C 79 % 1020,5 hPa 0,0 l/m 4,5 km/h (1 Bft) O-NO 68 2 min 0,000 mm 1,1 UV-I 447 W/m 7,1 C 10,6 C 8,0 km/h (2 Bft) 100,00 %
31.03.2017 09:36 10,8 C 81 % 1020,4 hPa 0,0 l/m 6,2 km/h (2 Bft) NO 34 2 min 0,000 mm 1,1 UV-I 464 W/m 7,7 C 10,8 C 9,7 km/h (2 Bft) 97,87 %
31.03.2017 09:38 11,1 C 80 % 1020,4 hPa 0,0 l/m 5,1 km/h (1 Bft) NO 56 2 min 0,000 mm 1,1 UV-I 467 W/m 7,8 C 11,1 C 9,7 km/h (2 Bft) 95,74 %
31.03.2017 09:40 11,1 C 77 % 1020,4 hPa 0,0 l/m 5,7 km/h (1 Bft) NO 49 2 min 0,000 mm 1,1 UV-I 466 W/m 7,2 C 11,1 C 9,7 km/h (2 Bft) 95,74 %
31.03.2017 09:42 11,1 C 78 % 1020,4 hPa 0,0 l/m 5,8 km/h (2 Bft) N-NO 33 2 min 0,000 mm 1,2 UV-I 479 W/m 7,4 C 11,1 C 9,7 km/h (2 Bft) 97,87 %
31.03.2017 09:44 11,3 C 79 % 1020,4 hPa 0,0 l/m 6,5 km/h (2 Bft) N-NO 28 2 min 0,000 mm 1,2 UV-I 486 W/m 7,8 C 11,3 C 9,7 km/h (2 Bft) 100,00 %
31.03.2017 09:46 11,3 C 78 % 1020,4 hPa 0,0 l/m 7,1 km/h (2 Bft) O-NO 65 2 min 0,000 mm 1,2 UV-I 466 W/m 7,6 C 10,8 C 9,7 km/h (2 Bft) 97,87 %
31.03.2017 09:48 11,3 C 77 % 1020,4 hPa 0,0 l/m 8,2 km/h (2 Bft) NO 55 2 min 0,000 mm 1,2 UV-I 441 W/m 7,4 C 10,1 C 11,3 km/h (2 Bft) 100,00 %
31.03.2017 09:50 11,3 C 77 % 1020,4 hPa 0,0 l/m 7,8 km/h (2 Bft) O-NO 57 2 min 0,000 mm 1,2 UV-I 418 W/m 7,4 C 10,3 C 11,3 km/h (2 Bft) 97,37 %
31.03.2017 09:52 11,3 C 77 % 1020,4 hPa 0,0 l/m 7,0 km/h (2 Bft) O-NO 63 2 min 0,000 mm 1,2 UV-I 446 W/m 7,4 C 10,9 C 11,3 km/h (2 Bft) 100,00 %
31.03.2017 09:54 11,4 C 78 % 1020,4 hPa 0,0 l/m 6,3 km/h (2 Bft) NO 52 2 min 0,000 mm 1,3 UV-I 450 W/m 7,7 C 11,4 C 11,3 km/h (2 Bft) 98,11 %
31.03.2017 09:56 11,5 C 76 % 1020,4 hPa 0,0 l/m 6,6 km/h (2 Bft) NO 55 2 min 0,000 mm 1,3 UV-I 480 W/m 7,4 C 11,4 C 9,7 km/h (2 Bft) 94,00 %
31.03.2017 09:58 11,6 C 77 % 1020,3 hPa 0,0 l/m 7,4 km/h (2 Bft) O-NO 61 2 min 0,000 mm 1,3 UV-I 437 W/m 7,7 C 10,9 C 12,9 km/h (3 Bft) 100,00 %
31.03.2017 10:00 11,7 C 76 % 1020,4 hPa 0,0 l/m 8,0 km/h (2 Bft) O-NO 64 2 min 0,000 mm 1,4 UV-I 467 W/m 7,6 C 10,6 C 12,9 km/h (3 Bft) 92,11 %
31.03.2017 10:02 11,7 C 75 % 1020,4 hPa 0,0 l/m 9,2 km/h (2 Bft) NO 48 2 min 0,204 mm 1,4 UV-I 483 W/m 7,4 C 9,9 C 14,5 km/h (3 Bft) 96,00 %
31.03.2017 10:04 11,8 C 75 % 1020,4 hPa 0,0 l/m 7,8 km/h (2 Bft) O 80 2 min 0,000 mm 1,4 UV-I 501 W/m 7,5 C 10,9 C 14,5 km/h (3 Bft) 95,74 %
31.03.2017 10:06 11,9 C 76 % 1020,4 hPa 0,0 l/m 6,8 km/h (2 Bft) NO 46 2 min 0,000 mm 1,5 UV-I 513 W/m 7,8 C 11,6 C 11,3 km/h (2 Bft) 97,92 %
31.03.2017 10:08 12,1 C 74 % 1020,3 hPa 0,0 l/m 9,2 km/h (2 Bft) O-NO 70 2 min 0,000 mm 1,5 UV-I 515 W/m 7,6 C 10,3 C 12,9 km/h (3 Bft) 97,87 %
31.03.2017 10:10 12,2 C 74 % 1020,3 hPa 0,0 l/m 8,8 km/h (2 Bft) O-NO 78 2 min 0,000 mm 1,5 UV-I 532 W/m 7,7 C 10,7 C 14,5 km/h (3 Bft) 95,74 %
31.03.2017 10:12 12,3 C 73 % 1020,3 hPa 0,0 l/m 12,4 km/h (3 Bft) O-NO 74 2 min 0,000 mm 1,6 UV-I 536 W/m 7,6 C 9,0 C 16,1 km/h (3 Bft) 97,87 %
31.03.2017 10:14 12,4 C 73 % 1020,3 hPa 0,0 l/m 8,7 km/h (2 Bft) O 86 2 min 0,000 mm 1,6 UV-I 537 W/m 7,7 C 11,0 C 14,5 km/h (3 Bft) 94,00 %
31.03.2017 10:16 12,6 C 74 % 1020,2 hPa 0,0 l/m 9,4 km/h (2 Bft) NO 55 2 min 0,000 mm 1,6 UV-I 540 W/m 8,1 C 10,8 C 16,1 km/h (3 Bft) 97,87 %
31.03.2017 10:18 12,6 C 73 % 1020,2 hPa 0,0 l/m 10,0 km/h (2 Bft) O-NO 69 2 min 0,000 mm 1,6 UV-I 547 W/m 7,9 C 10,5 C 14,5 km/h (3 Bft) 97,87 %
31.03.2017 10:20 12,7 C 73 % 1020,2 hPa 0,0 l/m 6,8 km/h (2 Bft) NO 36 2 min 0,000 mm 1,7 UV-I 549 W/m 8,0 C 12,5 C 9,7 km/h (2 Bft) 93,62 %
31.03.2017 10:22 12,8 C 75 % 1020,2 hPa 0,0 l/m 9,8 km/h (2 Bft) NO 51 2 min 0,000 mm 1,7 UV-I 558 W/m 8,5 C 10,8 C 14,5 km/h (3 Bft) 97,56 %
31.03.2017 10:24 12,9 C 73 % 1020,2 hPa 0,0 l/m 6,9 km/h (2 Bft) O-NO 76 2 min 0,000 mm 1,7 UV-I 566 W/m 8,2 C 12,6 C 11,3 km/h (2 Bft) 97,87 %
31.03.2017 10:26 13,1 C 72 % 1020,1 hPa 0,0 l/m 6,5 km/h (2 Bft) N-NO 24 2 min 0,000 mm 1,8 UV-I 567 W/m 8,2 C 13,1 C 12,9 km/h (3 Bft) 95,74 %
31.03.2017 10:28 13,2 C 73 % 1020,1 hPa 0,0 l/m 8,7 km/h (2 Bft) NO 38 2 min 0,000 mm 1,8 UV-I 578 W/m 8,5 C 11,8 C 12,9 km/h (3 Bft) 97,87 %
31.03.2017 10:30 13,3 C 73 % 1020,2 hPa 0,0 l/m 8,3 km/h (2 Bft) NO 34 2 min 0,000 mm 1,8 UV-I 567 W/m 8,6 C 12,1 C 11,3 km/h (2 Bft) 95,74 %
31.03.2017 10:32 13,3 C 71 % 1020,1 hPa 0,0 l/m 7,9 km/h (2 Bft) NO 53 2 min 0,000 mm 1,8 UV-I 576 W/m 8,2 C 12,4 C 12,9 km/h (3 Bft) 97,87 %
31.03.2017 10:34 13,3 C 72 % 1020,1 hPa 0,0 l/m 8,5 km/h (2 Bft) O-NO 61 2 min 0,000 mm 1,9 UV-I 581 W/m 8,4 C 12,0 C 12,9 km/h (3 Bft) 100,00 %
31.03.2017 10:36 13,3 C 71 % 1020,1 hPa 0,0 l/m 7,6 km/h (2 Bft) O-NO 57 2 min 0,000 mm 1,9 UV-I 574 W/m 8,2 C 12,6 C 11,3 km/h (2 Bft) 100,00 %
31.03.2017 10:38 13,3 C 72 % 1020,1 hPa 0,0 l/m 7,1 km/h (2 Bft) NO 42 2 min 0,000 mm 1,9 UV-I 536 W/m 8,4 C 12,9 C 9,7 km/h (2 Bft) 100,00 %
31.03.2017 10:40 13,3 C 72 % 1020,2 hPa 0,0 l/m 6,5 km/h (2 Bft) NO 41 2 min 0,000 mm 1,9 UV-I 519 W/m 8,4 C 13,3 C 9,7 km/h (2 Bft) 100,00 %
31.03.2017 10:42 13,4 C 73 % 1020,1 hPa 0,0 l/m 5,6 km/h (1 Bft) O-NO 68 2 min 0,000 mm 2,0 UV-I 562 W/m 8,7 C 13,4 C 8,0 km/h (2 Bft) 100,00 %
31.03.2017 10:44 13,6 C 75 % 1020,1 hPa 0,0 l/m 6,6 km/h (2 Bft) NO 38 2 min 0,000 mm 2,0 UV-I 587 W/m 9,3 C 13,5 C 14,5 km/h (3 Bft) 100,00 %
31.03.2017 10:46 13,8 C 73 % 1020,1 hPa 0,0 l/m 8,2 km/h (2 Bft) NO 37 2 min 0,000 mm 2,0 UV-I 600 W/m 9,0 C 12,7 C 11,3 km/h (2 Bft) 100,00 %
31.03.2017 10:48 13,8 C 70 % 1020,1 hPa 0,0 l/m 6,4 km/h (2 Bft) NO 53 2 min 0,000 mm 2,1 UV-I 605 W/m 8,4 C 13,8 C 9,7 km/h (2 Bft) 97,87 %
31.03.2017 10:50 13,9 C 70 % 1020,1 hPa 0,0 l/m 5,5 km/h (1 Bft) O-NO 58 2 min 0,000 mm 2,1 UV-I 605 W/m 8,5 C 13,9 C 8,0 km/h (2 Bft) 100,00 %
31.03.2017 10:52 13,9 C 69 % 1020,0 hPa 0,0 l/m 6,1 km/h (2 Bft) NO 45 2 min 0,000 mm 2,1 UV-I 612 W/m 8,3 C 13,9 C 9,7 km/h (2 Bft) 100,00 %
31.03.2017 10:54 13,9 C 69 % 1020,0 hPa 0,0 l/m 5,5 km/h (1 Bft) NO 40 2 min 0,000 mm 2,2 UV-I 617 W/m 8,3 C 13,9 C 8,0 km/h (2 Bft) 100,00 %
31.03.2017 10:56 14,1 C 71 % 1020,0 hPa 0,0 l/m 7,2 km/h (2 Bft) O-NO 74 2 min 0,000 mm 2,2 UV-I 619 W/m 8,9 C 13,6 C 11,3 km/h (2 Bft) 100,00 %
31.03.2017 10:58 14,1 C 69 % 1019,9 hPa 0,0 l/m 5,2 km/h (1 Bft) O-NO 78 2 min 0,000 mm 2,2 UV-I 625 W/m 8,5 C 14,1 C 8,0 km/h (2 Bft) 97,87 %
31.03.2017 11:00 14,1 C 70 % 1019,9 hPa 0,0 l/m 7,0 km/h (2 Bft) NO 55 2 min 0,000 mm 2,2 UV-I 625 W/m 8,7 C 13,7 C 11,3 km/h (2 Bft) 94,29 %
31.03.2017 11:02 14,1 C 69 % 1019,9 hPa 0,0 l/m 8,2 km/h (2 Bft) NO 48 2 min 0,304 mm 2,3 UV-I 625 W/m 8,5 C 13,0 C 12,9 km/h (3 Bft) 96,23 %
31.03.2017 11:04 14,2 C 71 % 1019,9 hPa 0,0 l/m 6,8 km/h (2 Bft) O-NO 60 2 min 0,000 mm 2,3 UV-I 630 W/m 9,0 C 14,0 C 11,3 km/h (2 Bft) 100,00 %
31.03.2017 11:06 14,3 C 68 % 1019,9 hPa 0,0 l/m 8,7 km/h (2 Bft) O 81 2 min 0,000 mm 2,3 UV-I 632 W/m 8,5 C 13,0 C 12,9 km/h (3 Bft) 100,00 %
31.03.2017 11:08 14,2 C 69 % 1019,9 hPa 0,0 l/m 6,1 km/h (2 Bft) O-NO 72 2 min 0,000 mm 2,4 UV-I 634 W/m 8,6 C 14,2 C 8,0 km/h (2 Bft) 97,37 %
31.03.2017 11:10 14,2 C 68 % 1019,8 hPa 0,0 l/m 6,4 km/h (2 Bft) O-NO 69 2 min 0,000 mm 2,4 UV-I 637 W/m 8,4 C 14,2 C 8,0 km/h (2 Bft) 98,00 %
31.03.2017 11:12 14,2 C 69 % 1019,8 hPa 0,0 l/m 6,6 km/h (2 Bft) O-NO 72 2 min 0,000 mm 2,4 UV-I 636 W/m 8,6 C 14,1 C 12,9 km/h (3 Bft) 100,00 %
31.03.2017 11:14 14,3 C 68 % 1019,8 hPa 0,0 l/m 7,1 km/h (2 Bft) NO 52 2 min 0,000 mm 2,4 UV-I 636 W/m 8,5 C 13,9 C 9,7 km/h (2 Bft) 100,00 %
31.03.2017 11:16 14,4 C 68 % 1019,8 hPa 0,0 l/m 6,6 km/h (2 Bft) O-NO 61 2 min 0,000 mm 2,5 UV-I 644 W/m 8,6 C 14,3 C 9,7 km/h (2 Bft) 100,00 %
31.03.2017 11:18 14,6 C 68 % 1019,8 hPa 0,0 l/m 4,3 km/h (1 Bft) O-NO 67 2 min 0,000 mm 2,5 UV-I 655 W/m 8,8 C 14,6 C 8,0 km/h (2 Bft) 95,74 %
31.03.2017 11:20 14,6 C 67 % 1019,8 hPa 0,0 l/m 6,3 km/h (2 Bft) O-NO 61 2 min 0,000 mm 2,5 UV-I 662 W/m 8,5 C 14,6 C 12,9 km/h (3 Bft) 100,00 %
31.03.2017 11:22 14,7 C 69 % 1019,7 hPa 0,0 l/m 5,7 km/h (1 Bft) O-NO 71 2 min 0,000 mm 2,6 UV-I 662 W/m 9,1 C 14,7 C 8,0 km/h (2 Bft) 100,00 %
31.03.2017 11:24 14,8 C 67 % 1019,7 hPa 0,0 l/m 6,8 km/h (2 Bft) O-NO 72 2 min 0,000 mm 2,6 UV-I 657 W/m 8,7 C 14,6 C 11,3 km/h (2 Bft) 100,00 %
31.03.2017 11:26 14,8 C 65 % 1019,7 hPa 0,0 l/m 7,9 km/h (2 Bft) O-NO 78 2 min 0,000 mm 2,6 UV-I 670 W/m 8,3 C 13,9 C 12,9 km/h (3 Bft) 100,00 %
31.03.2017 11:28 14,8 C 67 % 1019,7 hPa 0,0 l/m 6,5 km/h (2 Bft) O-NO 70 2 min 0,000 mm 2,7 UV-I 680 W/m 8,7 C 14,8 C 12,9 km/h (3 Bft) 100,00 %
31.03.2017 11:30 14,8 C 67 % 1019,6 hPa 0,0 l/m 3,9 km/h (1 Bft) O 88 2 min 0,000 mm 2,7 UV-I 680 W/m 8,7 C 14,8 C 6,4 km/h (2 Bft) 97,92 %
31.03.2017 11:32 14,9 C 69 % 1019,6 hPa 0,0 l/m 7,0 km/h (2 Bft) O-NO 76 2 min 0,000 mm 2,7 UV-I 683 W/m 9,3 C 14,6 C 9,7 km/h (2 Bft) 100,00 %
31.03.2017 11:34 15,0 C 67 % 1019,6 hPa 0,0 l/m 7,4 km/h (2 Bft) O-NO 59 2 min 0,000 mm 2,7 UV-I 685 W/m 8,9 C 14,4 C 12,9 km/h (3 Bft) 100,00 %
31.03.2017 11:36 15,1 C 65 % 1019,6 hPa 0,0 l/m 6,8 km/h (2 Bft) O-NO 65 2 min 0,000 mm 2,8 UV-I 691 W/m 8,6 C 14,9 C 12,9 km/h (3 Bft) 96,00 %
31.03.2017 11:38 14,9 C 65 % 1019,6 hPa 0,0 l/m 5,7 km/h (1 Bft) O 88 2 min 0,000 mm 2,8 UV-I 691 W/m 8,4 C 14,9 C 8,0 km/h (2 Bft) 93,62 %
31.03.2017 11:40 14,9 C 67 % 1019,5 hPa 0,0 l/m 7,0 km/h (2 Bft) NO 42 2 min 0,000 mm 2,8 UV-I 688 W/m 8,8 C 14,6 C 11,3 km/h (2 Bft) 97,92 %
31.03.2017 11:42 15,0 C 67 % 1019,5 hPa 0,0 l/m 3,9 km/h (1 Bft) NO 42 2 min 0,000 mm 2,8 UV-I 695 W/m 8,9 C 15,0 C 8,0 km/h (2 Bft) 100,00 %
31.03.2017 11:44 15,1 C 68 % 1019,5 hPa 0,0 l/m 4,5 km/h (1 Bft) O-NO 67 2 min 0,000 mm 2,9 UV-I 701 W/m 9,2 C 15,1 C 6,4 km/h (2 Bft) 98,00 %
31.03.2017 11:46 15,3 C 66 % 1019,5 hPa 0,0 l/m 4,7 km/h (1 Bft) NO 49 2 min 0,000 mm 3,0 UV-I 706 W/m 9,0 C 15,3 C 6,4 km/h (2 Bft) 97,87 %
31.03.2017 11:48 15,4 C 65 % 1019,5 hPa 0,0 l/m 8,3 km/h (2 Bft) O-NO 62 2 min 0,000 mm 3,0 UV-I 705 W/m 8,9 C 14,4 C 14,5 km/h (3 Bft) 97,87 %
31.03.2017 11:50 15,5 C 66 % 1019,4 hPa 0,0 l/m 6,5 km/h (2 Bft) N-NO 32 2 min 0,000 mm 3,0 UV-I 707 W/m 9,2 C 15,5 C 9,7 km/h (2 Bft) 97,37 %
31.03.2017 11:52 15,6 C 67 % 1019,4 hPa 0,0 l/m 5,7 km/h (1 Bft) O-NO 72 2 min 0,000 mm 3,0 UV-I 707 W/m 9,5 C 15,6 C 8,0 km/h (2 Bft) 98,11 %
31.03.2017 11:54 15,7 C 66 % 1019,4 hPa 0,0 l/m 4,1 km/h (1 Bft) O-NO 67 2 min 0,000 mm 3,0 UV-I 709 W/m 9,4 C 15,7 C 6,4 km/h (2 Bft) 98,00 %
31.03.2017 11:56 15,8 C 65 % 1019,4 hPa 0,0 l/m 6,3 km/h (2 Bft) O 85 2 min 0,000 mm 3,1 UV-I 710 W/m 9,2 C 15,8 C 12,9 km/h (3 Bft) 96,00 %
31.03.2017 11:58 15,8 C 65 % 1019,3 hPa 0,0 l/m 5,8 km/h (2 Bft) O 83 2 min 0,000 mm 3,1 UV-I 710 W/m 9,2 C 15,8 C 9,7 km/h (2 Bft) 89,36 %
31.03.2017 12:00 15,7 C 63 % 1019,3 hPa 0,0 l/m 8,5 km/h (2 Bft) O 91 2 min 0,381 mm 3,1 UV-I 715 W/m 8,7 C 14,6 C 12,9 km/h (3 Bft) 94,00 %
31.03.2017 12:02 15,8 C 64 % 1019,2 hPa 0,0 l/m 8,6 km/h (2 Bft) NO 49 2 min 0,000 mm 3,1 UV-I 715 W/m 9,0 C 14,6 C 14,5 km/h (3 Bft) 91,49 %
31.03.2017 12:04 15,9 C 65 % 1019,3 hPa 0,0 l/m 7,4 km/h (2 Bft) O-NO 66 2 min 0,000 mm 3,1 UV-I 717 W/m 9,3 C 15,4 C 12,9 km/h (3 Bft) 93,62 %
31.03.2017 12:06 15,9 C 65 % 1019,2 hPa 0,0 l/m 5,2 km/h (1 Bft) O-NO 63 2 min 0,000 mm 3,1 UV-I 721 W/m 9,3 C 15,9 C 9,7 km/h (2 Bft) 95,74 %
31.03.2017 12:08 16,1 C 64 % 1019,2 hPa 0,0 l/m 6,8 km/h (2 Bft) NO 48 2 min 0,000 mm 3,2 UV-I 725 W/m 9,3 C 15,9 C 11,3 km/h (2 Bft) 93,75 %
31.03.2017 12:10 16,2 C 64 % 1019,1 hPa 0,0 l/m 5,6 km/h (1 Bft) O-NO 61 2 min 0,000 mm 3,2 UV-I 723 W/m 9,4 C 16,2 C 8,0 km/h (2 Bft) 93,62 %
31.03.2017 12:12 16,3 C 65 % 1019,1 hPa 0,0 l/m 6,3 km/h (2 Bft) O-NO 58 2 min 0,000 mm 3,2 UV-I 725 W/m 9,7 C 16,3 C 12,9 km/h (3 Bft) 97,14 %
31.03.2017 12:14 16,3 C 62 % 1019,1 hPa 0,0 l/m 8,7 km/h (2 Bft) O-NO 78 2 min 0,000 mm 3,2 UV-I 727 W/m 9,0 C 15,1 C 14,5 km/h (3 Bft) 95,74 %
31.03.2017 12:16 16,2 C 64 % 1019,0 hPa 0,0 l/m 6,4 km/h (2 Bft) O-NO 71 2 min 0,000 mm 3,2 UV-I 728 W/m 9,4 C 16,2 C 9,7 km/h (2 Bft) 95,74 %
31.03.2017 12:18 16,3 C 64 % 1019,1 hPa 0,0 l/m 5,2 km/h (1 Bft) O 85 2 min 0,000 mm 3,3 UV-I 729 W/m 9,5 C 16,3 C 9,7 km/h (2 Bft) 96,00 %
31.03.2017 12:20 16,3 C 65 % 1019,0 hPa 0,0 l/m 2,2 km/h (1 Bft) O-NO 66 2 min 0,000 mm 3,3 UV-I 730 W/m 9,7 C 16,3 C 4,8 km/h (1 Bft) 100,00 %
31.03.2017 12:22 16,6 C 67 % 1019,0 hPa 0,0 l/m 3,5 km/h (1 Bft) N-NW 348 2 min 0,000 mm 3,4 UV-I 732 W/m 10,4 C 16,6 C 8,0 km/h (2 Bft) 97,87 %
31.03.2017 12:24 16,5 C 67 % 1019,0 hPa 0,0 l/m 5,2 km/h (1 Bft) O-NO 65 2 min 0,000 mm 3,4 UV-I 731 W/m 10,4 C 16,5 C 11,3 km/h (2 Bft) 97,87 %
31.03.2017 12:26 16,6 C 63 % 1019,0 hPa 0,0 l/m 7,1 km/h (2 Bft) NO 55 2 min 0,000 mm 3,4 UV-I 734 W/m 9,5 C 16,2 C 12,9 km/h (3 Bft) 100,00 %
31.03.2017 12:28 16,7 C 61 % 1019,0 hPa 0,0 l/m 5,2 km/h (1 Bft) O-NO 67 2 min 0,000 mm 3,4 UV-I 737 W/m 9,1 C 16,7 C 8,0 km/h (2 Bft) 95,74 %
31.03.2017 12:30 16,8 C 62 % 1018,9 hPa 0,0 l/m 3,7 km/h (1 Bft) O-NO 65 2 min 0,000 mm 3,4 UV-I 740 W/m 9,5 C 16,8 C 14,5 km/h (3 Bft) 97,87 %
31.03.2017 12:32 17,1 C 62 % 1019,0 hPa 0,0 l/m 6,4 km/h (2 Bft) NO 54 2 min 0,000 mm 3,4 UV-I 742 W/m 9,8 C 17,1 C 14,5 km/h (3 Bft) 95,83 %
31.03.2017 12:34 17,1 C 60 % 1018,8 hPa 0,0 l/m 3,5 km/h (1 Bft) O-NO 69 2 min 0,000 mm 3,4 UV-I 742 W/m 9,3 C 17,1 C 6,4 km/h (2 Bft) 95,08 %
31.03.2017 12:36 17,1 C 61 % 1018,9 hPa 0,0 l/m 6,0 km/h (2 Bft) NO 52 2 min 0,000 mm 3,5 UV-I 744 W/m 9,5 C 17,1 C 9,7 km/h (2 Bft) 95,74 %
31.03.2017 12:38 17,1 C 61 % 1018,8 hPa 0,0 l/m 7,1 km/h (2 Bft) NO 51 2 min 0,000 mm 3,5 UV-I 744 W/m 9,5 C 16,7 C 11,3 km/h (2 Bft) 93,62 %
31.03.2017 12:40 17,2 C 62 % 1018,8 hPa 0,0 l/m 5,2 km/h (1 Bft) N 9 2 min 0,000 mm 3,5 UV-I 746 W/m 9,9 C 17,2 C 9,7 km/h (2 Bft) 93,75 %
31.03.2017 12:42 17,3 C 63 % 1018,8 hPa 0,0 l/m 5,1 km/h (1 Bft) O-NO 68 2 min 0,000 mm 3,5 UV-I 745 W/m 10,2 C 17,3 C 12,9 km/h (3 Bft) 94,29 %
31.03.2017 12:44 17,4 C 59 % 1018,8 hPa 0,0 l/m 6,6 km/h (2 Bft) NO 56 2 min 0,000 mm 3,5 UV-I 745 W/m 9,3 C 17,3 C 14,5 km/h (3 Bft) 95,31 %
31.03.2017 12:46 17,4 C 63 % 1018,8 hPa 0,0 l/m 3,9 km/h (1 Bft) NO 56 2 min 0,000 mm 3,5 UV-I 747 W/m 10,3 C 17,4 C 6,4 km/h (2 Bft) 97,44 %
31.03.2017 12:48 17,5 C 62 % 1018,7 hPa 0,0 l/m 3,2 km/h (1 Bft) NO 46 2 min 0,000 mm 3,5 UV-I 745 W/m 10,1 C 17,5 C 6,4 km/h (2 Bft) 91,49 %
31.03.2017 12:50 17,7 C 62 % 1018,7 hPa 0,0 l/m 8,3 km/h (2 Bft) NO 42 2 min 0,000 mm 3,5 UV-I 745 W/m 10,3 C 16,8 C 14,5 km/h (3 Bft) 93,62 %
31.03.2017 12:52 17,6 C 58 % 1018,6 hPa 0,0 l/m 6,9 km/h (2 Bft) NO 44 2 min 0,000 mm 3,5 UV-I 749 W/m 9,2 C 17,4 C 12,9 km/h (3 Bft) 91,49 %
31.03.2017 12:54 17,7 C 62 % 1018,6 hPa 0,0 l/m 7,1 km/h (2 Bft) NO 46 2 min 0,000 mm 3,5 UV-I 748 W/m 10,3 C 17,4 C 9,7 km/h (2 Bft) 93,62 %
31.03.2017 12:56 17,7 C 57 % 1018,6 hPa 0,0 l/m 6,3 km/h (2 Bft) O-NO 74 2 min 0,000 mm 3,5 UV-I 747 W/m 9,1 C 17,7 C 11,3 km/h (2 Bft) 94,00 %
31.03.2017 12:58 17,8 C 62 % 1018,5 hPa 0,0 l/m 4,8 km/h (1 Bft) NO 49 2 min 0,000 mm 3,5 UV-I 748 W/m 10,4 C 17,8 C 9,7 km/h (2 Bft) 93,62 %
31.03.2017 13:00 18,0 C 58 % 1018,6 hPa 0,0 l/m 5,4 km/h (1 Bft) NO 44 2 min 0,000 mm 3,5 UV-I 748 W/m 9,6 C 18,0 C 9,7 km/h (2 Bft) 94,00 %
31.03.2017 13:02 18,1 C 58 % 1018,5 hPa 0,0 l/m 7,6 km/h (2 Bft) NO 40 2 min 0,432 mm 3,6 UV-I 749 W/m 9,7 C 17,5 C 14,5 km/h (3 Bft) 95,74 %
31.03.2017 13:04 18,2 C 56 % 1018,4 hPa 0,0 l/m 7,1 km/h (2 Bft) O-NO 59 2 min 0,000 mm 3,6 UV-I 748 W/m 9,3 C 17,9 C 11,3 km/h (2 Bft) 95,74 %
31.03.2017 13:06 18,2 C 58 % 1018,4 hPa 0,0 l/m 8,1 km/h (2 Bft) NO 37 2 min 0,000 mm 3,5 UV-I 746 W/m 9,8 C 17,4 C 11,3 km/h (2 Bft) 93,62 %
31.03.2017 13:08 18,2 C 59 % 1018,3 hPa 0,0 l/m 5,1 km/h (1 Bft) O-NO 57 2 min 0,000 mm 3,5 UV-I 744 W/m 10,1 C 18,2 C 8,0 km/h (2 Bft) 93,62 %
31.03.2017 13:10 18,3 C 58 % 1018,4 hPa 0,0 l/m 4,2 km/h (1 Bft) NO 47 2 min 0,000 mm 3,6 UV-I 747 W/m 9,9 C 18,3 C 8,0 km/h (2 Bft) 95,74 %
31.03.2017 13:12 18,2 C 56 % 1018,3 hPa 0,0 l/m 2,8 km/h (1 Bft) NO 35 2 min 0,000 mm 3,6 UV-I 747 W/m 9,3 C 18,2 C 8,0 km/h (2 Bft) 95,74 %
31.03.2017 13:14 18,4 C 58 % 1018,2 hPa 0,0 l/m 6,6 km/h (2 Bft) NO 47 2 min 0,000 mm 3,6 UV-I 747 W/m 10,0 C 18,3 C 11,3 km/h (2 Bft) 94,74 %
31.03.2017 13:16 18,3 C 58 % 1018,2 hPa 0,0 l/m 5,0 km/h (1 Bft) O-NO 57 2 min 0,000 mm 3,6 UV-I 745 W/m 9,9 C 18,3 C 9,7 km/h (2 Bft) 93,62 %
31.03.2017 13:18 18,4 C 57 % 1018,2 hPa 0,0 l/m 8,1 km/h (2 Bft) N-NO 26 2 min 0,000 mm 3,6 UV-I 745 W/m 9,7 C 17,6 C 12,9 km/h (3 Bft) 94,34 %
31.03.2017 13:20 18,3 C 56 % 1018,2 hPa 0,0 l/m 2,8 km/h (1 Bft) NO 49 2 min 0,000 mm 3,6 UV-I 745 W/m 9,4 C 18,3 C 4,8 km/h (1 Bft) 92,00 %
31.03.2017 13:22 18,4 C 58 % 1018,2 hPa 0,0 l/m 6,1 km/h (2 Bft) O-NO 73 2 min 0,000 mm 3,6 UV-I 745 W/m 10,0 C 18,4 C 12,9 km/h (3 Bft) 93,75 %
31.03.2017 13:24 18,5 C 58 % 1018,2 hPa 0,0 l/m 7,8 km/h (2 Bft) NO 44 2 min 0,000 mm 3,6 UV-I 745 W/m 10,1 C 17,9 C 12,9 km/h (3 Bft) 92,11 %
31.03.2017 13:26 18,6 C 59 % 1018,0 hPa 0,0 l/m 7,7 km/h (2 Bft) NO 52 2 min 0,000 mm 3,5 UV-I 745 W/m 10,4 C 18,0 C 12,9 km/h (3 Bft) 89,36 %
31.03.2017 13:28 18,6 C 60 % 1018,1 hPa 0,0 l/m 6,1 km/h (2 Bft) NO 38 2 min 0,000 mm 3,5 UV-I 744 W/m 10,7 C 18,6 C 9,7 km/h (2 Bft) 91,49 %
31.03.2017 13:30 18,8 C 56 % 1018,0 hPa 0,0 l/m 6,6 km/h (2 Bft) NO 51 2 min 0,000 mm 3,5 UV-I 741 W/m 9,8 C 18,7 C 9,7 km/h (2 Bft) 93,62 %
31.03.2017 13:32 18,9 C 60 % 1018,0 hPa 0,0 l/m 4,1 km/h (1 Bft) NO 50 2 min 0,000 mm 3,5 UV-I 744 W/m 11,0 C 18,9 C 8,0 km/h (2 Bft) 90,00 %
31.03.2017 13:34 18,9 C 62 % 1018,0 hPa 0,0 l/m 5,3 km/h (1 Bft) NO 51 2 min 0,000 mm 3,5 UV-I 742 W/m 11,5 C 18,9 C 9,7 km/h (2 Bft) 95,74 %
31.03.2017 13:36 19,1 C 60 % 1017,9 hPa 0,0 l/m 5,2 km/h (1 Bft) N-NO 25 2 min 0,000 mm 3,5 UV-I 738 W/m 11,1 C 19,1 C 11,3 km/h (2 Bft) 93,62 %
31.03.2017 13:38 19,1 C 57 % 1017,9 hPa 0,0 l/m 5,6 km/h (1 Bft) O 86 2 min 0,000 mm 3,5 UV-I 737 W/m 10,4 C 19,1 C 11,3 km/h (2 Bft) 93,62 %
31.03.2017 13:40 19,1 C 55 % 1017,9 hPa 0,0 l/m 7,7 km/h (2 Bft) O 94 2 min 0,000 mm 3,5 UV-I 734 W/m 9,8 C 18,5 C 12,9 km/h (3 Bft) 93,62 %
31.03.2017 13:42 19,1 C 55 % 1017,8 hPa 0,0 l/m 9,2 km/h (2 Bft) NO 53 2 min 0,000 mm 3,5 UV-I 734 W/m 9,8 C 17,9 C 14,5 km/h (3 Bft) 91,49 %
31.03.2017 13:44 19,1 C 53 % 1017,8 hPa 0,0 l/m 8,3 km/h (2 Bft) O-NO 75 2 min 0,000 mm 3,5 UV-I 732 W/m 9,3 C 18,3 C 12,9 km/h (3 Bft) 93,62 %
31.03.2017 13:46 19,0 C 54 % 1017,7 hPa 0,0 l/m 9,7 km/h (2 Bft) O-NO 74 2 min 0,000 mm 3,4 UV-I 731 W/m 9,5 C 17,6 C 16,1 km/h (3 Bft) 92,00 %
31.03.2017 13:48 19,1 C 54 % 1017,7 hPa 0,0 l/m 7,0 km/h (2 Bft) NO 53 2 min 0,000 mm 3,4 UV-I 730 W/m 9,6 C 18,8 C 9,7 km/h (2 Bft) 91,49 %
31.03.2017 13:50 19,1 C 53 % 1017,8 hPa 0,0 l/m 6,2 km/h (2 Bft) O-NO 65 2 min 0,000 mm 3,4 UV-I 728 W/m 9,3 C 19,1 C 12,9 km/h (3 Bft) 89,36 %
31.03.2017 13:52 19,1 C 55 % 1017,7 hPa 0,0 l/m 9,3 km/h (2 Bft) O-NO 74 2 min 0,000 mm 3,4 UV-I 728 W/m 9,8 C 17,9 C 14,5 km/h (3 Bft) 89,36 %
31.03.2017 13:54 19,3 C 57 % 1017,6 hPa 0,0 l/m 10,1 km/h (2 Bft) O 98 2 min 0,000 mm 3,4 UV-I 725 W/m 10,6 C 17,8 C 14,5 km/h (3 Bft) 83,33 %
31.03.2017 13:56 19,3 C 53 % 1017,6 hPa 0,0 l/m 5,8 km/h (2 Bft) NO 47 2 min 0,000 mm 3,4 UV-I 727 W/m 9,5 C 19,3 C 9,7 km/h (2 Bft) 88,52 %
31.03.2017 13:58 19,4 C 54 % 1017,6 hPa 0,0 l/m 9,8 km/h (2 Bft) O-NO 68 2 min 0,000 mm 3,4 UV-I 725 W/m 9,8 C 18,0 C 14,5 km/h (3 Bft) 91,67 %
31.03.2017 14:00 19,4 C 52 % 1017,6 hPa 0,0 l/m 5,4 km/h (1 Bft) O-NO 74 2 min 0,457 mm 3,3 UV-I 719 W/m 9,3 C 19,4 C 11,3 km/h (2 Bft) 89,36 %
31.03.2017 14:02 19,4 C 53 % 1017,6 hPa 0,0 l/m 5,7 km/h (1 Bft) O-NO 69 2 min 0,000 mm 3,3 UV-I 718 W/m 9,6 C 19,4 C 9,7 km/h (2 Bft) 94,00 %
31.03.2017 14:04 19,4 C 54 % 1017,5 hPa 0,0 l/m 4,0 km/h (1 Bft) O-NO 64 2 min 0,000 mm 3,3 UV-I 719 W/m 9,8 C 19,4 C 8,0 km/h (2 Bft) 96,00 %
31.03.2017 14:06 19,6 C 53 % 1017,5 hPa 0,0 l/m 4,2 km/h (1 Bft) O-NO 57 2 min 0,000 mm 3,3 UV-I 716 W/m 9,8 C 19,6 C 8,0 km/h (2 Bft) 93,62 %
31.03.2017 14:08 19,6 C 53 % 1017,5 hPa 0,0 l/m 6,8 km/h (2 Bft) NO 44 2 min 0,000 mm 3,3 UV-I 715 W/m 9,8 C 19,4 C 12,9 km/h (3 Bft) 97,37 %
31.03.2017 14:10 19,6 C 54 % 1017,5 hPa 0,0 l/m 6,9 km/h (2 Bft) O 80 2 min 0,000 mm 3,3 UV-I 712 W/m 10,0 C 19,4 C 11,3 km/h (2 Bft) 97,87 %
31.03.2017 14:12 19,7 C 52 % 1017,4 hPa 0,0 l/m 7,9 km/h (2 Bft) O-NO 61 2 min 0,000 mm 3,2 UV-I 706 W/m 9,6 C 19,1 C 12,9 km/h (3 Bft) 97,87 %
31.03.2017 14:14 19,6 C 55 % 1017,5 hPa 0,0 l/m 5,9 km/h (2 Bft) NO 46 2 min 0,000 mm 3,2 UV-I 709 W/m 10,3 C 19,6 C 11,3 km/h (2 Bft) 95,74 %
31.03.2017 14:16 19,8 C 55 % 1017,4 hPa 0,0 l/m 4,7 km/h (1 Bft) N 9 2 min 0,000 mm 3,2 UV-I 709 W/m 10,5 C 19,8 C 11,3 km/h (2 Bft) 94,00 %
31.03.2017 14:18 19,8 C 52 % 1017,4 hPa 0,0 l/m 5,4 km/h (1 Bft) O-NO 64 2 min 0,000 mm 3,2 UV-I 707 W/m 9,7 C 19,8 C 9,7 km/h (2 Bft) 95,74 %
31.03.2017 14:20 19,8 C 53 % 1017,4 hPa 0,0 l/m 5,3 km/h (1 Bft) O-SO 105 2 min 0,000 mm 3,2 UV-I 705 W/m 9,9 C 19,8 C 12,9 km/h (3 Bft) 97,87 %
31.03.2017 14:22 20,0 C 52 % 1017,3 hPa 0,0 l/m 8,5 km/h (2 Bft) O 81 2 min 0,000 mm 3,2 UV-I 701 W/m 9,8 C 19,2 C 12,9 km/h (3 Bft) 93,62 %
31.03.2017 14:24 20,0 C 51 % 1017,2 hPa 0,0 l/m 9,0 km/h (2 Bft) NO 35 2 min 0,000 mm 3,1 UV-I 701 W/m 9,6 C 19,0 C 12,9 km/h (3 Bft) 97,87 %
31.03.2017 14:26 20,1 C 55 % 1017,2 hPa 0,0 l/m 8,0 km/h (2 Bft) O-NO 59 2 min 0,000 mm 3,1 UV-I 701 W/m 10,8 C 19,5 C 14,5 km/h (3 Bft) 95,74 %
31.03.2017 14:28 20,2 C 51 % 1017,2 hPa 0,0 l/m 4,5 km/h (1 Bft) NO 55 2 min 0,000 mm 3,1 UV-I 700 W/m 9,7 C 20,2 C 9,7 km/h (2 Bft) 100,00 %
31.03.2017 14:30 20,2 C 50 % 1017,2 hPa 0,0 l/m 5,7 km/h (1 Bft) NO 56 2 min 0,000 mm 3,1 UV-I 698 W/m 9,4 C 20,2 C 8,0 km/h (2 Bft) 100,00 %
31.03.2017 14:32 20,3 C 51 % 1017,2 hPa 0,0 l/m 7,6 km/h (2 Bft) O-NO 69 2 min 0,000 mm 3,1 UV-I 693 W/m 9,8 C 19,8 C 12,9 km/h (3 Bft) 97,37 %
31.03.2017 14:34 20,2 C 49 % 1017,1 hPa 0,0 l/m 9,6 km/h (2 Bft) O-NO 65 2 min 0,000 mm 3,1 UV-I 691 W/m 9,1 C 19,0 C 16,1 km/h (3 Bft) 98,00 %
31.03.2017 14:36 20,4 C 52 % 1017,1 hPa 0,0 l/m 7,9 km/h (2 Bft) O-NO 73 2 min 0,000 mm 3,0 UV-I 686 W/m 10,2 C 19,8 C 12,9 km/h (3 Bft) 97,87 %
31.03.2017 14:38 20,4 C 49 % 1017,1 hPa 0,0 l/m 6,5 km/h (2 Bft) O-SO 111 2 min 0,000 mm 3,0 UV-I 684 W/m 9,3 C 20,4 C 11,3 km/h (2 Bft) 100,00 %
31.03.2017 14:40 20,3 C 51 % 1017,1 hPa 0,0 l/m 6,3 km/h (2 Bft) O-NO 59 2 min 0,000 mm 3,0 UV-I 678 W/m 9,8 C 20,3 C 14,5 km/h (3 Bft) 100,00 %
31.03.2017 14:42 20,4 C 51 % 1017,0 hPa 0,0 l/m 8,9 km/h (2 Bft) O-NO 71 2 min 0,000 mm 2,9 UV-I 668 W/m 9,9 C 19,4 C 14,5 km/h (3 Bft) 100,00 %
31.03.2017 14:44 20,6 C 49 % 1017,0 hPa 0,0 l/m 7,0 km/h (2 Bft) O 101 2 min 0,000 mm 2,9 UV-I 668 W/m 9,5 C 20,4 C 9,7 km/h (2 Bft) 100,00 %
31.03.2017 14:46 20,4 C 49 % 1017,0 hPa 0,0 l/m 6,5 km/h (2 Bft) O 85 2 min 0,000 mm 2,9 UV-I 668 W/m 9,3 C 20,4 C 11,3 km/h (2 Bft) 100,00 %
31.03.2017 14:48 20,6 C 52 % 1017,0 hPa 0,0 l/m 6,5 km/h (2 Bft) O-NO 75 2 min 0,000 mm 2,9 UV-I 665 W/m 10,4 C 20,6 C 11,3 km/h (2 Bft) 100,00 %
31.03.2017 14:50 20,7 C 50 % 1016,9 hPa 0,0 l/m 6,6 km/h (2 Bft) O-NO 70 2 min 0,000 mm 2,8 UV-I 661 W/m 9,9 C 20,6 C 12,9 km/h (3 Bft) 97,14 %
31.03.2017 14:52 20,7 C 49 % 1016,9 hPa 0,0 l/m 4,9 km/h (1 Bft) O-NO 69 2 min 0,000 mm 2,8 UV-I 659 W/m 9,6 C 20,7 C 8,0 km/h (2 Bft) 98,00 %
31.03.2017 14:54 20,7 C 48 % 1016,9 hPa 0,0 l/m 5,5 km/h (1 Bft) O-NO 57 2 min 0,000 mm 2,8 UV-I 656 W/m 9,3 C 20,7 C 8,0 km/h (2 Bft) 100,00 %
31.03.2017 14:56 20,8 C 49 % 1016,9 hPa 0,0 l/m 4,7 km/h (1 Bft) NO 53 2 min 0,000 mm 2,7 UV-I 650 W/m 9,7 C 20,8 C 6,4 km/h (2 Bft) 100,00 %
31.03.2017 14:58 20,9 C 48 % 1016,9 hPa 0,0 l/m 7,8 km/h (2 Bft) NO 45 2 min 0,000 mm 2,7 UV-I 646 W/m 9,5 C 20,4 C 12,9 km/h (3 Bft) 97,87 %
31.03.2017 15:00 20,9 C 48 % 1016,9 hPa 0,0 l/m 5,9 km/h (2 Bft) O-NO 57 2 min 0,432 mm 2,7 UV-I 640 W/m 9,5 C 20,9 C 9,7 km/h (2 Bft) 100,00 %
31.03.2017 15:02 21,0 C 50 % 1016,9 hPa 0,0 l/m 4,7 km/h (1 Bft) O-NO 71 2 min 0,000 mm 2,6 UV-I 635 W/m 10,2 C 21,0 C 8,0 km/h (2 Bft) 93,62 %
31.03.2017 15:04 20,9 C 48 % 1016,8 hPa 0,0 l/m 2,4 km/h (1 Bft) O-NO 71 2 min 0,000 mm 2,6 UV-I 634 W/m 9,5 C 20,9 C 4,8 km/h (1 Bft) 100,00 %
31.03.2017 15:06 20,9 C 50 % 1016,8 hPa 0,0 l/m 2,1 km/h (1 Bft) O-NO 71 2 min 0,000 mm 2,6 UV-I 637 W/m 10,1 C 20,9 C 6,4 km/h (2 Bft) 100,00 %
31.03.2017 15:08 20,9 C 48 % 1016,8 hPa 0,0 l/m 8,3 km/h (2 Bft) NO 56 2 min 0,000 mm 2,6 UV-I 635 W/m 9,5 C 20,2 C 12,9 km/h (3 Bft) 97,87 %
31.03.2017 15:10 21,1 C 47 % 1016,7 hPa 0,0 l/m 7,4 km/h (2 Bft) NO 37 2 min 0,000 mm 2,6 UV-I 630 W/m 9,3 C 20,7 C 9,7 km/h (2 Bft) 97,37 %
31.03.2017 15:12 21,0 C 48 % 1016,7 hPa 0,0 l/m 2,7 km/h (1 Bft) NO 40 2 min 0,000 mm 2,5 UV-I 625 W/m 9,6 C 21,0 C 8,0 km/h (2 Bft) 97,87 %
31.03.2017 15:14 20,9 C 51 % 1016,7 hPa 0,0 l/m 5,7 km/h (1 Bft) NO 36 2 min 0,000 mm 2,5 UV-I 622 W/m 10,4 C 20,9 C 9,7 km/h (2 Bft) 100,00 %
31.03.2017 15:16 21,1 C 51 % 1016,7 hPa 0,0 l/m 5,8 km/h (2 Bft) N-NO 32 2 min 0,000 mm 2,5 UV-I 618 W/m 10,6 C 21,1 C 8,0 km/h (2 Bft) 100,00 %
31.03.2017 15:18 21,2 C 48 % 1016,7 hPa 0,0 l/m 8,1 km/h (2 Bft) NO 55 2 min 0,000 mm 2,4 UV-I 615 W/m 9,7 C 20,6 C 12,9 km/h (3 Bft) 100,00 %
31.03.2017 15:20 21,2 C 49 % 1016,7 hPa 0,0 l/m 8,0 km/h (2 Bft) O-NO 76 2 min 0,000 mm 2,4 UV-I 614 W/m 10,1 C 20,6 C 12,9 km/h (3 Bft) 100,00 %
31.03.2017 15:22 21,3 C 48 % 1016,6 hPa 0,0 l/m 6,9 km/h (2 Bft) NO 55 2 min 0,000 mm 2,4 UV-I 607 W/m 9,8 C 21,1 C 14,5 km/h (3 Bft) 100,00 %
31.03.2017 15:24 21,4 C 46 % 1016,6 hPa 0,0 l/m 8,7 km/h (2 Bft) O-NO 72 2 min 0,000 mm 2,3 UV-I 602 W/m 9,3 C 20,6 C 14,5 km/h (3 Bft) 100,00 %
31.03.2017 15:26 21,2 C 45 % 1016,5 hPa 0,0 l/m 5,4 km/h (1 Bft) O-SO 117 2 min 0,000 mm 2,3 UV-I 597 W/m 8,8 C 21,2 C 8,0 km/h (2 Bft) 97,87 %
31.03.2017 15:28 21,1 C 45 % 1016,5 hPa 0,0 l/m 3,7 km/h (1 Bft) O-SO 107 2 min 0,000 mm 2,3 UV-I 590 W/m 8,7 C 21,1 C 6,4 km/h (2 Bft) 100,00 %
31.03.2017 15:30 20,9 C 47 % 1016,5 hPa 0,0 l/m 3,4 km/h (1 Bft) O-SO 117 2 min 0,000 mm 2,3 UV-I 595 W/m 9,2 C 20,9 C 4,8 km/h (1 Bft) 94,34 %
31.03.2017 15:32 21,0 C 48 % 1016,4 hPa 0,0 l/m 1,0 km/h (0 Bft) O-NO 69 2 min 0,000 mm 2,2 UV-I 591 W/m 9,6 C 21,0 C 4,8 km/h (1 Bft) 98,00 %
31.03.2017 15:34 21,3 C 51 % 1016,5 hPa 0,0 l/m 7,7 km/h (2 Bft) O-NO 65 2 min 0,000 mm 2,2 UV-I 585 W/m 10,7 C 20,8 C 14,5 km/h (3 Bft) 97,96 %
31.03.2017 15:36 21,4 C 46 % 1016,5 hPa 0,0 l/m 6,6 km/h (2 Bft) O-NO 76 2 min 0,000 mm 2,2 UV-I 576 W/m 9,3 C 21,3 C 12,9 km/h (3 Bft) 95,74 %
31.03.2017 15:38 21,2 C 48 % 1016,4 hPa 0,0 l/m 5,6 km/h (1 Bft) SO 142 2 min 0,000 mm 2,2 UV-I 573 W/m 9,7 C 21,2 C 9,7 km/h (2 Bft) 95,74 %
31.03.2017 15:40 21,3 C 52 % 1016,4 hPa 0,0 l/m 5,1 km/h (1 Bft) NO 43 2 min 0,000 mm 2,1 UV-I 575 W/m 11,0 C 21,3 C 8,0 km/h (2 Bft) 97,87 %
31.03.2017 15:42 21,4 C 49 % 1016,3 hPa 0,0 l/m 3,1 km/h (1 Bft) NO 44 2 min 0,000 mm 2,1 UV-I 569 W/m 10,2 C 21,4 C 4,8 km/h (1 Bft) 95,74 %
31.03.2017 15:44 21,4 C 46 % 1016,3 hPa 0,0 l/m 7,7 km/h (2 Bft) O-NO 70 2 min 0,000 mm 2,1 UV-I 564 W/m 9,3 C 20,9 C 12,9 km/h (3 Bft) 95,74 %
31.03.2017 15:46 21,4 C 47 % 1016,2 hPa 0,0 l/m 5,8 km/h (2 Bft) O 92 2 min 0,000 mm 2,0 UV-I 561 W/m 9,6 C 21,4 C 14,5 km/h (3 Bft) 97,87 %
31.03.2017 15:48 21,5 C 48 % 1016,2 hPa 0,0 l/m 10,5 km/h (2 Bft) NO 44 2 min 0,000 mm 2,0 UV-I 554 W/m 10,0 C 20,2 C 14,5 km/h (3 Bft) 97,87 %
31.03.2017 15:50 21,5 C 45 % 1016,2 hPa 0,0 l/m 8,7 km/h (2 Bft) NO 44 2 min 0,000 mm 2,0 UV-I 551 W/m 9,1 C 20,7 C 12,9 km/h (3 Bft) 97,87 %
31.03.2017 15:52 21,5 C 46 % 1016,2 hPa 0,0 l/m 5,0 km/h (1 Bft) NO 39 2 min 0,000 mm 1,9 UV-I 547 W/m 9,4 C 21,5 C 8,0 km/h (2 Bft) 96,00 %
31.03.2017 15:54 21,6 C 46 % 1016,2 hPa 0,0 l/m 6,3 km/h (2 Bft) O-NO 75 2 min 0,000 mm 1,9 UV-I 537 W/m 9,5 C 21,6 C 14,5 km/h (3 Bft) 97,37 %
31.03.2017 15:56 21,5 C 47 % 1016,1 hPa 0,0 l/m 8,4 km/h (2 Bft) O-NO 69 2 min 0,000 mm 1,9 UV-I 534 W/m 9,7 C 20,8 C 12,9 km/h (3 Bft) 97,92 %
31.03.2017 15:58 21,6 C 45 % 1016,1 hPa 0,0 l/m 8,0 km/h (2 Bft) NO 51 2 min 0,000 mm 1,8 UV-I 536 W/m 9,2 C 21,0 C 12,9 km/h (3 Bft) 97,87 %
31.03.2017 16:00 21,7 C 45 % 1016,1 hPa 0,0 l/m 6,6 km/h (2 Bft) O 80 2 min 0,000 mm 1,8 UV-I 532 W/m 9,2 C 21,6 C 11,3 km/h (2 Bft) 100,00 %
31.03.2017 16:02 21,7 C 44 % 1016,1 hPa 0,0 l/m 8,8 km/h (2 Bft) O 82 2 min 0,407 mm 1,8 UV-I 518 W/m 8,9 C 20,9 C 14,5 km/h (3 Bft) 100,00 %
31.03.2017 16:04 21,7 C 45 % 1016,0 hPa 0,0 l/m 6,2 km/h (2 Bft) NO 48 2 min 0,000 mm 1,7 UV-I 470 W/m 9,2 C 21,7 C 11,3 km/h (2 Bft) 93,62 %
31.03.2017 16:06 21,8 C 47 % 1016,0 hPa 0,0 l/m 5,6 km/h (1 Bft) N-NO 28 2 min 0,000 mm 1,7 UV-I 481 W/m 10,0 C 21,8 C 9,7 km/h (2 Bft) 100,00 %
31.03.2017 16:08 21,7 C 51 % 1015,9 hPa 0,0 l/m 4,9 km/h (1 Bft) NO 50 2 min 0,000 mm 1,7 UV-I 511 W/m 11,1 C 21,7 C 12,9 km/h (3 Bft) 94,00 %
31.03.2017 16:10 21,8 C 47 % 1015,9 hPa 0,0 l/m 9,6 km/h (2 Bft) NO 56 2 min 0,000 mm 1,6 UV-I 506 W/m 10,0 C 20,7 C 14,5 km/h (3 Bft) 98,00 %
31.03.2017 16:12 21,8 C 45 % 1015,8 hPa 0,0 l/m 9,9 km/h (2 Bft) O-NO 59 2 min 0,000 mm 1,6 UV-I 501 W/m 9,3 C 20,7 C 14,5 km/h (3 Bft) 100,00 %
31.03.2017 16:14 21,9 C 46 % 1015,8 hPa 0,0 l/m 6,4 km/h (2 Bft) NO 43 2 min 0,000 mm 1,6 UV-I 495 W/m 9,7 C 21,9 C 9,7 km/h (2 Bft) 100,00 %
31.03.2017 16:16 21,9 C 48 % 1015,8 hPa 0,0 l/m 5,4 km/h (1 Bft) O-NO 58 2 min 0,000 mm 1,5 UV-I 488 W/m 10,4 C 21,9 C 11,3 km/h (2 Bft) 100,00 %
31.03.2017 16:18 22,0 C 46 % 1015,7 hPa 0,0 l/m 6,7 km/h (2 Bft) NO 44 2 min 0,000 mm 1,5 UV-I 484 W/m 9,8 C 21,9 C 11,3 km/h (2 Bft) 97,87 %
31.03.2017 16:20 22,0 C 49 % 1015,7 hPa 0,0 l/m 7,0 km/h (2 Bft) NO 42 2 min 0,000 mm 1,5 UV-I 478 W/m 10,8 C 21,8 C 9,7 km/h (2 Bft) 100,00 %
31.03.2017 16:22 22,0 C 45 % 1015,7 hPa 0,0 l/m 6,4 km/h (2 Bft) NO 52 2 min 0,000 mm 1,5 UV-I 472 W/m 9,5 C 22,0 C 12,9 km/h (3 Bft) 97,87 %
31.03.2017 16:24 22,1 C 45 % 1015,6 hPa 0,0 l/m 9,9 km/h (2 Bft) O-NO 61 2 min 0,000 mm 1,4 UV-I 467 W/m 9,6 C 21,0 C 14,5 km/h (3 Bft) 100,00 %
31.03.2017 16:26 22,1 C 44 % 1015,6 hPa 0,0 l/m 10,7 km/h (2 Bft) NO 42 2 min 0,000 mm 1,4 UV-I 464 W/m 9,3 C 20,8 C 14,5 km/h (3 Bft) 100,00 %
31.03.2017 16:28 21,9 C 46 % 1015,6 hPa 0,0 l/m 9,1 km/h (2 Bft) NO 51 2 min 0,000 mm 1,4 UV-I 456 W/m 9,7 C 21,0 C 14,5 km/h (3 Bft) 96,00 %
31.03.2017 16:30 21,8 C 48 % 1015,6 hPa 0,0 l/m 4,8 km/h (1 Bft) NO 49 2 min 0,000 mm 1,3 UV-I 448 W/m 10,3 C 21,8 C 6,4 km/h (2 Bft) 100,00 %
31.03.2017 16:32 21,9 C 45 % 1015,5 hPa 0,0 l/m 7,0 km/h (2 Bft) O-NO 59 2 min 0,000 mm 1,3 UV-I 443 W/m 9,4 C 21,7 C 11,3 km/h (2 Bft) 100,00 %
31.03.2017 16:34 21,9 C 43 % 1015,5 hPa 0,0 l/m 10,7 km/h (2 Bft) NO 47 2 min 0,000 mm 1,3 UV-I 438 W/m 8,7 C 20,5 C 16,1 km/h (3 Bft) 100,00 %
31.03.2017 16:36 21,9 C 43 % 1015,5 hPa 0,0 l/m 9,9 km/h (2 Bft) O-NO 59 2 min 0,000 mm 1,3 UV-I 431 W/m 8,7 C 20,8 C 14,5 km/h (3 Bft) 97,87 %
31.03.2017 16:38 21,9 C 42 % 1015,5 hPa 0,0 l/m 6,1 km/h (2 Bft) O 83 2 min 0,000 mm 1,2 UV-I 427 W/m 8,4 C 21,9 C 11,3 km/h (2 Bft) 100,00 %
31.03.2017 16:40 22,0 C 43 % 1015,4 hPa 0,0 l/m 4,6 km/h (1 Bft) NO 50 2 min 0,000 mm 1,2 UV-I 421 W/m 8,8 C 22,0 C 9,7 km/h (2 Bft) 97,92 %
31.03.2017 16:42 22,1 C 47 % 1015,4 hPa 0,0 l/m 10,0 km/h (2 Bft) NO 44 2 min 0,000 mm 1,2 UV-I 415 W/m 10,3 C 21,0 C 16,1 km/h (3 Bft) 100,00 %
31.03.2017 16:44 21,9 C 45 % 1015,4 hPa 0,0 l/m 5,0 km/h (1 Bft) NO 44 2 min 0,000 mm 1,2 UV-I 411 W/m 9,4 C 21,9 C 8,0 km/h (2 Bft) 100,00 %
31.03.2017 16:46 21,9 C 42 % 1015,4 hPa 0,0 l/m 4,0 km/h (1 Bft) O-NO 65 2 min 0,000 mm 1,1 UV-I 408 W/m 8,4 C 21,9 C 6,4 km/h (2 Bft) 100,00 %
31.03.2017 16:48 22,0 C 44 % 1015,3 hPa 0,0 l/m 8,6 km/h (2 Bft) O-NO 74 2 min 0,000 mm 1,1 UV-I 402 W/m 9,2 C 21,3 C 14,5 km/h (3 Bft) 97,87 %
31.03.2017 16:50 22,0 C 46 % 1015,3 hPa 0,0 l/m 7,1 km/h (2 Bft) O 90 2 min 0,000 mm 1,1 UV-I 395 W/m 9,8 C 21,8 C 11,3 km/h (2 Bft) 100,00 %
31.03.2017 16:52 22,0 C 45 % 1015,2 hPa 0,0 l/m 7,2 km/h (2 Bft) NO 46 2 min 0,000 mm 1,0 UV-I 390 W/m 9,5 C 21,7 C 11,3 km/h (2 Bft) 97,37 %
31.03.2017 16:54 22,0 C 46 % 1015,3 hPa 0,0 l/m 4,5 km/h (1 Bft) NO 37 2 min 0,000 mm 1,0 UV-I 382 W/m 9,8 C 22,0 C 6,4 km/h (2 Bft) 97,87 %
31.03.2017 16:56 22,1 C 46 % 1015,2 hPa 0,0 l/m 6,4 km/h (2 Bft) NO 49 2 min 0,000 mm 1,0 UV-I 376 W/m 9,9 C 22,1 C 11,3 km/h (2 Bft) 100,00 %
31.03.2017 16:58 22,1 C 47 % 1015,2 hPa 0,0 l/m 5,2 km/h (1 Bft) NO 46 2 min 0,000 mm 1,0 UV-I 370 W/m 10,3 C 22,1 C 9,7 km/h (2 Bft) 97,87 %
31.03.2017 17:00 22,2 C 43 % 1015,2 hPa 0,0 l/m 7,4 km/h (2 Bft) O-NO 71 2 min 0,330 mm 0,9 UV-I 355 W/m 9,0 C 21,9 C 12,9 km/h (3 Bft) 100,00 %
31.03.2017 17:02 22,0 C 42 % 1015,1 hPa 0,0 l/m 8,5 km/h (2 Bft) O-NO 65 2 min 0,000 mm 0,9 UV-I 337 W/m 8,5 C 21,3 C 16,1 km/h (3 Bft) 100,00 %
31.03.2017 17:04 21,9 C 43 % 1015,1 hPa 0,0 l/m 7,8 km/h (2 Bft) O-NO 71 2 min 0,000 mm 0,9 UV-I 348 W/m 8,7 C 21,4 C 12,9 km/h (3 Bft) 100,00 %
31.03.2017 17:06 21,9 C 42 % 1015,1 hPa 0,0 l/m 5,5 km/h (1 Bft) O-NO 57 2 min 0,000 mm 0,9 UV-I 346 W/m 8,4 C 21,9 C 9,7 km/h (2 Bft) 100,00 %
31.03.2017 17:08 22,0 C 44 % 1015,1 hPa 0,0 l/m 6,6 km/h (2 Bft) NO 38 2 min 0,000 mm 0,8 UV-I 341 W/m 9,2 C 21,9 C 11,3 km/h (2 Bft) 97,87 %
31.03.2017 17:10 21,9 C 48 % 1015,0 hPa 0,0 l/m 8,4 km/h (2 Bft) NO 44 2 min 0,000 mm 0,8 UV-I 338 W/m 10,4 C 21,2 C 14,5 km/h (3 Bft) 97,87 %
31.03.2017 17:12 21,8 C 45 % 1015,0 hPa 0,0 l/m 8,9 km/h (2 Bft) O-NO 63 2 min 0,000 mm 0,8 UV-I 334 W/m 9,3 C 21,0 C 12,9 km/h (3 Bft) 100,00 %
31.03.2017 17:14 21,8 C 45 % 1015,0 hPa 0,0 l/m 7,9 km/h (2 Bft) O-NO 61 2 min 0,000 mm 0,8 UV-I 324 W/m 9,3 C 21,3 C 11,3 km/h (2 Bft) 98,00 %
31.03.2017 17:16 21,8 C 45 % 1015,0 hPa 0,0 l/m 6,3 km/h (2 Bft) NO 42 2 min 0,000 mm 0,7 UV-I 318 W/m 9,3 C 21,8 C 8,0 km/h (2 Bft) 100,00 %
31.03.2017 17:18 21,8 C 47 % 1015,0 hPa 0,0 l/m 8,6 km/h (2 Bft) O-NO 71 2 min 0,000 mm 0,7 UV-I 315 W/m 10,0 C 21,0 C 12,9 km/h (3 Bft) 100,00 %
31.03.2017 17:20 21,9 C 45 % 1015,0 hPa 0,0 l/m 10,4 km/h (2 Bft) O-NO 63 2 min 0,000 mm 0,7 UV-I 309 W/m 9,4 C 20,6 C 14,5 km/h (3 Bft) 97,87 %
31.03.2017 17:22 21,8 C 44 % 1014,9 hPa 0,0 l/m 9,3 km/h (2 Bft) O-NO 65 2 min 0,000 mm 0,7 UV-I 302 W/m 9,0 C 20,8 C 14,5 km/h (3 Bft) 97,87 %
31.03.2017 17:24 21,8 C 43 % 1014,9 hPa 0,0 l/m 9,2 km/h (2 Bft) O-NO 62 2 min 0,000 mm 0,6 UV-I 298 W/m 8,7 C 20,9 C 14,5 km/h (3 Bft) 97,87 %
31.03.2017 17:26 21,8 C 44 % 1014,9 hPa 0,0 l/m 7,7 km/h (2 Bft) O 88 2 min 0,000 mm 0,6 UV-I 290 W/m 9,0 C 21,3 C 12,9 km/h (3 Bft) 93,62 %
31.03.2017 17:28 21,8 C 43 % 1014,8 hPa 0,0 l/m 6,6 km/h (2 Bft) O-NO 74 2 min 0,000 mm 0,6 UV-I 285 W/m 8,7 C 21,7 C 12,9 km/h (3 Bft) 95,74 %
31.03.2017 17:30 21,8 C 45 % 1014,8 hPa 0,0 l/m 7,6 km/h (2 Bft) NO 52 2 min 0,000 mm 0,6 UV-I 279 W/m 9,3 C 21,4 C 11,3 km/h (2 Bft) 97,87 %
31.03.2017 17:32 21,8 C 47 % 1014,8 hPa 0,0 l/m 7,3 km/h (2 Bft) O-NO 67 2 min 0,000 mm 0,6 UV-I 273 W/m 10,0 C 21,5 C 9,7 km/h (2 Bft) 95,74 %
31.03.2017 17:34 21,8 C 46 % 1014,8 hPa 0,0 l/m 8,1 km/h (2 Bft) O-NO 63 2 min 0,000 mm 0,5 UV-I 266 W/m 9,7 C 21,2 C 12,9 km/h (3 Bft) 97,87 %
31.03.2017 17:36 21,9 C 44 % 1014,8 hPa 0,0 l/m 6,8 km/h (2 Bft) O-NO 61 2 min 0,000 mm 0,5 UV-I 260 W/m 9,1 C 21,8 C 12,9 km/h (3 Bft) 95,74 %
31.03.2017 17:38 21,8 C 44 % 1014,8 hPa 0,0 l/m 7,3 km/h (2 Bft) O-NO 77 2 min 0,000 mm 0,5 UV-I 256 W/m 9,0 C 21,5 C 11,3 km/h (2 Bft) 97,87 %
31.03.2017 17:40 21,8 C 44 % 1014,7 hPa 0,0 l/m 9,8 km/h (2 Bft) O-NO 65 2 min 0,000 mm 0,5 UV-I 249 W/m 9,0 C 20,7 C 14,5 km/h (3 Bft) 95,74 %
31.03.2017 17:42 21,8 C 47 % 1014,7 hPa 0,0 l/m 10,2 km/h (2 Bft) O-NO 74 2 min 0,000 mm 0,5 UV-I 242 W/m 10,0 C 20,6 C 14,5 km/h (3 Bft) 96,00 %
31.03.2017 17:44 21,8 C 44 % 1014,7 hPa 0,0 l/m 11,1 km/h (2 Bft) O-NO 71 2 min 0,000 mm 0,2 UV-I 234 W/m 9,0 C 20,3 C 12,9 km/h (3 Bft) 93,62 %
31.03.2017 17:46 21,7 C 43 % 1014,7 hPa 0,0 l/m 11,0 km/h (2 Bft) O-NO 57 2 min 0,000 mm 0,0 UV-I 228 W/m 8,6 C 20,2 C 17,7 km/h (3 Bft) 98,00 %
31.03.2017 17:48 21,7 C 43 % 1014,7 hPa 0,0 l/m 9,2 km/h (2 Bft) NO 56 2 min 0,000 mm 0,0 UV-I 222 W/m 8,6 C 20,8 C 12,9 km/h (3 Bft) 97,14 %
31.03.2017 17:50 21,8 C 44 % 1014,7 hPa 0,0 l/m 7,6 km/h (2 Bft) O-NO 63 2 min 0,000 mm 0,0 UV-I 215 W/m 9,0 C 21,4 C 12,9 km/h (3 Bft) 93,75 %
31.03.2017 17:52 21,7 C 44 % 1014,7 hPa 0,0 l/m 7,4 km/h (2 Bft) NO 55 2 min 0,000 mm 0,0 UV-I 212 W/m 8,9 C 21,3 C 11,3 km/h (2 Bft) 95,74 %
31.03.2017 17:54 21,7 C 45 % 1014,7 hPa 0,0 l/m 6,8 km/h (2 Bft) NO 53 2 min 0,000 mm 0,0 UV-I 205 W/m 9,2 C 21,6 C 9,7 km/h (2 Bft) 94,00 %
31.03.2017 17:56 21,7 C 47 % 1014,7 hPa 0,0 l/m 5,2 km/h (1 Bft) N-NO 26 2 min 0,000 mm 0,0 UV-I 200 W/m 9,9 C 21,7 C 8,0 km/h (2 Bft) 97,87 %
31.03.2017 17:58 21,6 C 46 % 1014,7 hPa 0,0 l/m 6,3 km/h (2 Bft) O-NO 65 2 min 0,000 mm 0,0 UV-I 196 W/m 9,5 C 21,6 C 11,3 km/h (2 Bft) 95,74 %
31.03.2017 18:00 21,6 C 45 % 1014,7 hPa 0,0 l/m 7,2 km/h (2 Bft) O-NO 61 2 min 0,000 mm 0,0 UV-I 192 W/m 9,2 C 21,3 C 9,7 km/h (2 Bft) 98,00 %
31.03.2017 18:02 21,6 C 46 % 1014,6 hPa 0,0 l/m 11,2 km/h (2 Bft) O-NO 76 2 min 0,228 mm 0,0 UV-I 188 W/m 9,5 C 20,1 C 16,1 km/h (3 Bft) 97,87 %
31.03.2017 18:04 21,4 C 46 % 1014,6 hPa 0,0 l/m 12,5 km/h (3 Bft) O-NO 70 2 min 0,000 mm 0,0 UV-I 183 W/m 9,3 C 19,5 C 16,1 km/h (3 Bft) 96,00 %
31.03.2017 18:06 21,3 C 45 % 1014,6 hPa 0,0 l/m 10,1 km/h (2 Bft) O-NO 74 2 min 0,000 mm 0,0 UV-I 178 W/m 8,9 C 20,0 C 14,5 km/h (3 Bft) 97,37 %
31.03.2017 18:08 21,2 C 46 % 1014,6 hPa 0,0 l/m 8,6 km/h (2 Bft) O-NO 67 2 min 0,000 mm 0,0 UV-I 172 W/m 9,1 C 20,4 C 12,9 km/h (3 Bft) 94,00 %
31.03.2017 18:10 21,2 C 45 % 1014,6 hPa 0,0 l/m 7,3 km/h (2 Bft) O-NO 71 2 min 0,000 mm 0,0 UV-I 166 W/m 8,8 C 20,9 C 11,3 km/h (2 Bft) 91,49 %
31.03.2017 18:12 21,2 C 46 % 1014,6 hPa 0,0 l/m 7,1 km/h (2 Bft) O-NO 76 2 min 0,000 mm 0,0 UV-I 161 W/m 9,1 C 20,9 C 11,3 km/h (2 Bft) 97,87 %
31.03.2017 18:14 21,2 C 44 % 1014,6 hPa 0,0 l/m 7,0 km/h (2 Bft) NO 53 2 min 0,000 mm 0,0 UV-I 159 W/m 8,5 C 21,0 C 11,3 km/h (2 Bft) 96,00 %
31.03.2017 18:16 21,2 C 46 % 1014,5 hPa 0,0 l/m 6,5 km/h (2 Bft) O 84 2 min 0,000 mm 0,0 UV-I 153 W/m 9,1 C 21,2 C 11,3 km/h (2 Bft) 97,87 %
31.03.2017 18:18 21,2 C 46 % 1014,5 hPa 0,0 l/m 8,2 km/h (2 Bft) NO 51 2 min 0,000 mm 0,0 UV-I 148 W/m 9,1 C 20,5 C 12,9 km/h (3 Bft) 95,74 %
31.03.2017 18:20 21,2 C 46 % 1014,5 hPa 0,0 l/m 7,7 km/h (2 Bft) O-NO 77 2 min 0,000 mm 0,0 UV-I 144 W/m 9,1 C 20,7 C 12,9 km/h (3 Bft) 97,87 %
31.03.2017 18:22 21,1 C 46 % 1014,5 hPa 0,0 l/m 6,7 km/h (2 Bft) O-NO 72 2 min 0,000 mm 0,0 UV-I 138 W/m 9,0 C 21,0 C 11,3 km/h (2 Bft) 97,56 %
31.03.2017 18:24 21,1 C 47 % 1014,5 hPa 0,0 l/m 7,1 km/h (2 Bft) O 84 2 min 0,000 mm 0,0 UV-I 132 W/m 9,3 C 20,8 C 11,3 km/h (2 Bft) 96,15 %
31.03.2017 18:26 21,0 C 47 % 1014,5 hPa 0,0 l/m 7,0 km/h (2 Bft) O-NO 69 2 min 0,000 mm 0,0 UV-I 127 W/m 9,3 C 20,8 C 11,3 km/h (2 Bft) 97,37 %
31.03.2017 18:28 20,9 C 47 % 1014,5 hPa 0,0 l/m 7,8 km/h (2 Bft) O-NO 58 2 min 0,000 mm 0,0 UV-I 122 W/m 9,2 C 20,4 C 12,9 km/h (3 Bft) 95,74 %
31.03.2017 18:30 20,9 C 47 % 1014,5 hPa 0,0 l/m 6,0 km/h (2 Bft) NO 51 2 min 0,000 mm 0,0 UV-I 118 W/m 9,2 C 20,9 C 8,0 km/h (2 Bft) 97,92 %
31.03.2017 18:32 20,8 C 48 % 1014,4 hPa 0,0 l/m 5,4 km/h (1 Bft) O-NO 62 2 min 0,000 mm 0,0 UV-I 113 W/m 9,4 C 20,8 C 8,0 km/h (2 Bft) 97,92 %
31.03.2017 18:34 20,8 C 49 % 1014,4 hPa 0,0 l/m 5,8 km/h (2 Bft) O-NO 61 2 min 0,000 mm 0,0 UV-I 108 W/m 9,7 C 20,8 C 8,0 km/h (2 Bft) 93,62 %
31.03.2017 18:36 20,7 C 49 % 1014,4 hPa 0,0 l/m 6,1 km/h (2 Bft) O 88 2 min 0,000 mm 0,0 UV-I 102 W/m 9,6 C 20,7 C 11,3 km/h (2 Bft) 93,62 %
31.03.2017 18:38 20,6 C 49 % 1014,4 hPa 0,0 l/m 6,5 km/h (2 Bft) O 86 2 min 0,000 mm 0,0 UV-I 97 W/m 9,5 C 20,6 C 11,3 km/h (2 Bft) 97,87 %
31.03.2017 18:40 20,6 C 48 % 1014,4 hPa 0,0 l/m 4,8 km/h (1 Bft) O-NO 69 2 min 0,000 mm 0,0 UV-I 94 W/m 9,2 C 20,6 C 9,7 km/h (2 Bft) 96,15 %
31.03.2017 18:42 20,5 C 48 % 1014,4 hPa 0,0 l/m 5,6 km/h (1 Bft) O 84 2 min 0,000 mm 0,0 UV-I 90 W/m 9,1 C 20,5 C 11,3 km/h (2 Bft) 95,83 %
31.03.2017 18:44 20,4 C 48 % 1014,4 hPa 0,0 l/m 7,1 km/h (2 Bft) O-NO 77 2 min 0,000 mm 0,0 UV-I 86 W/m 9,0 C 20,1 C 11,3 km/h (2 Bft) 94,29 %
31.03.2017 18:46 20,4 C 47 % 1014,4 hPa 0,0 l/m 6,8 km/h (2 Bft) O-NO 71 2 min 0,000 mm 0,0 UV-I 82 W/m 8,7 C 20,2 C 9,7 km/h (2 Bft) 94,00 %
31.03.2017 18:48 20,3 C 48 % 1014,3 hPa 0,0 l/m 5,5 km/h (1 Bft) O-NO 71 2 min 0,000 mm 0,0 UV-I 78 W/m 8,9 C 20,3 C 8,0 km/h (2 Bft) 93,62 %
31.03.2017 18:50 20,3 C 48 % 1014,4 hPa 0,0 l/m 4,8 km/h (1 Bft) O-NO 69 2 min 0,000 mm 0,0 UV-I 74 W/m 8,9 C 20,3 C 8,0 km/h (2 Bft) 95,92 %
31.03.2017 18:52 20,2 C 49 % 1014,3 hPa 0,0 l/m 6,8 km/h (2 Bft) O-NO 73 2 min 0,000 mm 0,0 UV-I 70 W/m 9,1 C 20,0 C 9,7 km/h (2 Bft) 94,00 %
31.03.2017 18:54 20,2 C 49 % 1014,3 hPa 0,0 l/m 5,2 km/h (1 Bft) O-NO 74 2 min 0,000 mm 0,0 UV-I 63 W/m 9,1 C 20,2 C 8,0 km/h (2 Bft) 93,62 %
31.03.2017 18:56 20,1 C 50 % 1014,4 hPa 0,0 l/m 6,8 km/h (2 Bft) O 88 2 min 0,000 mm 0,0 UV-I 60 W/m 9,3 C 19,9 C 11,3 km/h (2 Bft) 93,62 %
31.03.2017 18:58 20,0 C 51 % 1014,4 hPa 0,0 l/m 4,7 km/h (1 Bft) O 82 2 min 0,000 mm 0,0 UV-I 55 W/m 9,6 C 20,0 C 8,0 km/h (2 Bft) 95,74 %
31.03.2017 19:00 19,8 C 52 % 1014,3 hPa 0,0 l/m 5,0 km/h (1 Bft) O 82 2 min 0,000 mm 0,0 UV-I 51 W/m 9,7 C 19,8 C 6,4 km/h (2 Bft) 95,92 %
31.03.2017 19:02 19,7 C 52 % 1014,3 hPa 0,0 l/m 4,2 km/h (1 Bft) O 90 2 min 0,127 mm 0,0 UV-I 47 W/m 9,6 C 19,7 C 6,4 km/h (2 Bft) 97,37 %
31.03.2017 19:04 19,6 C 53 % 1014,3 hPa 0,0 l/m 5,3 km/h (1 Bft) O-NO 78 2 min 0,000 mm 0,0 UV-I 43 W/m 9,8 C 19,6 C 9,7 km/h (2 Bft) 95,74 %
31.03.2017 19:06 19,5 C 53 % 1014,3 hPa 0,0 l/m 5,7 km/h (1 Bft) O 89 2 min 0,000 mm 0,0 UV-I 39 W/m 9,7 C 19,5 C 8,0 km/h (2 Bft) 94,00 %
31.03.2017 19:08 19,5 C 53 % 1014,3 hPa 0,0 l/m 4,9 km/h (1 Bft) O-NO 73 2 min 0,000 mm 0,0 UV-I 33 W/m 9,7 C 19,5 C 6,4 km/h (2 Bft) 96,23 %
31.03.2017 19:10 19,6 C 53 % 1014,3 hPa 0,0 l/m 4,2 km/h (1 Bft) O-NO 73 2 min 0,000 mm 0,0 UV-I 32 W/m 9,8 C 19,6 C 6,4 km/h (2 Bft) 97,22 %
31.03.2017 19:12 19,6 C 53 % 1014,2 hPa 0,0 l/m 4,4 km/h (1 Bft) O-NO 65 2 min 0,000 mm 0,0 UV-I 29 W/m 9,8 C 19,6 C 6,4 km/h (2 Bft) 96,00 %
31.03.2017 19:14 19,6 C 53 % 1014,3 hPa 0,0 l/m 6,1 km/h (2 Bft) O-NO 76 2 min 0,000 mm 0,0 UV-I 26 W/m 9,8 C 19,6 C 8,0 km/h (2 Bft) 93,62 %
31.03.2017 19:16 19,4 C 53 % 1014,2 hPa 0,0 l/m 5,0 km/h (1 Bft) O-NO 76 2 min 0,000 mm 0,0 UV-I 24 W/m 9,6 C 19,4 C 8,0 km/h (2 Bft) 96,00 %
31.03.2017 19:18 19,4 C 54 % 1014,2 hPa 0,0 l/m 4,5 km/h (1 Bft) O-NO 57 2 min 0,000 mm 0,0 UV-I 19 W/m 9,8 C 19,4 C 6,4 km/h (2 Bft) 91,84 %
31.03.2017 19:20 19,3 C 54 % 1014,2 hPa 0,0 l/m 4,9 km/h (1 Bft) O 82 2 min 0,000 mm 0,0 UV-I 16 W/m 9,8 C 19,3 C 6,4 km/h (2 Bft) 100,00 %
31.03.2017 19:22 19,2 C 54 % 1014,2 hPa 0,0 l/m 5,0 km/h (1 Bft) O 86 2 min 0,000 mm 0,0 UV-I 14 W/m 9,7 C 19,2 C 6,4 km/h (2 Bft) 95,16 %
31.03.2017 19:24 19,1 C 54 % 1014,2 hPa 0,0 l/m 3,9 km/h (1 Bft) NO 56 0 min 0,000 mm 0,0 UV-I 12 W/m 9,6 C 19,1 C 6,4 km/h (2 Bft) 95,74 %
31.03.2017 19:26 19,0 C 55 % 1014,2 hPa 0,0 l/m 4,2 km/h (1 Bft) O-NO 65 0 min 0,000 mm 0,0 UV-I 11 W/m 9,8 C 19,0 C 4,8 km/h (1 Bft) 91,49 %
31.03.2017 19:28 18,9 C 55 % 1014,1 hPa 0,0 l/m 3,1 km/h (1 Bft) O-NO 65 0 min 0,000 mm 0,0 UV-I 11 W/m 9,7 C 18,9 C 4,8 km/h (1 Bft) 93,88 %
31.03.2017 19:30 18,8 C 55 % 1014,1 hPa 0,0 l/m 3,5 km/h (1 Bft) O-NO 65 0 min 0,000 mm 0,0 UV-I 10 W/m 9,6 C 18,8 C 4,8 km/h (1 Bft) 88,00 %
31.03.2017 19:32 18,8 C 55 % 1014,1 hPa 0,0 l/m 3,7 km/h (1 Bft) O-NO 65 0 min 0,000 mm 0,0 UV-I 9 W/m 9,6 C 18,8 C 4,8 km/h (1 Bft) 98,00 %
31.03.2017 19:34 18,7 C 55 % 1014,1 hPa 0,0 l/m 3,7 km/h (1 Bft) O-NO 65 0 min 0,000 mm 0,0 UV-I 7 W/m 9,5 C 18,7 C 4,8 km/h (1 Bft) 95,74 %
31.03.2017 19:36 18,7 C 55 % 1014,1 hPa 0,0 l/m 3,7 km/h (1 Bft) O-NO 65 0 min 0,000 mm 0,0 UV-I 7 W/m 9,5 C 18,7 C 6,4 km/h (2 Bft) 91,43 %
31.03.2017 19:38 18,6 C 56 % 1014,0 hPa 0,0 l/m 3,1 km/h (1 Bft) O-NO 65 0 min 0,000 mm 0,0 UV-I 5 W/m 9,6 C 18,6 C 4,8 km/h (1 Bft) 94,34 %
31.03.2017 19:40 18,5 C 56 % 1014,0 hPa 0,0 l/m 3,6 km/h (1 Bft) O-NO 65 0 min 0,000 mm 0,0 UV-I 5 W/m 9,6 C 18,5 C 4,8 km/h (1 Bft) 93,62 %
31.03.2017 19:42 18,4 C 56 % 1014,0 hPa 0,0 l/m 3,5 km/h (1 Bft) O-NO 65 0 min 0,000 mm 0,0 UV-I 5 W/m 9,5 C 18,4 C 4,8 km/h (1 Bft) 93,62 %
31.03.2017 19:44 18,3 C 57 % 1014,0 hPa 0,0 l/m 3,5 km/h (1 Bft) O-NO 65 0 min 0,000 mm 0,0 UV-I 5 W/m 9,6 C 18,3 C 4,8 km/h (1 Bft) 94,00 %
31.03.2017 19:46 18,3 C 57 % 1014,0 hPa 0,0 l/m 3,5 km/h (1 Bft) O-NO 65 0 min 0,000 mm 0,0 UV-I 0 W/m 9,6 C 18,3 C 4,8 km/h (1 Bft) 94,87 %
31.03.2017 19:48 18,2 C 57 % 1014,0 hPa 0,0 l/m 3,6 km/h (1 Bft) O-NO 65 0 min 0,000 mm 0,0 UV-I 0 W/m 9,5 C 18,2 C 4,8 km/h (1 Bft) 95,92 %
31.03.2017 19:50 18,0 C 58 % 1014,0 hPa 0,0 l/m 3,4 km/h (1 Bft) O-NO 65 0 min 0,000 mm 0,0 UV-I 0 W/m 9,6 C 18,0 C 4,8 km/h (1 Bft) 93,75 %
31.03.2017 19:52 17,9 C 58 % 1013,9 hPa 0,0 l/m 3,4 km/h (1 Bft) O-NO 65 0 min 0,000 mm 0,0 UV-I 0 W/m 9,5 C 17,9 C 4,8 km/h (1 Bft) 96,00 %
31.03.2017 19:54 17,8 C 58 % 1013,9 hPa 0,0 l/m 3,7 km/h (1 Bft) O-NO 65 0 min 0,000 mm 0,0 UV-I 0 W/m 9,4 C 17,8 C 4,8 km/h (1 Bft) 96,00 %
31.03.2017 19:56 17,7 C 59 % 1013,9 hPa 0,0 l/m 3,6 km/h (1 Bft) O-NO 65 0 min 0,000 mm 0,0 UV-I 0 W/m 9,6 C 17,7 C 4,8 km/h (1 Bft) 97,37 %
31.03.2017 19:58 17,7 C 59 % 1013,9 hPa 0,0 l/m 3,7 km/h (1 Bft) O-NO 65 0 min 0,000 mm 0,0 UV-I 0 W/m 9,6 C 17,7 C 4,8 km/h (1 Bft) 97,87 %
31.03.2017 20:00 17,7 C 59 % 1013,9 hPa 0,0 l/m 3,3 km/h (1 Bft) O-NO 65 0 min 0,000 mm 0,0 UV-I 0 W/m 9,6 C 17,7 C 4,8 km/h (1 Bft) 100,00 %
31.03.2017 20:02 17,7 C 59 % 1013,9 hPa 0,0 l/m 3,3 km/h (1 Bft) O-NO 65 0 min 0,051 mm 0,0 UV-I 0 W/m 9,6 C 17,7 C 4,8 km/h (1 Bft) 100,00 %
31.03.2017 20:04 17,7 C 59 % 1013,9 hPa 0,0 l/m 3,0 km/h (1 Bft) O-NO 65 0 min 0,000 mm 0,0 UV-I 0 W/m 9,6 C 17,7 C 3,2 km/h (1 Bft) 95,74 %
31.03.2017 20:06 17,6 C 60 % 1013,9 hPa 0,0 l/m 3,1 km/h (1 Bft) O-NO 65 0 min 0,000 mm 0,0 UV-I 0 W/m 9,7 C 17,6 C 3,2 km/h (1 Bft) 100,00 %
31.03.2017 20:08 17,3 C 60 % 1013,9 hPa 0,0 l/m 2,3 km/h (1 Bft) O-NO 65 0 min 0,000 mm 0,0 UV-I 0 W/m 9,5 C 17,3 C 3,2 km/h (1 Bft) 100,00 %
31.03.2017 20:10 17,3 C 60 % 1013,9 hPa 0,0 l/m 2,0 km/h (1 Bft) O-NO 65 0 min 0,000 mm 0,0 UV-I 0 W/m 9,5 C 17,3 C 3,2 km/h (1 Bft) 97,87 %
31.03.2017 20:12 17,4 C 60 % 1013,9 hPa 0,0 l/m 1,6 km/h (1 Bft) O-NO 65 0 min 0,000 mm 0,0 UV-I 0 W/m 9,6 C 17,4 C 3,2 km/h (1 Bft) 100,00 %
31.03.2017 20:14 17,5 C 60 % 1014,0 hPa 0,0 l/m 1,9 km/h (1 Bft) O-NO 65 0 min 0,000 mm 0,0 UV-I 0 W/m 9,6 C 17,5 C 3,2 km/h (1 Bft) 100,00 %
31.03.2017 20:16 17,6 C 59 % 1014,0 hPa 0,0 l/m 1,0 km/h (0 Bft) O-NO 65 0 min 0,000 mm 0,0 UV-I 0 W/m 9,5 C 17,6 C 1,6 km/h (1 Bft) 97,87 %
31.03.2017 20:18 17,6 C 59 % 1014,0 hPa 0,0 l/m 0,7 km/h (0 Bft) O-NO 65 0 min 0,000 mm 0,0 UV-I 0 W/m 9,5 C 17,6 C 1,6 km/h (1 Bft) 100,00 %
31.03.2017 20:20 17,3 C 60 % 1014,0 hPa 0,0 l/m 0,4 km/h (0 Bft) O-NO 65 0 min 0,000 mm 0,0 UV-I 0 W/m 9,5 C 17,3 C 1,6 km/h (1 Bft) 100,00 %
31.03.2017 20:22 16,8 C 61 % 1014,0 hPa 0,0 l/m 0,9 km/h (0 Bft) O-NO 65 0 min 0,000 mm 0,0 UV-I 0 W/m 9,2 C 16,8 C 1,6 km/h (1 Bft) 98,00 %
31.03.2017 20:24 16,5 C 63 % 1014,0 hPa 0,0 l/m 0,0 km/h (0 Bft) O-NO 65 0 min 0,000 mm 0,0 UV-I 0 W/m 9,4 C 16,5 C 0,0 km/h (0 Bft) 100,00 %
31.03.2017 20:26 16,2 C 65 % 1014,0 hPa 0,0 l/m 0,0 km/h (0 Bft) O-NO 65 0 min 0,000 mm 0,0 UV-I 0 W/m 9,6 C 16,2 C 0,0 km/h (0 Bft) 100,00 %
31.03.2017 20:28 16,1 C 65 % 1014,0 hPa 0,0 l/m 0,3 km/h (0 Bft) O-NO 65 0 min 0,000 mm 0,0 UV-I 0 W/m 9,5 C 16,1 C 1,6 km/h (1 Bft) 100,00 %
31.03.2017 20:30 16,1 C 65 % 1014,0 hPa 0,0 l/m 0,9 km/h (0 Bft) O-NO 65 0 min 0,000 mm 0,0 UV-I 0 W/m 9,5 C 16,1 C 1,6 km/h (1 Bft) 100,00 %
31.03.2017 20:32 16,2 C 65 % 1014,0 hPa 0,0 l/m 0,7 km/h (0 Bft) O-NO 65 0 min 0,000 mm 0,0 UV-I 0 W/m 9,6 C 16,2 C 1,6 km/h (1 Bft) 100,00 %
31.03.2017 20:34 16,2 C 65 % 1014,0 hPa 0,0 l/m 0,2 km/h (0 Bft) O-NO 65 0 min 0,000 mm 0,0 UV-I 0 W/m 9,6 C 16,2 C 1,6 km/h (1 Bft) 98,00 %
31.03.2017 20:36 16,2 C 65 % 1014,1 hPa 0,0 l/m 1,4 km/h (1 Bft) O-NO 65 0 min 0,000 mm 0,0 UV-I 0 W/m 9,6 C 16,2 C 3,2 km/h (1 Bft) 100,00 %
31.03.2017 20:38 16,2 C 65 % 1014,0 hPa 0,0 l/m 2,3 km/h (1 Bft) O-NO 65 0 min 0,000 mm 0,0 UV-I 0 W/m 9,6 C 16,2 C 3,2 km/h (1 Bft) 95,74 %
31.03.2017 20:40 16,2 C 65 % 1014,0 hPa 0,0 l/m 2,5 km/h (1 Bft) O-NO 65 0 min 0,000 mm 0,0 UV-I 0 W/m 9,6 C 16,2 C 3,2 km/h (1 Bft) 96,00 %
31.03.2017 20:42 16,2 C 65 % 1014,0 hPa 0,0 l/m 3,4 km/h (1 Bft) O-NO 65 0 min 0,000 mm 0,0 UV-I 0 W/m 9,6 C 16,2 C 4,8 km/h (1 Bft) 95,74 %
31.03.2017 20:44 16,2 C 65 % 1014,0 hPa 0,0 l/m 3,5 km/h (1 Bft) O-NO 65 0 min 0,000 mm 0,0 UV-I 0 W/m 9,6 C 16,2 C 6,4 km/h (2 Bft) 97,87 %
31.03.2017 20:46 16,4 C 64 % 1014,0 hPa 0,0 l/m 4,1 km/h (1 Bft) O-NO 65 0 min 0,000 mm 0,0 UV-I 0 W/m 9,6 C 16,4 C 6,4 km/h (2 Bft) 94,74 %
31.03.2017 20:48 16,5 C 63 % 1014,0 hPa 0,0 l/m 3,9 km/h (1 Bft) O-NO 65 0 min 0,000 mm 0,0 UV-I 0 W/m 9,4 C 16,5 C 6,4 km/h (2 Bft) 96,00 %
31.03.2017 20:50 16,7 C 63 % 1014,0 hPa 0,0 l/m 3,8 km/h (1 Bft) O-NO 65 0 min 0,000 mm 0,0 UV-I 0 W/m 9,6 C 16,7 C 4,8 km/h (1 Bft) 97,87 %
31.03.2017 20:52 16,7 C 62 % 1014,0 hPa 0,0 l/m 4,3 km/h (1 Bft) O-NO 66 0 min 0,000 mm 0,0 UV-I 0 W/m 9,4 C 16,7 C 8,0 km/h (2 Bft) 97,87 %
31.03.2017 20:54 16,7 C 62 % 1014,0 hPa 0,0 l/m 4,5 km/h (1 Bft) O-NO 68 0 min 0,000 mm 0,0 UV-I 0 W/m 9,4 C 16,7 C 6,4 km/h (2 Bft) 98,00 %
31.03.2017 20:56 16,8 C 61 % 1013,9 hPa 0,0 l/m 5,8 km/h (2 Bft) O-NO 71 0 min 0,000 mm 0,0 UV-I 0 W/m 9,2 C 16,8 C 8,0 km/h (2 Bft) 100,00 %
31.03.2017 20:58 16,8 C 61 % 1013,9 hPa 0,0 l/m 5,7 km/h (1 Bft) O-NO 61 0 min 0,000 mm 0,0 UV-I 0 W/m 9,2 C 16,8 C 8,0 km/h (2 Bft) 100,00 %
31.03.2017 21:00 16,8 C 61 % 1013,9 hPa 0,0 l/m 8,0 km/h (2 Bft) O 84 0 min 0,000 mm 0,0 UV-I 0 W/m 9,2 C 16,0 C 14,5 km/h (3 Bft) 100,00 %
31.03.2017 21:02 16,8 C 60 % 1014,0 hPa 0,0 l/m 6,8 km/h (2 Bft) O-NO 76 0 min 0,026 mm 0,0 UV-I 0 W/m 9,0 C 16,6 C 11,3 km/h (2 Bft) 100,00 %
31.03.2017 21:04 16,9 C 60 % 1013,9 hPa 0,0 l/m 5,3 km/h (1 Bft) O-NO 68 0 min 0,000 mm 0,0 UV-I 0 W/m 9,1 C 16,9 C 8,0 km/h (2 Bft) 100,00 %
31.03.2017 21:06 16,9 C 60 % 1013,9 hPa 0,0 l/m 4,9 km/h (1 Bft) O-NO 65 0 min 0,000 mm 0,0 UV-I 0 W/m 9,1 C 16,9 C 8,0 km/h (2 Bft) 100,00 %
31.03.2017 21:08 16,8 C 60 % 1013,9 hPa 0,0 l/m 5,0 km/h (1 Bft) O-NO 58 0 min 0,000 mm 0,0 UV-I 0 W/m 9,0 C 16,8 C 6,4 km/h (2 Bft) 97,92 %
31.03.2017 21:10 16,7 C 61 % 1013,9 hPa 0,0 l/m 4,8 km/h (1 Bft) O-NO 63 0 min 0,000 mm 0,0 UV-I 0 W/m 9,1 C 16,7 C 8,0 km/h (2 Bft) 97,87 %
31.03.2017 21:12 16,6 C 61 % 1013,9 hPa 0,0 l/m 4,7 km/h (1 Bft) O-NO 61 0 min 0,000 mm 0,0 UV-I 0 W/m 9,0 C 16,6 C 8,0 km/h (2 Bft) 98,00 %
31.03.2017 21:14 16,5 C 61 % 1013,9 hPa 0,0 l/m 5,8 km/h (2 Bft) NO 56 0 min 0,000 mm 0,0 UV-I 0 W/m 9,0 C 16,5 C 8,0 km/h (2 Bft) 95,74 %
31.03.2017 21:16 16,5 C 61 % 1013,8 hPa 0,0 l/m 6,2 km/h (2 Bft) O-NO 67 0 min 0,000 mm 0,0 UV-I 0 W/m 9,0 C 16,5 C 9,7 km/h (2 Bft) 100,00 %
31.03.2017 21:18 16,4 C 61 % 1013,9 hPa 0,0 l/m 6,3 km/h (2 Bft) O-NO 59 0 min 0,000 mm 0,0 UV-I 0 W/m 8,9 C 16,4 C 8,0 km/h (2 Bft) 97,87 %
31.03.2017 21:20 16,4 C 61 % 1013,8 hPa 0,0 l/m 6,0 km/h (2 Bft) NO 55 0 min 0,000 mm 0,0 UV-I 0 W/m 8,9 C 16,4 C 8,0 km/h (2 Bft) 98,00 %
31.03.2017 21:22 16,4 C 61 % 1013,9 hPa 0,0 l/m 6,2 km/h (2 Bft) NO 51 0 min 0,000 mm 0,0 UV-I 0 W/m 8,9 C 16,4 C 9,7 km/h (2 Bft) 100,00 %
31.03.2017 21:24 16,4 C 61 % 1013,9 hPa 0,0 l/m 6,4 km/h (2 Bft) NO 56 0 min 0,000 mm 0,0 UV-I 0 W/m 8,9 C 16,4 C 9,7 km/h (2 Bft) 96,61 %
31.03.2017 21:26 16,4 C 61 % 1013,8 hPa 0,0 l/m 7,4 km/h (2 Bft) NO 56 0 min 0,000 mm 0,0 UV-I 0 W/m 8,9 C 15,9 C 9,7 km/h (2 Bft) 100,00 %
31.03.2017 21:28 16,3 C 61 % 1013,8 hPa 0,0 l/m 7,7 km/h (2 Bft) O-NO 57 0 min 0,000 mm 0,0 UV-I 0 W/m 8,8 C 15,6 C 12,9 km/h (3 Bft) 97,87 %
31.03.2017 21:30 16,2 C 62 % 1013,8 hPa 0,0 l/m 6,9 km/h (2 Bft) O-NO 59 0 min 0,000 mm 0,0 UV-I 0 W/m 8,9 C 15,9 C 9,7 km/h (2 Bft) 100,00 %
31.03.2017 21:32 16,1 C 62 % 1013,7 hPa 0,0 l/m 7,1 km/h (2 Bft) O-NO 59 0 min 0,000 mm 0,0 UV-I 0 W/m 8,8 C 15,7 C 12,9 km/h (3 Bft) 100,00 %
31.03.2017 21:34 16,1 C 62 % 1013,8 hPa 0,0 l/m 6,3 km/h (2 Bft) O-NO 63 0 min 0,000 mm 0,0 UV-I 0 W/m 8,8 C 16,1 C 9,7 km/h (2 Bft) 96,00 %
31.03.2017 21:36 16,1 C 62 % 1013,8 hPa 0,0 l/m 6,6 km/h (2 Bft) NO 51 0 min 0,000 mm 0,0 UV-I 0 W/m 8,8 C 16,0 C 11,3 km/h (2 Bft) 97,87 %
31.03.2017 21:38 16,1 C 62 % 1013,7 hPa 0,0 l/m 6,9 km/h (2 Bft) NO 53 0 min 0,000 mm 0,0 UV-I 0 W/m 8,8 C 15,8 C 9,7 km/h (2 Bft) 97,87 %
31.03.2017 21:40 16,1 C 62 % 1013,8 hPa 0,0 l/m 6,0 km/h (2 Bft) NO 42 0 min 0,000 mm 0,0 UV-I 0 W/m 8,8 C 16,1 C 8,0 km/h (2 Bft) 97,87 %
31.03.2017 21:42 16,0 C 62 % 1013,7 hPa 0,0 l/m 6,8 km/h (2 Bft) NO 53 0 min 0,000 mm 0,0 UV-I 0 W/m 8,7 C 15,8 C 8,0 km/h (2 Bft) 97,87 %
31.03.2017 21:44 16,0 C 62 % 1013,8 hPa 0,0 l/m 6,5 km/h (2 Bft) O-NO 74 0 min 0,000 mm 0,0 UV-I 0 W/m 8,7 C 16,0 C 9,7 km/h (2 Bft) 97,87 %
31.03.2017 21:46 16,1 C 62 % 1013,8 hPa 0,0 l/m 6,8 km/h (2 Bft) O-NO 76 0 min 0,000 mm 0,0 UV-I 0 W/m 8,8 C 15,9 C 9,7 km/h (2 Bft) 97,22 %
31.03.2017 21:48 16,0 C 61 % 1013,7 hPa 0,0 l/m 7,1 km/h (2 Bft) O-NO 65 0 min 0,000 mm 0,0 UV-I 0 W/m 8,5 C 15,6 C 8,0 km/h (2 Bft) 96,00 %
31.03.2017 21:50 16,0 C 62 % 1013,7 hPa 0,0 l/m 7,4 km/h (2 Bft) O-NO 68 0 min 0,000 mm 0,0 UV-I 0 W/m 8,7 C 15,5 C 9,7 km/h (2 Bft) 97,87 %
31.03.2017 21:52 16,0 C 62 % 1013,7 hPa 0,0 l/m 7,8 km/h (2 Bft) NO 51 0 min 0,000 mm 0,0 UV-I 0 W/m 8,7 C 15,3 C 11,3 km/h (2 Bft) 98,00 %
31.03.2017 21:54 15,9 C 62 % 1013,6 hPa 0,0 l/m 8,2 km/h (2 Bft) O-NO 59 0 min 0,000 mm 0,0 UV-I 0 W/m 8,6 C 14,9 C 11,3 km/h (2 Bft) 97,87 %
31.03.2017 21:56 15,9 C 62 % 1013,7 hPa 0,0 l/m 8,0 km/h (2 Bft) NO 55 0 min 0,000 mm 0,0 UV-I 0 W/m 8,6 C 15,0 C 12,9 km/h (3 Bft) 94,29 %
31.03.2017 21:58 15,9 C 62 % 1013,7 hPa 0,0 l/m 8,3 km/h (2 Bft) O-NO 59 0 min 0,000 mm 0,0 UV-I 0 W/m 8,6 C 14,9 C 12,9 km/h (3 Bft) 98,39 %
31.03.2017 22:00 15,9 C 62 % 1013,6 hPa 0,0 l/m 7,3 km/h (2 Bft) O-NO 61 0 min 0,000 mm 0,0 UV-I 0 W/m 8,6 C 15,4 C 12,9 km/h (3 Bft) 97,37 %
31.03.2017 22:02 15,9 C 62 % 1013,6 hPa 0,0 l/m 8,4 km/h (2 Bft) O-NO 59 0 min 0,050 mm 0,0 UV-I 0 W/m 8,6 C 14,8 C 12,9 km/h (3 Bft) 97,87 %
31.03.2017 22:04 15,9 C 62 % 1013,5 hPa 0,0 l/m 8,3 km/h (2 Bft) NO 47 0 min 0,000 mm 0,0 UV-I 0 W/m 8,6 C 14,9 C 12,9 km/h (3 Bft) 94,00 %
31.03.2017 22:06 15,8 C 62 % 1013,5 hPa 0,0 l/m 9,0 km/h (2 Bft) NO 54 0 min 0,000 mm 0,0 UV-I 0 W/m 8,5 C 14,5 C 14,5 km/h (3 Bft) 95,74 %
31.03.2017 22:08 15,7 C 62 % 1013,5 hPa 0,0 l/m 8,2 km/h (2 Bft) O-NO 58 0 min 0,000 mm 0,0 UV-I 0 W/m 8,4 C 14,7 C 14,5 km/h (3 Bft) 95,74 %
31.03.2017 22:10 15,7 C 62 % 1013,5 hPa 0,0 l/m 8,2 km/h (2 Bft) O-NO 69 0 min 0,000 mm 0,0 UV-I 0 W/m 8,4 C 14,7 C 12,9 km/h (3 Bft) 98,00 %
31.03.2017 22:12 15,7 C 62 % 1013,5 hPa 0,0 l/m 7,6 km/h (2 Bft) O-NO 57 0 min 0,000 mm 0,0 UV-I 0 W/m 8,4 C 15,0 C 11,3 km/h (2 Bft) 100,00 %
31.03.2017 22:14 15,7 C 63 % 1013,5 hPa 0,0 l/m 8,5 km/h (2 Bft) O-NO 70 0 min 0,000 mm 0,0 UV-I 0 W/m 8,7 C 14,6 C 14,5 km/h (3 Bft) 100,00 %
31.03.2017 22:16 15,6 C 63 % 1013,5 hPa 0,0 l/m 8,9 km/h (2 Bft) NO 53 0 min 0,000 mm 0,0 UV-I 0 W/m 8,6 C 14,3 C 14,5 km/h (3 Bft) 97,87 %
31.03.2017 22:18 15,6 C 63 % 1013,5 hPa 0,0 l/m 9,4 km/h (2 Bft) O 80 0 min 0,000 mm 0,0 UV-I 0 W/m 8,6 C 14,1 C 14,5 km/h (3 Bft) 100,00 %
31.03.2017 22:20 15,5 C 63 % 1013,5 hPa 0,0 l/m 9,1 km/h (2 Bft) O-NO 75 0 min 0,000 mm 0,0 UV-I 0 W/m 8,5 C 14,1 C 14,5 km/h (3 Bft) 100,00 %
31.03.2017 22:22 15,4 C 64 % 1013,5 hPa 0,0 l/m 10,8 km/h (2 Bft) O-NO 69 0 min 0,000 mm 0,0 UV-I 0 W/m 8,6 C 13,2 C 14,5 km/h (3 Bft) 98,04 %
31.03.2017 22:24 15,4 C 63 % 1013,5 hPa 0,0 l/m 9,3 km/h (2 Bft) O-NO 71 0 min 0,000 mm 0,0 UV-I 0 W/m 8,4 C 13,9 C 12,9 km/h (3 Bft) 97,87 %
31.03.2017 22:26 15,4 C 63 % 1013,5 hPa 0,0 l/m 10,3 km/h (2 Bft) O 84 0 min 0,000 mm 0,0 UV-I 0 W/m 8,4 C 13,4 C 14,5 km/h (3 Bft) 100,00 %
31.03.2017 22:28 15,5 C 63 % 1013,5 hPa 0,0 l/m 10,1 km/h (2 Bft) O 80 0 min 0,000 mm 0,0 UV-I 0 W/m 8,5 C 13,6 C 14,5 km/h (3 Bft) 97,87 %
31.03.2017 22:30 15,5 C 63 % 1013,5 hPa 0,0 l/m 9,9 km/h (2 Bft) O-NO 57 0 min 0,000 mm 0,0 UV-I 0 W/m 8,5 C 13,7 C 14,5 km/h (3 Bft) 98,00 %
31.03.2017 22:32 15,6 C 62 % 1013,5 hPa 0,0 l/m 12,3 km/h (3 Bft) O-NO 72 0 min 0,000 mm 0,0 UV-I 0 W/m 8,3 C 12,8 C 17,7 km/h (3 Bft) 94,87 %
31.03.2017 22:34 15,7 C 62 % 1013,5 hPa 0,0 l/m 11,0 km/h (2 Bft) O-NO 65 0 min 0,000 mm 0,0 UV-I 0 W/m 8,4 C 13,5 C 14,5 km/h (3 Bft) 95,92 %
31.03.2017 22:36 15,7 C 62 % 1013,4 hPa 0,0 l/m 11,0 km/h (2 Bft) O-NO 74 0 min 0,000 mm 0,0 UV-I 0 W/m 8,4 C 13,5 C 16,1 km/h (3 Bft) 97,87 %
31.03.2017 22:38 15,7 C 62 % 1013,4 hPa 0,0 l/m 9,4 km/h (2 Bft) O-NO 78 0 min 0,000 mm 0,0 UV-I 0 W/m 8,4 C 14,2 C 12,9 km/h (3 Bft) 97,87 %
31.03.2017 22:40 15,7 C 62 % 1013,4 hPa 0,0 l/m 8,6 km/h (2 Bft) O-NO 61 0 min 0,000 mm 0,0 UV-I 0 W/m 8,4 C 14,5 C 12,9 km/h (3 Bft) 96,00 %
31.03.2017 22:42 15,6 C 62 % 1013,4 hPa 0,0 l/m 7,2 km/h (2 Bft) O 80 0 min 0,000 mm 0,0 UV-I 0 W/m 8,3 C 15,2 C 11,3 km/h (2 Bft) 96,00 %
31.03.2017 22:44 15,6 C 62 % 1013,4 hPa 0,0 l/m 8,3 km/h (2 Bft) O-NO 71 0 min 0,000 mm 0,0 UV-I 0 W/m 8,3 C 14,6 C 11,3 km/h (2 Bft) 97,14 %
31.03.2017 22:46 15,5 C 62 % 1013,4 hPa 0,0 l/m 7,2 km/h (2 Bft) O 80 0 min 0,000 mm 0,0 UV-I 0 W/m 8,3 C 15,1 C 11,3 km/h (2 Bft) 96,00 %
31.03.2017 22:48 15,5 C 62 % 1013,4 hPa 0,0 l/m 7,1 km/h (2 Bft) O-NO 72 0 min 0,000 mm 0,0 UV-I 0 W/m 8,3 C 15,1 C 11,3 km/h (2 Bft) 98,00 %
31.03.2017 22:50 15,5 C 62 % 1013,3 hPa 0,0 l/m 6,9 km/h (2 Bft) O-NO 71 0 min 0,000 mm 0,0 UV-I 0 W/m 8,3 C 15,2 C 11,3 km/h (2 Bft) 95,74 %
31.03.2017 22:52 15,4 C 62 % 1013,4 hPa 0,0 l/m 5,3 km/h (1 Bft) O-NO 68 0 min 0,000 mm 0,0 UV-I 0 W/m 8,2 C 15,4 C 8,0 km/h (2 Bft) 95,74 %
31.03.2017 22:54 15,4 C 62 % 1013,3 hPa 0,0 l/m 4,0 km/h (1 Bft) NO 52 0 min 0,000 mm 0,0 UV-I 0 W/m 8,2 C 15,4 C 8,0 km/h (2 Bft) 97,87 %
31.03.2017 22:56 15,2 C 64 % 1013,3 hPa 0,0 l/m 4,1 km/h (1 Bft) NO 53 0 min 0,000 mm 0,0 UV-I 0 W/m 8,4 C 15,2 C 4,8 km/h (1 Bft) 98,00 %
31.03.2017 22:58 14,8 C 65 % 1013,3 hPa 0,0 l/m 4,3 km/h (1 Bft) NO 53 0 min 0,000 mm 0,0 UV-I 0 W/m 8,3 C 14,8 C 6,4 km/h (2 Bft) 95,74 %
31.03.2017 23:00 14,5 C 65 % 1013,3 hPa 0,0 l/m 3,6 km/h (1 Bft) NO 53 0 min 0,000 mm 0,0 UV-I 0 W/m 8,0 C 14,5 C 4,8 km/h (1 Bft) 97,37 %
31.03.2017 23:02 14,4 C 66 % 1013,3 hPa 0,0 l/m 3,5 km/h (1 Bft) NO 53 0 min 0,051 mm 0,0 UV-I 0 W/m 8,1 C 14,4 C 4,8 km/h (1 Bft) 95,74 %
31.03.2017 23:04 14,3 C 66 % 1013,3 hPa 0,0 l/m 3,7 km/h (1 Bft) NO 53 0 min 0,000 mm 0,0 UV-I 0 W/m 8,0 C 14,3 C 4,8 km/h (1 Bft) 97,92 %
31.03.2017 23:06 14,4 C 66 % 1013,3 hPa 0,0 l/m 3,3 km/h (1 Bft) NO 53 0 min 0,000 mm 0,0 UV-I 0 W/m 8,1 C 14,4 C 4,8 km/h (1 Bft) 97,87 %
31.03.2017 23:08 14,3 C 66 % 1013,3 hPa 0,0 l/m 3,3 km/h (1 Bft) NO 53 0 min 0,000 mm 0,0 UV-I 0 W/m 8,0 C 14,3 C 4,8 km/h (1 Bft) 97,87 %
31.03.2017 23:10 14,3 C 67 % 1013,3 hPa 0,0 l/m 3,6 km/h (1 Bft) O-NO 57 0 min 0,000 mm 0,0 UV-I 0 W/m 8,3 C 14,3 C 4,8 km/h (1 Bft) 95,74 %
31.03.2017 23:12 14,2 C 67 % 1013,2 hPa 0,0 l/m 3,6 km/h (1 Bft) O-NO 59 0 min 0,000 mm 0,0 UV-I 0 W/m 8,2 C 14,2 C 4,8 km/h (1 Bft) 98,00 %
31.03.2017 23:14 14,1 C 67 % 1013,3 hPa 0,0 l/m 3,9 km/h (1 Bft) O-NO 59 0 min 0,000 mm 0,0 UV-I 0 W/m 8,1 C 14,1 C 6,4 km/h (2 Bft) 94,00 %
31.03.2017 23:16 13,9 C 68 % 1013,3 hPa 0,0 l/m 3,1 km/h (1 Bft) O-NO 59 0 min 0,000 mm 0,0 UV-I 0 W/m 8,1 C 13,9 C 4,8 km/h (1 Bft) 94,29 %
31.03.2017 23:18 13,7 C 69 % 1013,3 hPa 0,0 l/m 2,5 km/h (1 Bft) O-NO 59 0 min 0,000 mm 0,0 UV-I 0 W/m 8,1 C 13,7 C 4,8 km/h (1 Bft) 96,00 %
31.03.2017 23:20 13,6 C 69 % 1013,3 hPa 0,0 l/m 2,9 km/h (1 Bft) O-NO 59 0 min 0,000 mm 0,0 UV-I 0 W/m 8,0 C 13,6 C 4,8 km/h (1 Bft) 97,87 %
31.03.2017 23:22 13,6 C 69 % 1013,3 hPa 0,0 l/m 3,1 km/h (1 Bft) O-NO 59 0 min 0,000 mm 0,0 UV-I 0 W/m 8,0 C 13,6 C 4,8 km/h (1 Bft) 98,00 %
31.03.2017 23:24 13,6 C 69 % 1013,3 hPa 0,0 l/m 1,6 km/h (1 Bft) O-NO 59 0 min 0,000 mm 0,0 UV-I 0 W/m 8,0 C 13,6 C 3,2 km/h (1 Bft) 93,62 %
31.03.2017 23:26 13,5 C 70 % 1013,3 hPa 0,0 l/m 0,7 km/h (0 Bft) O-NO 59 0 min 0,000 mm 0,0 UV-I 0 W/m 8,1 C 13,5 C 1,6 km/h (1 Bft) 97,87 %
31.03.2017 23:28 13,3 C 70 % 1013,3 hPa 0,0 l/m 0,8 km/h (0 Bft) O-NO 59 0 min 0,000 mm 0,0 UV-I 0 W/m 7,9 C 13,3 C 1,6 km/h (1 Bft) 97,87 %
31.03.2017 23:30 13,0 C 72 % 1013,3 hPa 0,0 l/m 0,5 km/h (0 Bft) O-NO 59 0 min 0,000 mm 0,0 UV-I 0 W/m 8,1 C 13,0 C 1,6 km/h (1 Bft) 97,87 %
31.03.2017 23:32 12,8 C 73 % 1013,3 hPa 0,0 l/m 0,7 km/h (0 Bft) O-NO 59 0 min 0,000 mm 0,0 UV-I 0 W/m 8,1 C 12,8 C 3,2 km/h (1 Bft) 97,87 %
31.03.2017 23:34 12,6 C 74 % 1013,3 hPa 0,0 l/m 2,7 km/h (1 Bft) O-NO 59 0 min 0,000 mm 0,0 UV-I 0 W/m 8,1 C 12,6 C 3,2 km/h (1 Bft) 93,62 %
31.03.2017 23:36 12,5 C 74 % 1013,3 hPa 0,0 l/m 2,8 km/h (1 Bft) O-NO 59 0 min 0,000 mm 0,0 UV-I 0 W/m 8,0 C 12,5 C 4,8 km/h (1 Bft) 93,62 %
31.03.2017 23:38 12,2 C 75 % 1013,3 hPa 0,0 l/m 1,7 km/h (1 Bft) O-NO 59 0 min 0,000 mm 0,0 UV-I 0 W/m 7,9 C 12,2 C 3,2 km/h (1 Bft) 95,74 %
31.03.2017 23:40 12,0 C 76 % 1013,3 hPa 0,0 l/m 2,6 km/h (1 Bft) O-NO 59 0 min 0,000 mm 0,0 UV-I 0 W/m 7,9 C 12,0 C 4,8 km/h (1 Bft) 97,56 %
31.03.2017 23:42 11,9 C 77 % 1013,3 hPa 0,0 l/m 2,2 km/h (1 Bft) O-NO 59 0 min 0,000 mm 0,0 UV-I 0 W/m 8,0 C 11,9 C 3,2 km/h (1 Bft) 97,92 %
31.03.2017 23:44 11,8 C 77 % 1013,3 hPa 0,0 l/m 0,6 km/h (0 Bft) O-NO 59 0 min 0,000 mm 0,0 UV-I 0 W/m 7,9 C 11,8 C 3,2 km/h (1 Bft) 97,87 %
31.03.2017 23:46 11,7 C 77 % 1013,2 hPa 0,0 l/m 0,0 km/h (0 Bft) O-NO 59 0 min 0,000 mm 0,0 UV-I 0 W/m 7,8 C 11,7 C 1,6 km/h (1 Bft) 97,87 %
31.03.2017 23:48 11,7 C 78 % 1013,3 hPa 0,0 l/m 0,0 km/h (0 Bft) O-NO 59 0 min 0,000 mm 0,0 UV-I 0 W/m 8,0 C 11,7 C 0,0 km/h (0 Bft) 96,00 %
31.03.2017 23:50 11,6 C 78 % 1013,2 hPa 0,0 l/m 0,4 km/h (0 Bft) O-NO 59 0 min 0,000 mm 0,0 UV-I 0 W/m 7,9 C 11,6 C 1,6 km/h (1 Bft) 94,00 %
31.03.2017 23:52 11,5 C 78 % 1013,2 hPa 0,0 l/m 2,2 km/h (1 Bft) O-NO 59 0 min 0,000 mm 0,0 UV-I 0 W/m 7,8 C 11,5 C 3,2 km/h (1 Bft) 97,87 %
31.03.2017 23:54 11,6 C 78 % 1013,2 hPa 0,0 l/m 2,6 km/h (1 Bft) O-NO 59 0 min 0,000 mm 0,0 UV-I 0 W/m 7,9 C 11,6 C 3,2 km/h (1 Bft) 97,87 %
31.03.2017 23:56 11,6 C 78 % 1013,2 hPa 0,0 l/m 1,2 km/h (1 Bft) O-NO 59 0 min 0,000 mm 0,0 UV-I 0 W/m 7,9 C 11,6 C 3,2 km/h (1 Bft) 91,49 %
31.03.2017 23:58 11,6 C 78 % 1013,1 hPa 0,0 l/m 0,0 km/h (0 Bft) O-NO 59 0 min 0,000 mm 0,0 UV-I 0 W/m 7,9 C 11,6 C 0,0 km/h (0 Bft) 95,74 %
_ Min-Zeit 06:28 16:38 23:58 - 01:04 - - - - - - 06:28 06:28 01:04 13:54
Minimum _ 4,4 C 42 % 1013,1 hPa - 0,0 km/h (0 Bft) - - - - - - 3,4 C 4,4 C 0,0 km/h (0 Bft) 83,33 %
_ Max-Zeit 17:00 06:40 00:00 00:00 18:04 - - 06:54 14:00 13:02 12:52 13:34 16:56 17:46 00:34
Maximum _ 22,2 C 95 % 1023,5 hPa 0,0 l/m 12,5 km/h
O-NO (3 Bft)
- - 2 min 0,457 mm 3,6 UV-I 749 W/m 11,5 C 22,1 C 17,7 km/h
O-NO (3 Bft)
100,00 %
Durchschnitt _ 13,6 C 70 % 1018,4 hPa #0,0 l/m 4,6 km/h (1 Bft) O-NO - #12:30 h #3,632 mm 2,2 UV-I 423 W/m 7,6 C 13,4 C 7,4 km/h (2 Bft) 96,88 %